[[{"header":{"parameterUnit":"m.s-1","parameterCategory":1,"la1":30.6,"la2":29.2853,"lo1":-89.7004,"lo2":-87.6739,"dy":0.0162,"dx":0.0183,"nx":112,"ny":82,"refTime":"2023-05-31T06:00:00:Z","depth":0,"parameterNumber":2,"parameterNumberName":"U-component_of_WINDS"},"data":[0.0,0.0,0.0,0.0,0.0,0.0,0.0,0.0,0.0,0.0,0.0,0.0,0.0,0.0,0.0,0.0,0.0,0.0,0.0,0.0,0.0,0.0,0.0,0.0,0.0,0.0,0.0,0.0,0.0,0.0,0.0,0.0,0.0,0.0,0.0,0.0,0.0,0.0,0.0,0.0,0.0,0.0,0.0,0.0,0.0,0.0,0.0,0.0,0.0,0.0,0.0,0.0,0.0,0.0,0.0,0.0,0.0,0.0,0.0,0.0,0.0,0.0,0.0,0.0,0.0,0.0,0.0,0.0,0.0,0.0,0.0,0.0,0.0,0.0,0.0,0.0,0.0,0.0,0.0,0.0,0.0,0.0,0.0,0.0,0.0,0.0,0.0,0.0,0.0,0.0,0.738,0.7495,0.8092,0.8479,0.8479,0.8438,0.8748,0.9605,0.0,0.0,0.0,0.0,0.0,0.0,0.0,0.0,0.0,0.0,0.0,0.0,0.0,0.0,0.0,0.0,0.0,0.0,0.0,0.0,0.0,0.0,0.0,0.0,0.0,0.0,0.0,0.0,0.0,0.0,0.0,0.0,0.0,0.0,0.0,0.0,0.0,0.0,0.0,0.0,0.0,0.0,0.0,0.0,0.0,0.0,0.0,0.0,0.0,0.0,0.0,0.0,0.0,0.0,0.0,0.0,0.0,0.0,0.0,0.0,0.0,0.0,0.0,0.0,0.0,0.0,0.0,0.0,0.0,0.0,0.0,0.0,0.0,0.0,0.0,0.0,0.0,0.0,0.0,0.0,0.0,0.0,0.0,0.0,0.0,0.0,0.0,0.0,0.0,0.0,0.0,0.0,0.0,0.0,0.0,0.0,0.0,0.0,0.0,0.0,0.0,0.0,0.0,0.0,0.7421,0.8065,0.8343,0.8479,0.8479,0.8255,0.8272,0.8804,0.0,0.0,0.0,0.0,0.0,0.0,0.0,0.0,0.0,0.0,0.0,0.0,0.0,0.0,0.0,0.0,0.0,0.0,0.0,0.0,0.0,0.0,0.0,0.0,0.0,0.0,0.0,0.0,0.0,0.0,0.0,0.0,0.0,0.0,0.0,0.0,0.0,0.0,0.0,0.0,0.0,0.0,0.0,0.0,0.0,0.0,0.0,0.0,0.0,0.0,0.0,0.0,0.0,0.0,0.0,0.0,0.0,0.0,0.0,0.0,0.0,0.0,0.0,0.0,0.0,0.0,0.0,0.0,0.0,0.0,0.0,0.0,0.0,0.0,0.0,0.0,0.0,0.0,0.0,0.0,0.0,0.0,0.0,0.0,0.0,0.0,0.0,0.0,0.0,0.0,0.0,0.0,0.0,0.0,0.0,0.0,0.0,0.0,0.0,0.0,0.0,0.0,0.0,0.6936,0.7126,0.7672,0.7896,0.8044,0.8044,0.8019,0.8097,0.8438,0.8131,0.0,0.0,0.0,0.0,0.0,0.0,0.0,0.0,0.0,0.0,0.0,0.0,0.0,0.0,0.0,0.0,0.0,0.0,0.0,0.0,0.0,0.0,0.0,0.0,0.0,0.0,0.0,0.0,0.0,0.0,0.0,0.0,0.0,0.0,0.0,0.0,0.0,0.0,0.0,0.0,0.0,0.0,0.0,0.0,0.0,0.0,0.0,0.0,0.0,0.0,0.0,0.0,0.0,0.0,0.0,0.0,0.0,0.0,0.0,0.0,0.0,0.0,0.0,0.0,0.0,0.0,0.0,0.0,0.0,0.0,0.0,0.0,0.0,0.0,0.0,0.0,0.0,0.0,0.0,0.0,0.0,0.0,0.0,0.0,0.0,0.0,0.0,0.0,0.0,0.0,0.0,0.0,0.0,0.0,0.0,0.0,0.0,0.0,0.0,0.0,0.0,0.0,0.6923,0.6932,0.7192,0.7341,0.7547,0.7547,0.7681,0.7896,0.7967,0.7337,0.0,0.0,0.0,0.0,0.0,0.0,0.0,0.0,0.0,0.0,0.0,0.0,0.0,0.0,0.0,0.0,0.0,0.0,0.0,0.0,0.0,0.0,0.0,0.0,0.0,0.0,0.0,0.0,0.0,0.0,0.0,0.0,0.0,0.0,0.0,0.0,0.0,0.0,0.0,0.0,0.0,0.0,0.0,0.0,0.0,0.0,0.0,0.0,0.0,0.0,0.0,0.0,0.0,0.0,0.0,0.0,0.0,0.0,0.0,0.0,0.0,0.0,0.0,0.0,0.0,0.0,0.0,0.0,0.0,0.0,0.0,0.0,0.0,0.0,0.0,0.0,0.0,0.0,0.0,0.0,0.0,0.0,0.0,0.0,0.0,0.0,0.0,0.0,0.0,0.0,0.0,0.0,0.0,0.0,0.0,0.0,0.0,0.0,0.0,0.0,0.0,0.0,0.6771,0.7155,0.7223,0.7235,0.7235,0.7235,0.7202,0.7111,0.6808,0.68,0.0,0.0,0.0,0.0,0.0,0.0,0.0,0.0,0.0,0.0,0.0,0.0,0.0,0.0,0.0,0.0,0.0,0.0,0.0,0.0,0.0,0.0,0.0,0.0,0.0,0.0,0.0,0.0,0.0,0.0,0.0,0.0,0.0,0.0,0.0,0.0,0.0,0.0,0.0,0.0,0.0,0.0,0.0,0.0,0.0,0.0,0.0,0.0,0.0,0.0,0.0,0.0,0.0,0.0,0.0,0.0,0.0,0.0,0.0,0.0,0.0,0.0,0.0,0.0,0.0,0.0,0.0,0.0,0.0,0.0,0.0,0.0,0.0,0.0,0.0,0.0,0.0,0.0,0.0,0.0,0.0,0.0,0.0,0.0,0.0,0.0,0.0,0.0,0.0,0.0,0.0,0.0,0.0,0.0,0.0,0.0,0.0,0.0,0.0,0.0,0.0,0.0,0.6297,0.6526,0.0,0.6842,0.6942,0.6942,0.7167,0.7189,0.6726,0.0,0.0,0.0,0.0,0.0,0.0,0.0,0.0,0.0,0.0,0.0,0.0,0.0,0.0,0.0,0.0,0.0,0.0,0.0,0.0,0.0,0.0,0.0,0.0,0.0,0.0,0.0,0.0,0.0,0.0,0.0,0.0,0.0,0.0,0.0,0.0,0.0,0.0,0.0,0.0,0.0,0.0,0.0,0.0,0.0,0.0,0.0,0.0,0.0,0.0,0.0,0.0,0.0,0.0,0.0,0.0,0.0,0.0,0.0,0.0,0.0,0.0,0.0,0.0,0.0,0.0,0.0,0.0,0.0,0.0,0.0,0.0,0.0,0.0,0.0,0.0,0.0,0.0,0.0,0.0,0.0,0.0,0.0,0.0,0.0,0.0,0.0,0.0,0.0,0.0,0.0,0.0,0.0,0.0,0.0,0.0,0.0,0.0,0.0,0.0,0.0,0.0,0.5852,0.5975,0.6084,0.0,0.6537,0.6642,0.6642,0.681,0.6827,0.6542,0.0,0.0,0.0,0.0,0.0,0.0,0.0,0.0,0.0,0.0,0.0,0.0,0.0,0.0,0.0,0.0,0.0,0.0,0.0,0.0,0.0,0.0,0.0,0.0,0.0,0.0,0.0,0.0,0.0,0.0,0.0,0.0,0.0,0.0,0.0,0.0,0.0,0.0,0.0,0.0,0.0,0.0,0.0,0.0,0.0,0.0,0.0,0.0,0.0,0.0,0.0,0.0,0.0,0.0,0.0,0.0,0.0,0.0,0.0,0.0,0.0,0.0,0.0,0.0,0.0,0.0,0.0,0.0,0.0,0.0,0.0,0.0,0.0,0.0,0.0,0.0,0.0,0.0,0.0,0.0,0.0,0.0,0.0,0.0,0.0,0.0,0.0,0.0,0.0,0.0,0.0,0.0,0.0,0.0,0.0,0.0,0.0,0.0,0.0,0.0,0.0,0.0,0.5703,0.5937,0.6176,0.641,0.6437,0.6437,0.6437,0.6188,0.6086,0.0,0.0,0.0,0.0,0.0,0.0,0.0,0.0,0.0,0.0,0.0,0.0,0.0,0.0,0.0,0.0,0.0,0.0,0.0,0.0,0.0,0.0,0.0,0.0,0.0,0.0,0.0,0.0,0.0,0.0,0.0,0.0,0.0,0.0,0.0,0.0,0.0,0.0,0.0,0.0,0.0,0.0,0.0,0.0,0.0,0.0,0.0,0.0,0.0,0.0,0.0,0.0,0.0,0.0,0.0,0.0,0.0,0.0,0.0,0.0,0.0,0.0,0.0,0.0,0.0,0.0,0.0,0.0,0.0,0.0,0.0,0.0,0.0,0.0,0.0,0.0,0.0,0.0,0.0,0.0,0.0,0.0,0.0,0.0,0.0,0.0,0.0,0.0,0.0,0.0,0.0,0.0,0.0,0.0,0.0,0.0,0.0,0.0,0.0,0.0,0.0,0.0,0.0,0.5486,0.5812,0.6051,0.629,0.6388,0.6437,0.6437,0.6424,0.6368,0.6097,0.0,0.0,0.0,0.0,0.0,0.0,0.0,0.0,0.0,0.0,0.0,0.0,0.0,0.0,0.0,0.0,0.0,0.0,0.0,0.0,0.0,0.0,0.0,0.0,0.0,0.0,0.0,0.0,0.0,0.0,0.0,0.0,0.0,0.0,0.0,0.0,0.0,0.0,0.0,0.0,0.0,0.0,0.0,0.0,0.0,0.0,0.0,0.0,0.0,0.0,0.0,0.0,0.0,0.0,0.0,0.0,0.0,0.0,0.0,0.0,0.0,0.0,0.0,0.0,0.0,0.0,0.0,0.0,0.0,0.0,0.0,0.0,0.0,0.0,0.0,0.0,0.0,0.0,0.0,0.0,0.0,0.0,0.0,0.0,0.0,0.0,0.0,0.0,0.0,0.0,0.0,0.0,0.0,0.0,0.0,0.0,0.0,0.0,0.0,0.0,0.0,0.0,0.5438,0.5757,0.5996,0.6241,0.6328,0.6388,0.6431,0.6382,0.6244,0.6014,0.0,0.0,0.0,0.0,0.0,0.0,0.0,0.0,0.0,0.0,0.0,0.0,0.0,0.0,0.0,0.0,0.0,0.0,0.0,0.0,0.0,0.0,0.0,0.0,0.0,0.0,0.0,0.0,0.0,0.0,0.0,0.0,0.0,0.0,0.0,0.0,0.0,0.0,0.0,0.0,0.0,0.0,0.0,0.0,0.0,0.0,0.0,0.0,0.0,0.0,0.0,0.0,0.0,0.0,0.0,0.0,0.0,0.0,0.0,0.0,0.0,0.0,0.0,0.0,0.0,0.0,0.0,0.0,0.0,0.0,0.0,0.0,0.0,0.0,0.0,0.0,0.0,0.0,0.0,0.0,0.0,0.0,0.0,0.0,0.0,0.0,0.0,0.0,0.0,0.0,0.0,0.0,0.0,0.0,0.0,0.0,0.0,0.0,0.0,0.0,0.0,0.0,0.5347,0.5662,0.5991,0.6225,0.6263,0.6317,0.6426,0.6241,0.6106,0.6025,0.0,0.0,0.0,0.0,0.0,0.0,0.0,0.0,0.0,0.0,0.0,0.0,0.0,0.0,0.0,0.0,0.0,0.0,0.0,0.0,0.0,0.0,0.0,0.0,0.0,0.0,0.0,0.0,0.0,0.0,0.0,0.0,0.0,0.0,0.0,0.0,0.0,0.0,0.0,0.0,0.0,0.0,0.0,0.0,0.0,0.0,0.0,0.0,0.0,0.0,0.0,0.0,0.0,0.0,0.0,0.0,0.0,0.0,0.0,0.0,-0.2161,0.0,0.0,0.0,0.0,0.0,0.0,0.0,0.0,0.0,0.0,0.0,0.0,0.0,0.0,0.0,0.0,0.0,0.0,0.0,0.0,0.0,0.0,0.0,0.0,0.0,0.0,0.0,0.0,0.0,0.0,0.0,0.0,0.0,0.0,0.0,0.0,0.0,0.0,0.0,0.0,0.0,0.4307,0.525,0.5958,0.6111,0.6208,0.6317,0.6426,0.6388,0.6219,0.5979,0.6003,0.0,0.0,0.0,0.0,0.0,0.0,0.0,0.0,0.0,0.0,0.0,0.0,0.0,0.0,0.0,0.0,0.0,0.0,0.0,0.0,0.0,0.0,0.0,0.0,0.0,0.0,0.0,0.0,0.0,0.0,0.0,0.0,0.0,0.0,0.0,0.0,0.0,0.0,0.0,0.0,0.0,0.0,0.0,0.0,0.0,0.0,0.0,0.0,0.0,0.0,0.0,0.0,0.0,0.0,0.0,0.0,0.0,0.0,0.0,0.0,-0.2216,0.0,0.0,0.0,0.0,0.0,0.0,0.0,0.0,0.0,0.0,0.0,0.0,0.0,0.0,0.0,0.0,0.0,0.0,0.0,0.0,0.0,0.0,0.0,0.0,0.0,0.0,0.0,0.0,0.0,0.0,0.0,0.0,0.0,0.0,0.0,0.0,0.0,0.0,0.0,0.0,0.4681,0.5406,0.5866,0.5986,0.6111,0.623,0.6344,0.6404,0.6285,0.5926,0.5996,0.0,0.0,0.0,0.0,0.0,0.0,0.0,0.0,0.0,0.0,0.0,0.0,0.0,0.0,0.0,0.0,0.0,0.0,0.0,0.0,0.0,0.0,0.0,0.0,0.0,0.0,0.0,0.0,0.0,0.0,0.0,0.0,0.0,0.0,0.0,0.0,0.0,0.0,0.0,0.0,0.0,0.0,0.0,0.0,0.0,0.0,0.0,0.0,0.0,0.0,0.0,0.0,0.0,-0.3742,-0.3369,-0.3576,-0.3066,-0.2755,-0.2741,-0.2759,-0.2224,-0.1244,0.0,0.0,0.0,0.0,0.0,0.0,0.0,0.0,0.0,0.0,0.0,0.0,0.0,0.0,0.0,0.0,0.0,0.0,0.0,0.0,0.0,0.0,0.0,0.0,0.0,0.009,0.0449,0.0,0.0,0.0,0.0,0.0,0.0,0.0,0.0,0.0,0.0,0.0,0.0,0.5018,0.539,0.5779,0.5888,0.5991,0.6105,0.6225,0.6323,0.6241,0.592,0.5904,0.5795,0.0,0.0,0.0,0.0,0.0,0.0,0.0,0.0,0.0,0.0,0.0,0.0,0.0,0.0,0.0,0.0,0.0,0.0,0.0,0.0,0.0,0.0,0.0,0.0,0.0,0.0,0.0,0.0,0.0,0.0,0.0,0.0,-1.0272,-0.9481,0.0,0.0,0.0,0.0,0.0,0.0,0.0,0.0,0.0,0.0,0.0,0.0,0.0,-0.6549,-0.6645,-0.4972,-0.4243,-0.4523,-0.2572,-0.1731,-0.2056,-0.1948,-0.1931,-0.1903,-0.1894,0.0,-0.1564,-0.1532,0.0,0.0,0.0,0.0,0.0,0.0,0.0,0.0,0.0,0.0,0.0,0.0,0.0,0.0,0.0,0.0,0.0,0.0,0.0,0.0,0.0,0.0,0.3135,0.0629,0.0629,0.1256,0.0,0.1525,0.1873,0.2711,0.0,0.0,0.0,0.0,0.0,0.0,0.0,0.0,0.3383,0.4682,0.5779,0.5888,0.5915,0.5975,0.61,0.6121,0.6067,0.5915,0.5904,0.5795,0.5475,0.5894,0.0,0.0,0.0,0.0,0.0,0.0,0.0,0.0,0.0,0.0,0.0,0.0,0.0,0.0,0.0,0.0,0.0,0.0,0.0,0.0,0.0,0.0,0.0,0.0,0.0,0.0,0.0,0.0,0.0,-1.0799,-1.0868,-1.0605,-1.1059,-1.1112,0.0,0.0,0.0,0.0,0.0,0.0,0.0,0.0,0.0,-0.6985,-0.7278,-0.7443,-0.7473,-0.6055,-0.5174,-0.455,-0.3162,-0.2166,-0.1597,-0.1695,-0.1793,-0.1779,-0.1763,-0.1723,-0.1667,-0.1603,-0.1267,-0.086,0.0,0.0,0.0,0.0,0.1576,0.2409,0.3701,0.4314,0.0,0.0,0.0,0.0,0.0,0.0,0.0,0.0,0.0,0.0,0.0,0.0,0.0,0.0269,0.0269,0.0719,0.1256,0.1436,0.17,0.0,0.3358,0.3685,0.3603,0.0,0.0,0.0,0.0,0.488,0.4498,0.5166,0.5752,0.5801,0.5866,0.5926,0.598,0.6045,0.6034,0.5909,0.5904,0.5828,0.5659,0.5968,0.658,0.0,0.0,0.0,0.0,0.0,0.0,0.0,0.0,0.0,0.0,0.0,0.0,0.0,0.0,0.0,0.0,0.0,0.0,0.0,0.0,0.0,0.0,0.0,0.0,0.0,0.0,0.0,0.0,-1.1142,-1.1478,-1.1348,-1.1794,-1.196,0.0,0.0,0.0,0.0,0.0,0.0,-0.8307,-0.8213,-0.8077,-0.7903,-0.8049,-0.817,-0.806,-0.7156,-0.5983,-0.47,-0.3847,-0.2823,-0.1531,-0.1746,-0.1847,-0.1839,-0.1816,-0.1785,-0.1744,-0.1662,-0.1308,-0.0691,-0.0674,-0.0095,0.0763,0.1237,0.2093,0.3141,0.4087,0.4784,0.545,0.585,0.0,0.541,0.5384,0.0,0.0,0.0,0.0,0.1525,0.0629,0.0539,0.0629,0.009,0.018,0.0449,0.0987,0.1256,0.1705,0.0,0.3671,0.4275,0.421,0.0,0.0,0.0,0.0,0.5582,0.5405,0.5594,0.5779,0.5779,0.5828,0.586,0.586,0.5942,0.5958,0.5866,0.586,0.5822,0.5735,0.5908,0.6612,0.7746,0.0,0.0,0.0,0.0,0.0,0.0,0.0,0.0,0.0,0.0,0.0,0.0,0.0,0.0,0.0,0.0,0.0,0.0,0.0,0.0,0.0,0.0,0.0,0.0,0.0,0.0,0.0,0.0,0.0,-1.0437,-1.1722,0.0,0.0,0.0,0.0,-0.9307,-0.8649,-0.8228,-0.7929,-0.8203,-0.8208,-0.8121,-0.8264,-0.8338,-0.8231,-0.7558,-0.6401,-0.4933,-0.4199,-0.3058,-0.1885,-0.1884,-0.1868,-0.184,-0.1839,-0.1805,-0.1745,-0.1685,-0.1641,-0.1508,-0.1452,-0.0858,0.0095,0.0571,0.1997,0.3806,0.4277,0.5064,0.592,0.604,0.5432,0.4497,0.4414,0.3671,0.0,0.0,0.2867,0.2598,0.1615,0.2061,0.233,0.0449,0.0719,0.1077,0.0269,0.0808,0.1705,0.0,0.3671,0.43,0.4291,0.0,0.5364,0.4469,0.527,0.5517,0.4693,0.5339,0.5893,0.5893,0.5801,0.5741,0.5741,0.5746,0.5746,0.5741,0.5741,0.5741,0.5735,0.5735,0.6346,0.7746,0.8694,0.0,0.0,0.0,0.0,0.0,0.0,0.0,0.0,0.0,0.0,0.0,0.0,0.0,0.0,0.0,0.0,0.0,0.0,0.0,0.0,0.0,0.0,0.0,0.0,0.0,0.0,0.0,0.0,-1.1179,-1.2144,0.0,-1.0582,-1.0071,-0.9697,-0.9499,-0.8983,-0.862,-0.851,-0.8897,-0.9083,-0.902,-0.9157,-0.9274,-0.9372,-0.9176,-0.795,-0.5722,-0.5283,-0.4059,-0.1914,-0.1874,-0.185,-0.1839,-0.182,-0.1798,-0.1776,-0.1735,-0.1372,-0.0718,0.0101,0.0998,0.1876,0.2564,0.3254,0.4037,0.4473,0.478,0.5064,0.5619,0.5189,0.4336,0.4308,0.3224,0.1972,0.1972,0.1525,0.0987,0.0629,0.0808,0.0897,0.018,0.0269,0.0449,0.009,0.0269,0.0811,0.1823,0.283,0.365,0.429,0.4745,0.5017,0.5294,0.5694,0.5839,0.5541,0.5831,0.6024,0.6024,0.5915,0.5844,0.5844,0.5773,0.5735,0.5735,0.5735,0.5819,0.5908,0.5997,0.6612,0.8002,0.8352,0.9488,0.0,0.0,0.0,0.0,0.0,0.0,0.0,0.0,0.0,0.0,0.0,0.0,0.0,0.0,0.0,0.0,0.0,0.0,0.0,0.0,0.0,0.0,0.0,0.0,0.0,-1.1538,-1.1843,-1.1141,-1.1953,-1.2036,-1.0678,-1.0118,-0.9815,-0.9603,-0.925,-0.9076,-0.9076,-0.9426,-0.968,-0.968,-0.9774,-0.9849,-0.9897,-0.9951,-0.8559,-0.5896,-0.5902,-0.4416,-0.1914,-0.1864,-0.184,-0.1839,-0.1819,-0.1805,-0.1794,-0.1663,-0.0976,0.0,0.0832,0.1439,0.183,0.3128,0.3623,0.391,0.4793,0.5093,0.5101,0.5536,0.5107,0.421,0.3942,0.2688,0.1346,0.0987,0.0449,0.0,0.0,0.0,0.0,0.0,0.0,0.0,0.0,0.0271,0.0814,0.1856,0.2595,0.3319,0.4334,0.4824,0.5203,0.5818,0.5975,0.6056,0.6138,0.6149,0.6149,0.6149,0.604,0.5947,0.5909,0.5833,0.5773,0.5735,0.5819,0.5908,0.6086,0.6169,0.6694,0.7746,0.844,0.9712,1.1634,0.0,0.0,0.0,0.0,0.0,0.0,0.0,0.0,0.0,0.0,0.0,0.0,0.0,0.0,0.0,0.0,0.0,0.0,0.0,0.0,0.0,0.0,0.0,-0.9864,-1.0772,-1.1143,-1.0268,-1.0954,-1.1151,-1.0154,-1.0429,-1.0288,-0.9284,-0.9456,-0.9618,-0.9618,-0.9747,-0.9829,-0.9822,-0.9829,-0.9761,-0.9625,-0.9754,-0.8348,-0.5643,-0.5752,-0.4344,-0.1883,-0.1853,-0.1839,-0.1839,-0.1724,-0.1823,-0.1795,-0.1346,-0.0555,0.0544,0.0421,0.0104,0.0,0.2031,0.3022,0.3504,0.5394,0.6083,0.604,0.5812,0.5107,0.4121,0.3224,0.224,0.1166,0.0269,0.0,0.0,0.0,0.0,0.0,0.0,0.0,0.0091,0.0,0.082,0.1818,0.2831,0.3088,0.3417,0.4338,0.5447,0.6051,0.5931,0.6116,0.0,0.6274,0.6274,0.6274,0.6274,0.6165,0.6045,0.5926,0.5909,0.5855,0.5746,0.5997,0.6086,0.6086,0.6346,0.6605,0.6884,0.8886,1.0686,1.2242,0.0,0.0,0.0,0.0,0.0,0.0,0.0,0.0,0.0,0.0,0.0,0.0,0.0,0.0,0.0,0.0,0.0,0.0,0.0,0.0,0.0,-0.9451,-0.9444,-0.9756,-1.0433,-1.0642,-1.0003,-1.0833,-1.0902,-0.9634,-0.9822,-0.9989,-0.9639,-0.9815,-0.9883,-0.9768,-0.9903,-0.9937,-0.9822,-0.993,-0.9971,-0.993,-0.8995,-0.7702,-0.5943,-0.4812,-0.3467,-0.1851,-0.1594,-0.1469,-0.1469,-0.1242,-0.1127,-0.1121,-0.0112,0.0558,0.1109,0.0977,0.1905,0.3202,0.3089,0.3638,0.4324,0.4793,0.5368,0.5931,0.5779,0.5107,0.4121,0.3224,0.224,0.1166,0.0269,0.0,0.0,0.0,0.0,0.0,0.0,0.0557,0.1122,0.1018,0.1861,0.3003,0.408,0.4307,0.4602,0.5482,0.5947,0.6208,0.617,0.6225,0.0,0.6382,0.6388,0.6388,0.6388,0.6285,0.6203,0.617,0.6194,0.6167,0.6139,0.6221,0.6435,0.6618,0.7312,0.8089,0.9052,1.0279,1.1112,0.0,0.0,0.0,0.0,0.0,0.0,0.0,0.0,0.0,0.0,0.0,0.0,0.0,0.0,0.0,0.0,0.0,0.0,0.0,0.0,0.0,0.0,-0.8931,-0.8799,-0.9092,-0.9735,-1.0025,-0.9662,-1.0088,-1.0186,-0.9579,-0.9754,-0.989,-0.9829,-0.9964,-0.9985,-0.9829,-0.9903,-0.991,-0.9822,-0.991,-0.9951,-0.9951,-0.8575,-0.7296,-0.5964,-0.4444,-0.2985,-0.1609,-0.1243,-0.1121,0.0,-0.1009,-0.0897,-0.0785,0.0,0.1008,0.0,0.0,0.0,0.0,0.0,0.4541,0.5424,0.5184,0.5596,0.6029,0.586,0.5476,0.4867,0.3952,0.3215,0.2568,0.1547,0.1006,0.0643,0.0638,0.0277,0.0094,0.0562,0.1133,0.1711,0.2084,0.3035,0.4003,0.461,0.0,0.0,0.608,0.6257,0.6323,0.6274,0.6312,0.6361,0.6426,0.6437,0.6437,0.6437,0.6476,0.6519,0.6463,0.6614,0.0,0.0,0.0,0.6764,0.6884,0.7841,0.0,0.0,0.0,1.1499,1.1929,0.0,0.0,0.0,1.2481,1.2554,0.0,0.0,0.0,0.0,0.0,0.0,0.0,0.0,0.0,0.0,0.0,0.0,0.0,0.0,0.0,0.0,-0.8011,-0.8053,-0.8231,-0.9039,-0.9469,-0.9248,-0.9258,-0.9464,-0.9842,-0.9951,-0.9971,-0.9856,-0.9971,-0.9992,-0.9856,0.0,0.0,0.0,0.0,-0.9451,-0.9451,-0.7965,-0.6703,-0.5514,-0.3949,-0.2519,-0.1375,-0.1016,-0.0897,-0.0897,-0.0785,-0.0785,-0.0785,-0.0224,0.1452,0.3658,0.4514,0.4348,0.3692,0.4591,0.5536,0.6404,0.6181,0.0,0.0,0.5996,0.5996,0.5894,0.4944,0.466,0.445,0.335,0.2438,0.1705,0.1675,0.0941,0.0574,0.1528,0.1912,0.2212,0.3123,0.416,0.4901,0.4882,0.5689,0.629,0.629,0.6372,0.6404,0.6301,0.6372,0.6437,0.6437,0.6437,0.6437,0.6437,0.0,0.0,0.668,0.6949,0.7031,0.679,0.6948,0.7158,0.7457,0.8336,0.9209,1.026,1.1142,1.1911,1.2747,1.2747,1.2747,1.2747,1.2723,1.2699,0.0,0.0,0.0,0.0,0.0,0.0,0.0,0.0,0.0,0.0,0.0,0.0,0.0,0.0,0.0,-0.8156,-0.785,-0.7834,-0.8642,-0.8914,-0.9144,-0.929,-0.9559,-0.9747,-0.9992,-0.9924,-0.9903,-0.9998,-1.0032,-1.0039,-1.0005,-0.9757,-0.964,-0.964,-0.8278,-0.749,-0.749,-0.5018,-0.3774,-0.3421,0.0,0.0,-0.1014,-0.0674,-0.0449,-0.0449,-0.0224,-0.0224,0.0,0.2015,0.4073,0.6114,0.6288,0.5579,0.4663,0.5679,0.6237,0.6415,0.6279,0.6246,0.6246,0.61,0.6067,0.5894,0.4944,0.466,0.0,0.3405,0.3033,0.2851,0.2838,0.2688,0.2628,0.2823,0.3546,0.427,0.4415,0.533,0.6049,0.5987,0.624,0.6404,0.6404,0.642,0.6431,0.6404,0.642,0.6437,0.6437,0.6437,0.6437,0.6437,0.6437,0.6426,0.6504,0.6807,0.7021,0.6972,0.7247,0.818,0.9884,1.0067,1.098,1.2811,1.2991,1.3076,1.3049,1.3049,1.3049,1.3037,1.2807,1.2699,0.0,0.0,0.0,0.0,0.0,0.0,0.0,0.0,0.0,0.0,0.0,-0.9015,-0.8232,0.0,-0.7899,-0.7945,-0.7769,-0.7976,-0.8593,-0.8664,-0.8922,-0.9464,-0.97,-0.9883,-1.0032,-1.0053,-1.008,-1.0161,-1.0102,-0.9982,-0.991,-0.8955,-0.8296,-0.8296,-0.6808,-0.5896,-0.5896,-0.3937,-0.2937,-0.2937,-0.1366,-0.0673,-0.0673,-0.0336,-0.0224,-0.0224,-0.0112,0.0,0.0224,0.2551,0.4459,0.5941,0.6521,0.622,0.5703,0.6152,0.6437,0.642,0.6306,0.6306,0.6333,0.6214,0.6214,0.6166,0.5674,0.5577,0.5465,0.4932,0.4372,0.4006,0.3964,0.3622,0.3375,0.3874,0.4403,0.4922,0.5471,0.5996,0.642,0.6366,0.6399,0.6437,0.6437,0.6537,0.6537,0.6437,0.6437,0.6437,0.6437,0.6437,0.6437,0.6542,0.6736,0.6836,0.6942,0.7217,0.7621,0.8193,0.8335,0.908,1.0556,1.1099,1.1844,1.2768,1.3235,1.3447,1.3314,1.3314,1.3314,1.3314,1.3169,1.3109,0.0,0.0,0.0,0.0,0.0,0.0,0.0,-0.9491,-0.9345,-0.8559,-0.8475,-0.8379,-0.7941,-0.788,-0.7901,-0.774,-0.7796,-0.7994,-0.8366,-0.8453,-0.8723,-0.9592,-0.9579,-0.9761,-0.9915,-1.0035,-1.0122,-1.0149,-1.0025,-0.9651,-0.9252,-0.787,-0.693,-0.6661,-0.5081,-0.4306,-0.4306,-0.2994,-0.2358,-0.235,-0.0914,-0.0337,-0.0336,-0.0112,0.0,0.0,0.0,0.0224,0.0895,0.2645,0.4229,0.5435,0.6282,0.6578,0.6469,0.6442,0.6437,0.6426,0.6333,0.6361,0.642,0.6328,0.6361,0.6437,0.6437,0.6437,0.6415,0.6328,0.5773,0.5118,0.504,0.448,0.4028,0.4935,0.5135,0.5436,0.6337,0.6537,0.6537,0.6537,0.6537,0.6537,0.6537,0.6742,0.6742,0.6537,0.6537,0.6537,0.6537,0.6537,0.6637,0.6842,0.7042,0.7341,0.7547,0.7733,0.8139,0.9099,0.9259,0.9742,1.0772,1.1693,1.2341,1.2537,1.3285,1.364,1.3592,1.3592,1.3592,1.3592,1.3592,1.3568,-1.022,-0.9747,-0.9146,-0.8857,-0.8512,-0.8575,0.0,-0.9606,-0.9197,-0.8501,-0.8574,-0.8349,-0.743,-0.7492,-0.774,-0.7693,-0.7796,-0.7994,-0.8366,-0.8384,-0.8506,-0.8976,-0.8976,-0.9155,-0.9542,-0.9318,-0.9255,-0.9373,-0.9509,-0.8874,-0.7586,-0.7056,-0.6239,-0.4903,-0.3227,-0.2342,-0.2342,-0.097,-0.0358,-0.0353,-0.0116,0.0,0.0,0.0,0.0,0.0,0.0,0.1232,0.3245,0.3461,0.486,0.6737,0.6828,0.6709,0.6584,0.6475,0.6437,0.6437,0.642,0.6426,0.6437,0.642,0.6426,0.6437,0.6437,0.6437,0.6431,0.642,0.6326,0.6232,0.6221,0.6126,0.6037,0.6237,0.6437,0.6642,0.6742,0.6942,0.7135,0.7135,0.7135,0.7135,0.7135,0.7135,0.7042,0.6842,0.6942,0.7135,0.7135,0.7135,0.7135,0.7135,0.7135,0.7341,0.7547,0.7633,0.7819,0.811,0.9076,1.0032,1.1104,1.2073,1.3036,1.4017,1.4208,1.4099,1.387,1.387,1.387,1.387,1.387,1.3737,-0.862,-0.848,-0.8268,-0.8099,-0.808,-0.8301,-0.8799,-0.8927,-0.8687,-0.7846,-0.7862,-0.7818,-0.7481,-0.7551,-0.7747,-0.7883,-0.8008,-0.8062,-0.824,-0.829,-0.8381,-0.8521,-0.8441,-0.8564,-0.94,-0.9298,-0.9227,-0.9362,-0.8568,-0.7661,-0.7029,-0.5165,-0.3732,-0.3228,-0.1631,-0.0867,-0.0875,-0.0244,0.0,0.0,0.0,0.0,0.0,0.0,0.0,0.0,0.0,0.1009,0.2573,0.2436,0.3403,0.4893,0.4759,0.5101,0.5672,0.6178,0.6437,0.6437,0.6437,0.6437,0.6437,0.6437,0.6437,0.6437,0.6437,0.6437,0.6437,0.6542,0.6642,0.6642,0.6836,0.6836,0.6836,0.6836,0.6936,0.7042,0.7042,0.7141,0.7235,0.7235,0.7235,0.7235,0.7235,0.7341,0.7441,0.7247,0.7241,0.7235,0.7235,0.7235,0.7241,0.7441,0.754,0.7739,0.7839,0.7839,0.8435,0.9805,1.0288,1.1268,1.2931,1.3414,1.38,1.4292,1.4292,1.4244,1.4135,1.4135,1.4135,1.4135,1.4135,1.4075,-0.7465,-0.7516,-0.7548,-0.7235,-0.7522,-0.7924,-0.7892,-0.806,-0.8103,-0.7359,-0.7366,-0.7475,-0.7513,-0.7616,-0.7758,-0.7926,-0.8084,-0.8144,-0.8019,-0.8106,-0.8198,-0.8142,-0.7939,-0.82,-0.8919,-0.8943,-0.8997,-0.9133,-0.7671,-0.6638,-0.6173,-0.3514,-0.1949,-0.1571,-0.0506,0.0,0.0,0.0,0.0,0.0,0.0,0.0,0.0,0.0,0.0,0.0,0.0,0.0671,0.1778,0.1654,0.241,0.348,0.3713,0.4188,0.4986,0.6017,0.6464,0.6437,0.6437,0.6437,0.6537,0.6537,0.6537,0.6637,0.6637,0.6637,0.6637,0.6842,0.6942,0.6942,0.7135,0.7235,0.7235,0.7235,0.7241,0.7341,0.7341,0.7341,0.7434,0.7434,0.7434,0.7434,0.7434,0.754,0.7746,0.7746,0.754,0.7434,0.7434,0.7434,0.754,0.7646,0.7839,0.8137,0.8435,0.8428,0.9213,1.1072,1.1463,1.2242,1.3811,1.41,1.4292,1.4292,1.4292,1.4292,1.4292,1.4292,1.4292,1.4292,1.4292,1.4292,-0.7278,-0.7269,-0.7374,-0.6575,-0.6714,-0.704,-0.7269,-0.7323,-0.7361,-0.7486,-0.7421,-0.7377,-0.7497,-0.7616,-0.7703,-0.7709,-0.791,-0.8019,-0.7894,-0.7981,-0.8013,-0.7883,-0.7867,-0.7921,-0.8171,-0.8182,-0.8111,-0.8231,-0.7043,-0.5781,-0.4467,-0.2892,-0.1439,-0.0129,0.0,0.0,0.0,0.0,0.0,0.0,0.0,0.0,0.0,0.0,0.0,0.0,0.0,0.0666,0.1749,0.1778,0.2547,0.3708,0.4684,0.5062,0.5084,0.6241,0.654,0.6437,0.6437,0.6537,0.6742,0.6742,0.6942,0.7135,0.7135,0.7135,0.7135,0.7135,0.7235,0.7235,0.7235,0.7235,0.7235,0.7235,0.7441,0.7547,0.7547,0.7746,0.7939,0.7939,0.7939,0.7939,0.7939,0.7939,0.7939,0.7939,0.7939,0.7939,0.7939,0.7939,0.7939,0.7939,0.8038,0.8428,0.9509,0.9509,0.9993,1.117,1.2145,1.2727,1.2727,1.3715,1.4292,1.4292,1.4292,1.4292,1.4292,1.4292,1.4292,1.4292,1.4292,1.4292,-0.6667,-0.6737,-0.6986,-0.6769,-0.6953,-0.7241,-0.7317,-0.7399,-0.7448,-0.7404,-0.7301,-0.7203,-0.7171,-0.7258,-0.7421,-0.766,-0.7899,-0.8095,-0.822,-0.8269,-0.8187,-0.7905,-0.7943,-0.7573,-0.6602,-0.7459,-0.7692,-0.6841,-0.5577,-0.4191,-0.2852,-0.144,-0.0526,0.0,0.0,0.0,0.0,0.0,0.0,0.0,0.0,0.0,0.0,0.0,0.0,0.0,0.0,0.0222,0.0657,0.1428,0.1853,0.2358,0.3598,0.4512,0.5205,0.5717,0.6364,0.6936,0.6742,0.6842,0.7042,0.7042,0.7141,0.7235,0.7235,0.7235,0.7235,0.7441,0.7441,0.754,0.764,0.7739,0.7739,0.7739,0.7839,0.7839,0.7839,0.7939,0.8038,0.8038,0.8038,0.8038,0.8038,0.8038,0.8038,0.8038,0.8038,0.8038,0.8038,0.8038,0.8038,0.8038,0.8038,0.8428,0.9509,0.9608,1.0386,1.2047,1.2533,1.3028,1.3703,1.41,1.4292,1.4292,1.4292,1.4292,1.4292,1.4292,1.4292,1.4292,1.4292,1.4292,-0.6261,-0.6502,-0.6812,-0.6855,-0.7105,-0.7334,-0.7334,-0.7394,-0.7421,-0.7296,-0.7143,-0.6991,-0.6877,-0.6948,-0.7122,-0.7399,-0.7682,-0.7948,-0.8187,-0.8225,-0.8149,-0.7959,-0.7593,-0.6936,-0.5831,-0.6293,-0.6251,-0.5405,-0.4098,-0.298,-0.2076,-0.0783,0.0,0.0,0.0,0.0,0.0,0.0,0.0,0.0,0.0,0.0,0.0,0.0,0.0,0.0,0.0,0.022,0.0758,0.1407,0.2033,0.263,0.3868,0.4782,0.5364,0.6012,0.667,0.7341,0.7042,0.7141,0.7341,0.7341,0.7441,0.7441,0.7441,0.7441,0.754,0.7739,0.7746,0.7746,0.7939,0.8038,0.8038,0.8038,0.8038,0.8038,0.8038,0.8038,0.8038,0.8038,0.8038,0.8038,0.8038,0.8038,0.8038,0.8038,0.8038,0.8038,0.8038,0.8038,0.8038,0.8038,0.8329,0.9023,1.01,1.0485,1.1463,1.3125,1.3318,1.3607,1.4292,1.4292,1.4292,1.4292,1.4292,1.4292,1.4292,1.4292,1.4292,1.4292,1.4292,1.4292,-0.6399,-0.6638,-0.685,-0.6975,-0.7165,-0.7328,-0.7328,-0.7323,-0.7285,-0.716,-0.6942,-0.6736,-0.6616,-0.6698,-0.6828,-0.697,-0.7301,-0.7622,-0.7872,-0.791,-0.7825,-0.7932,-0.6722,-0.5794,-0.5667,-0.4555,-0.3838,-0.3894,0.0,-0.2039,-0.1967,-0.078,0.0,0.0,0.0,0.0,0.0,0.0,0.0,0.0,0.0,0.0,0.0,0.0,0.0,0.0112,0.011,0.0866,0.2126,0.2123,0.2938,0.4233,0.5466,0.5865,0.5877,0.7015,0.7554,0.7547,0.7341,0.7441,0.7646,0.7646,0.7846,0.8038,0.8038,0.8038,0.8038,0.8038,0.8038,0.8038,0.8038,0.8038,0.8038,0.8038,0.8038,0.8038,0.8038,0.8038,0.8038,0.8038,0.8038,0.8038,0.8038,0.8038,0.8038,0.8038,0.8038,0.8038,0.8038,0.8038,0.8038,0.8038,0.9023,1.0092,1.117,1.2145,1.3125,1.4196,1.4292,1.4292,1.4292,1.4292,1.4292,1.4292,1.4292,1.4292,1.4292,1.4292,1.4292,1.4292,1.4292,1.4292,-0.6779,-0.6953,-0.7095,-0.7214,-0.7225,-0.7198,-0.7198,-0.7138,-0.704,-0.6915,-0.6632,-0.6366,-0.6246,-0.6388,-0.666,-0.7046,-0.7486,-0.7926,-0.8345,-0.7486,-0.681,-0.6761,-0.5518,-0.4181,-0.3132,-0.2727,-0.2099,0.0,-0.1628,-0.1517,-0.0638,-0.0257,0.0,0.0,0.0,0.0,0.0,0.0,0.0,0.0,0.0,0.0,0.0,0.0,0.0567,0.1677,0.154,0.2268,0.371,0.4393,0.4834,0.5363,0.6614,0.7119,0.719,0.7691,0.7872,0.7839,0.7839,0.7839,0.7939,0.7939,0.7939,0.8038,0.8038,0.8038,0.8038,0.8038,0.8038,0.8038,0.8038,0.8038,0.8038,0.8038,0.8038,0.8038,0.8038,0.8038,0.8038,0.8038,0.8038,0.8038,0.8038,0.8038,0.8038,0.8038,0.8726,0.8924,0.8137,0.8726,0.9213,0.9213,1.019,1.117,1.2242,1.2533,1.3125,1.4196,1.4292,1.4292,1.4292,1.4292,1.4292,1.4292,1.4292,1.4292,1.4292,1.4496,1.4496,1.4292,1.4688,1.4783,-0.7008,-0.7182,-0.7328,-0.7399,-0.7323,-0.7209,-0.7105,-0.6991,-0.6839,-0.6616,-0.6366,-0.6149,-0.6029,-0.6203,-0.6486,-0.6861,-0.7323,-0.7559,-0.7379,-0.6658,-0.6,-0.5339,-0.4115,-0.2915,-0.2125,-0.1487,-0.0864,0.0,-0.0746,-0.0752,0.0,0.0,0.0,0.0,0.0,0.0,0.0,0.0122,0.0241,0.0236,0.0353,0.0351,0.046,0.0912,0.1693,0.2455,0.0,0.3749,0.5185,0.5569,0.6083,0.6731,0.7441,0.7746,0.7846,0.7939,0.8038,0.8038,0.8038,0.8038,0.8038,0.8038,0.8038,0.8038,0.8038,0.8038,0.8038,0.8038,0.8038,0.8038,0.8038,0.8038,0.8038,0.8038,0.8038,0.8038,0.8038,0.8038,0.8038,0.8038,0.8038,0.8137,0.8627,0.8726,0.8825,0.9312,1.0069,1.022,0.9622,1.0053,1.0288,1.0288,1.1268,1.2047,1.263,1.3125,1.3703,1.4292,1.4292,1.4292,1.4292,1.4292,1.44,1.4496,1.4496,1.4496,1.4688,1.4783,1.4796,1.4688,1.4987,1.4987,-0.7187,-0.7372,-0.7519,-0.7519,-0.7415,-0.7252,-0.7013,-0.6855,-0.6654,-0.6317,-0.6149,-0.6024,-0.5904,-0.6078,-0.6339,-0.6416,-0.6712,-0.6691,-0.5773,-0.5571,-0.4963,-0.3997,-0.2549,-0.176,-0.1734,-0.0741,0.0,0.0,0.0,0.0,0.0,0.0,0.0,0.0126,0.0124,0.0123,0.0121,0.0367,0.0607,0.0589,0.094,0.1165,0.1149,0.2367,0.3019,0.3235,0.0,0.0,0.6553,0.6321,0.693,0.8038,0.8038,0.8038,0.8038,0.8038,0.8038,0.8038,0.8038,0.8038,0.8038,0.8038,0.8038,0.8038,0.8038,0.8038,0.8038,0.8038,0.8038,0.8038,0.8038,0.8038,0.8038,0.8038,0.8038,0.8038,0.8038,0.8038,0.8038,0.8038,0.8058,0.8364,0.9252,0.9466,0.9772,1.0861,1.1406,1.1721,1.1822,1.1667,1.155,1.155,1.2433,1.3008,1.2975,1.3858,1.434,1.4304,1.4292,1.4292,1.4292,1.4292,1.44,1.4688,1.4688,1.4796,1.5083,1.5178,1.5178,1.5083,1.5178,1.5178,-0.7519,-0.7562,-0.7519,-0.7519,-0.735,-0.7127,-0.6888,-0.666,-0.6426,-0.617,-0.6018,-0.5899,-0.5784,-0.5958,-0.5899,-0.5333,-0.5477,-0.5444,-0.464,-0.3523,-0.2744,-0.249,-0.1167,-0.0383,-0.0378,-0.0124,0.0,0.0,0.0247,0.0247,0.0,0.0,0.0124,0.0372,0.0371,0.049,0.0845,0.0847,0.096,0.0942,0.1973,0.2415,0.2406,0.3605,0.4804,0.6019,0.592,0.0,0.8138,0.7756,0.7839,0.8038,0.8038,0.8038,0.8038,0.8038,0.8038,0.8038,0.8038,0.8038,0.8038,0.8038,0.8038,0.8038,0.8038,0.8038,0.8038,0.8038,0.8038,0.8038,0.8038,0.8038,0.8038,0.8038,0.8038,0.8038,0.8038,0.8038,0.8038,0.8038,0.814,0.833,0.8533,0.8632,0.9124,1.0149,1.1205,1.2147,1.3078,1.3148,1.3127,1.3127,1.4049,1.4572,1.4359,1.4544,1.4545,1.4316,1.4292,1.4292,1.4292,1.4292,1.44,1.4688,1.4688,1.4796,1.5083,1.5356,1.5356,1.5083,1.5452,1.5547,-0.5602,-0.5654,-0.5654,-0.5654,-0.549,-0.5489,-0.5687,-0.5639,-0.5577,-0.5871,-0.5855,-0.5615,-0.5116,-0.5184,-0.5133,-0.43,-0.4397,-0.4315,-0.3196,-0.2518,-0.1786,-0.1029,-0.0387,0.0,0.0,0.0124,0.0247,0.0247,0.0617,0.0617,0.0247,0.037,0.0617,0.0741,0.0741,0.0858,0.0965,0.1823,0.217,0.2118,0.3498,0.4159,0.4122,0.529,0.6255,0.6916,0.7321,0.0,0.8581,0.8282,0.816,0.816,0.816,0.8113,0.8038,0.8038,0.8038,0.8038,0.8038,0.8038,0.8038,0.8038,0.8038,0.8038,0.8038,0.8038,0.8038,0.8038,0.8038,0.8038,0.8038,0.8038,0.8038,0.8038,0.8038,0.8038,0.8038,0.8106,0.816,0.816,0.8787,0.9507,1.0022,1.0707,1.1484,1.2628,1.3339,1.3942,1.447,1.4688,1.4665,1.4412,1.4796,1.5052,1.4932,1.492,1.4799,1.4533,1.4521,1.4449,1.4304,1.44,1.4592,1.4892,1.507,1.5261,1.5452,1.5547,1.5547,1.5452,1.5737,1.5737,-0.3589,-0.377,-0.3812,-0.3799,-0.3785,-0.383,-0.4383,-0.4354,-0.4502,-0.4985,-0.5107,-0.4835,-0.4121,-0.4135,-0.3982,-0.312,-0.316,-0.2914,-0.1624,-0.1563,-0.111,0.0,0.0255,0.0254,0.0248,0.0494,0.0617,0.0617,0.0864,0.0,0.0617,0.0864,0.0988,0.1111,0.1358,0.1595,0.1575,0.3173,0.3872,0.3779,0.5272,0.5912,0.5834,0.698,0.7487,0.7476,0.822,0.0,0.0,0.8411,0.8296,0.8269,0.8269,0.8194,0.8085,0.8052,0.8038,0.8038,0.8038,0.8038,0.8038,0.8038,0.8038,0.8038,0.8038,0.8038,0.8038,0.8038,0.8038,0.8038,0.8038,0.8038,0.8038,0.8038,0.8038,0.8052,0.8079,0.8383,0.8685,0.872,0.9768,1.0924,1.1756,1.2625,1.3599,1.4756,1.5139,1.5269,1.5584,1.5765,1.5728,1.5318,1.527,1.5258,1.5299,1.5299,1.5178,1.5022,1.4998,1.4875,1.4594,1.4774,1.4942,1.5178,1.5408,1.5695,1.5832,1.5885,1.5885,1.5832,1.5832,1.5832,-0.299,-0.3282,-0.3432,-0.3384,-0.3487,-0.3542,-0.3362,-0.3279,-0.3111,-0.3162,-0.3135,-0.3135,-0.3045,-0.3057,-0.2754,-0.1748,-0.1598,-0.1255,0.0,0.0237,0.0365,0.0741,0.0878,0.088,0.0866,0.0988,0.0988,0.0988,0.1235,0.0,0.0988,0.0988,0.1111,0.1482,0.2589,0.3323,0.3684,0.4848,0.5534,0.5514,0.6517,0.6987,0.709,0.8214,0.8719,0.8706,0.8655,0.0,0.0,0.8472,0.8384,0.8269,0.8269,0.8262,0.8235,0.8092,0.8038,0.8038,0.8038,0.8038,0.8038,0.8038,0.8038,0.8038,0.8038,0.8038,0.8038,0.8038,0.8038,0.8038,0.8038,0.8038,0.8038,0.8038,0.8038,0.8079,0.8221,0.9056,0.9916,0.9983,1.1098,1.2068,1.2173,1.2335,1.2901,1.4094,1.4341,1.4674,1.5743,1.5873,1.5873,1.5825,1.5813,1.5834,1.5799,1.5786,1.5869,1.5897,1.5884,1.5744,1.5366,1.5452,1.5434,1.5452,1.5699,1.5796,1.5832,1.6099,1.6086,1.5832,1.5832,1.5832,-0.0596,-0.0731,-0.0738,-0.0734,-0.0813,-0.0985,-0.1485,-0.1585,-0.1766,-0.2285,-0.2435,-0.2244,-0.1638,-0.1534,-0.1269,-0.0282,-0.0095,0.0099,0.0536,0.0664,0.0685,0.0836,0.0974,0.0984,0.0988,0.1235,0.1354,0.1585,0.1706,0.0,0.2639,0.2684,0.2821,0.2798,0.4128,0.4831,0.4903,0.6059,0.6715,0.6647,0.7829,0.8307,0.8233,0.8739,0.894,0.8927,0.8676,0.0,0.0,0.8425,0.8323,0.8269,0.8269,0.8214,0.8126,0.8065,0.8038,0.8038,0.8038,0.8038,0.8038,0.8038,0.8038,0.8038,0.8038,0.8038,0.8038,0.8038,0.8038,0.8038,0.8038,0.8038,0.8158,0.9045,0.9168,0.9415,1.0314,1.0949,1.1358,1.144,1.2472,1.3367,1.3367,1.4201,1.4911,1.5351,1.5565,1.5873,1.6311,1.6418,1.6418,1.6418,1.6099,1.5956,1.6175,1.6163,1.6156,1.6177,1.6164,1.6037,1.5757,1.5944,1.5991,1.5973,1.6275,1.6374,1.6353,1.6473,1.6473,1.6353,1.6353,1.6353,0.1162,0.1199,0.1103,0.1097,0.104,0.0761,0.0,-0.0198,-0.0461,-0.1106,-0.1276,-0.0999,-0.0371,-0.0275,0.0,0.0651,0.084,0.0861,0.0919,0.0946,0.0979,0.1146,0.117,0.1189,0.1208,0.1458,0.1819,0.2397,0.2396,0.0,0.4085,0.4664,0.4707,0.4303,0.5491,0.6169,0.6102,0.7348,0.787,0.7777,0.8652,0.9035,0.894,0.894,0.894,0.8927,0.0,0.0,0.0,0.8465,0.835,0.8269,0.8269,0.8201,0.8099,0.8058,0.8038,0.8038,0.8038,0.8038,0.8038,0.8038,0.8038,0.8038,0.8137,0.8038,0.8038,0.8038,0.8038,0.8052,0.8485,0.87,0.9037,1.0408,1.0755,1.1114,1.2048,1.2631,1.2961,1.3032,1.404,1.4911,1.4911,1.5779,1.643,1.643,1.663,1.6736,1.6736,1.6736,1.6736,1.6736,1.6311,1.6205,1.6537,1.6537,1.6554,1.6665,1.6652,1.6626,1.6354,1.6443,1.6504,1.6426,1.6693,1.6794,1.67,1.6794,1.6794,1.67,1.67,1.67,0.1752,0.1609,0.1443,0.142,0.1136,0.0866,0.0838,0.0686,0.074,0.074,0.074,0.0744,0.0759,0.075,0.0745,0.076,0.0763,0.087,0.1207,0.1251,0.1394,0.1748,0.1778,0.1808,0.1839,0.1869,0.2356,0.3646,0.3646,0.0,0.5276,0.6628,0.6803,0.5518,0.6686,0.7386,0.7386,0.8539,0.9157,0.915,0.9008,0.894,0.894,0.894,0.894,0.0,0.0,0.0,0.0,0.8648,0.8533,0.8269,0.8269,0.8269,0.8248,0.8099,0.8038,0.8038,0.8038,0.8038,0.8038,0.8038,0.8038,0.8038,0.8336,0.8237,0.8038,0.8038,0.8038,0.8272,0.9617,1.0171,1.072,1.2035,1.2607,1.2761,1.2975,1.3876,1.4803,1.4961,1.5873,1.663,1.663,1.6723,1.6736,1.6736,1.6736,1.6736,1.6736,1.6736,1.6736,1.6736,1.6736,1.6842,1.7173,1.7173,1.7279,1.7582,1.7582,1.7448,1.7154,1.7141,1.7007,1.6714,1.6994,1.7007,1.67,1.7007,1.6994,1.67,1.67,1.67,0.1684,0.1653,0.1711,0.1663,0.1496,0.1344,0.1328,0.1262,0.1306,0.1342,0.1335,0.133,0.1358,0.1341,0.1331,0.1358,0.1362,0.1374,0.1511,0.1548,0.1589,0.1744,0.1813,0.2208,0.3034,0.3167,0.3279,0.3588,0.0,0.0,0.541,0.6561,0.7069,0.6685,0.7955,0.8603,0.8395,0.8805,0.9008,0.9008,0.896,0.894,0.894,0.894,0.0,0.0,0.0,0.0,0.0,0.8316,0.8194,0.8113,0.8113,0.8113,0.8106,0.8058,0.8137,0.8237,0.8237,0.8428,0.8528,0.8528,0.8528,0.8528,0.8627,0.8528,0.8336,0.8528,0.8607,0.9011,1.0255,1.0671,1.1438,1.3517,1.409,1.4469,1.5352,1.5846,1.6094,1.6168,1.6405,1.6736,1.6736,1.6689,1.6729,1.7041,1.7003,1.7121,1.7528,1.758,1.7646,1.7965,1.7978,1.7711,1.7212,1.7173,1.7279,1.7582,1.7582,1.7542,1.7448,1.7448,1.7395,1.7315,1.7395,1.7395,1.7301,1.7395,1.7395,1.7301,1.7301,1.7301,0.1617,0.1693,0.1752,0.1714,0.166,0.1617,0.1617,0.1555,0.1512,0.1561,0.1557,0.1553,0.1583,0.1564,0.1553,0.1584,0.1579,0.1585,0.1628,0.1651,0.168,0.1727,0.2239,0.2639,0.3003,0.3807,0.4373,0.4243,0.0,0.0,0.6705,0.7371,0.7744,0.7821,0.862,0.9028,0.894,0.894,0.894,0.894,0.894,0.894,0.894,0.8879,0.0,0.0,0.0,0.0,0.0,0.8323,0.8192,0.8137,0.8237,0.8336,0.8336,0.8336,0.8435,0.8528,0.8528,0.8627,0.8825,0.8825,0.9114,0.9624,0.9689,0.9168,0.8741,0.939,0.9686,1.0112,1.1875,1.2535,1.3112,1.5246,1.5829,1.6088,1.6897,1.7054,1.7054,1.7054,1.7054,1.708,1.7197,1.7186,1.7279,1.7675,1.7676,1.7796,1.817,1.821,1.829,1.8477,1.849,1.8233,1.7754,1.7622,1.7595,1.7916,1.7822,1.7756,1.7756,1.7862,1.7876,1.7756,1.7756,1.7756,1.7756,1.7635,1.7582,1.7582,1.7582,1.7582,0.0,0.163,0.1695,0.1692,0.1652,0.1614,0.1614,0.1569,0.0,0.1568,0.1575,0.1583,0.1611,0.1592,0.1581,0.1611,0.1591,0.1592,0.1651,0.1767,0.1885,0.1917,0.2921,0.3298,0.2235,0.4247,0.551,0.548,0.0,0.0,0.8712,0.883,0.894,0.894,0.894,0.894,0.894,0.894,0.894,0.894,0.894,0.8933,0.892,0.8777,0.0,0.0,0.0,0.0,0.0,0.8618,0.8571,0.8428,0.8726,0.8825,0.8825,0.8825,0.8825,0.8825,0.8825,0.8924,0.9023,0.9023,0.9912,1.0932,1.1225,1.0254,0.9367,1.0624,1.0988,1.1586,1.4149,1.5024,1.5535,1.6871,1.7358,1.7582,1.7582,1.7595,1.7609,1.7609,1.7635,1.7742,1.8023,1.8063,1.8143,1.845,1.8477,1.8477,1.8517,1.8517,1.8531,1.8544,1.8557,1.8557,1.8557,1.8263,1.8196,1.8477,1.8237,1.8076,1.8076,1.8343,1.8357,1.809,1.8063,1.8036,1.8009,1.7716,1.7582,1.7582,1.7582,1.7582,0.1532,0.0,0.1596,0.1573,0.1575,0.1583,0.0,0.157,0.1569,0.1599,0.1606,0.1609,0.1615,0.1592,0.1581,0.1611,0.1591,0.1584,0.1622,0.2498,0.3406,0.4219,0.4728,0.5202,0.5704,0.6323,0.6715,0.0,0.0,0.8159,0.7598,0.838,0.894,0.894,0.894,0.894,0.894,0.894,0.894,0.894,0.894,0.8982,0.9082,0.9047,0.0,0.0,0.0,0.0,0.8918,0.8851,0.8763,0.8726,0.8726,0.8825,0.8825,0.8825,0.8931,0.913,0.913,0.9813,1.0779,1.156,1.1579,1.1535,1.2473,1.2443,1.2213,1.2563,1.2708,1.3137,1.4383,1.5059,1.5695,1.6924,1.7422,1.7582,1.7582,1.7769,1.7943,1.7943,1.8116,1.8303,1.837,1.8183,1.813,1.8437,1.8277,1.829,1.8758,1.8824,1.8905,1.9132,1.9158,1.9158,1.9158,1.8677,1.8424,1.849,1.8424,1.8384,1.8384,1.845,1.8464,1.8384,1.8156,1.7929,1.7689,1.7622,1.7582,1.7582,1.7582,1.7582,0.1519,0.1549,0.1568,0.1551,0.156,0.1575,0.159,0.1592,0.1596,0.1613,0.1617,0.1617,0.1617,0.1603,0.1797,0.2217,0.2418,0.2633,0.3094,0.3782,0.4386,0.5005,0.5713,0.6069,0.0,0.7221,0.7709,0.0,0.0,0.8602,0.7931,0.8712,0.9161,0.9161,0.9194,0.9085,0.894,0.9051,0.912,0.8941,0.9159,0.9183,0.9239,0.9166,0.9129,0.0,0.0,0.0,0.9063,0.8999,0.9031,0.9031,0.913,0.9122,0.9122,0.9122,0.9229,0.9434,0.9434,0.9871,1.0825,1.1816,1.2264,1.2669,1.3892,1.4636,1.4939,1.4433,1.4333,1.4642,1.5744,1.6266,1.6599,1.7237,1.7462,1.7622,1.7756,1.7916,1.809,1.8223,1.8384,1.8531,1.8664,1.8544,1.8531,1.8851,1.8744,1.8758,1.9078,1.9132,1.9185,1.9345,1.9372,1.9372,1.9372,1.9078,1.8891,1.8891,1.8758,1.8691,1.8691,1.8824,1.8824,1.8691,1.8531,1.8303,1.7996,1.7996,1.7996,1.7996,1.7862,1.7796,0.1699,0.1842,0.1873,0.1671,0.1771,0.1782,0.1611,0.1718,0.1817,0.1817,0.1817,0.1918,0.2019,0.212,0.2421,0.3324,0.3582,0.4067,0.521,0.5329,0.5358,0.5656,0.6552,0.692,0.6111,0.7784,0.0,0.0,0.0,0.8989,0.901,0.9208,0.9428,0.9449,0.9399,0.9284,0.901,0.923,0.9385,0.9133,0.9348,0.9466,0.9287,0.9248,0.9248,0.0,0.0,0.0,0.9135,0.9191,0.9236,0.9236,0.9525,0.9624,0.9624,0.9624,0.9624,0.9632,1.0053,1.0271,1.0729,1.1942,1.3004,1.4048,1.5415,1.6549,1.7105,1.6172,1.5927,1.6043,1.7186,1.7475,1.7515,1.7515,1.7582,1.7716,1.7969,1.8103,1.825,1.8504,1.8597,1.8704,1.8945,1.8985,1.9078,1.9332,1.9372,1.9372,1.9372,1.9372,1.9372,1.9372,1.9372,1.9372,1.9372,1.9372,1.9372,1.9372,1.9132,1.8985,1.8985,1.9239,1.9225,1.8931,1.8918,1.8784,1.849,1.849,1.849,1.8477,1.8237,1.8103,0.2647,0.3028,0.2899,0.1873,0.2283,0.2714,0.1817,0.232,0.2922,0.2922,0.2922,0.3224,0.4124,0.4425,0.4526,0.4526,0.47,0.5335,0.6588,0.6727,0.7061,0.8056,0.8381,0.8639,0.8635,0.8845,0.0,0.0,0.0,0.9246,0.9377,0.9367,0.936,0.9485,0.9338,0.9338,0.9384,0.9492,0.9478,0.9455,0.9455,0.9512,0.9422,0.9493,0.9524,0.0,0.0,0.9541,0.9565,0.9541,0.9533,0.9525,0.9624,0.9624,0.9624,0.9624,0.9624,0.9945,1.1974,1.2777,1.3373,1.5318,1.5605,1.5427,1.6613,1.7211,1.7515,1.7305,1.712,1.6896,1.6901,1.7021,1.7208,1.7208,1.7609,1.7983,1.8036,1.8437,1.8798,1.8851,1.9065,1.9252,1.9292,1.9305,1.9319,1.9359,1.9372,1.9372,1.9372,1.9372,1.9372,1.9372,1.9372,1.9372,1.9372,1.9372,1.9372,1.9372,1.9319,1.9305,1.9305,1.9345,1.9225,1.8931,1.8918,1.8784,1.849,1.849,1.849,1.849,1.8437,1.8424,0.2848,0.3509,0.3908,0.3424,0.383,0.425,0.3736,0.3943,0.4343,0.4198,0.4187,0.4376,0.4734,0.4964,0.5239,0.5969,0.6505,0.7188,0.7923,0.7993,0.8288,0.8911,0.0,0.9363,0.9479,0.9399,0.0,0.0,0.0,0.0,0.9429,0.9474,0.9572,0.964,0.9584,0.968,0.9859,0.9758,0.9661,0.964,0.9653,0.969,0.9546,0.9546,0.9606,0.9624,0.0,0.9624,0.9624,0.9624,0.9624,0.9624,0.9624,0.992,1.0511,1.1312,1.1548,1.1676,1.2989,1.3529,1.4045,1.5602,1.5994,1.6008,1.7069,1.7475,1.7582,1.7582,1.7488,1.7355,1.7208,1.7275,1.7422,1.7595,1.7849,1.809,1.825,1.8504,1.8691,1.8691,1.8798,1.8945,1.9105,1.9132,1.9185,1.9345,1.9372,1.9372,1.9372,1.9372,1.9372,1.9372,1.9372,1.9372,1.9372,1.9372,1.9372,1.9372,1.9372,1.9372,1.9372,1.9372,1.9305,1.9172,1.9158,1.9105,1.8971,1.8971,1.8971,1.8958,1.8798,1.8731,0.3688,0.4438,0.5251,0.5669,0.5689,0.557,0.5404,0.5505,0.5575,0.5624,0.5615,0.5583,0.5684,0.593,0.6375,0.7469,0.8288,0.88,0.896,0.909,0.9161,0.9284,0.9514,0.9675,0.9911,0.0,0.0,0.0,0.0,0.0,0.948,0.9546,0.9745,0.9784,0.9815,0.9908,1.0095,0.9916,0.9815,0.9784,0.9847,0.9795,0.9624,0.9624,0.9723,1.001,1.001,1.0109,1.0306,1.0306,1.0306,1.0306,1.0306,1.0788,1.1688,1.2798,1.3424,1.3702,1.3948,1.4401,1.4931,1.578,1.6125,1.6499,1.7371,1.7582,1.7582,1.7582,1.7582,1.7582,1.7582,1.7635,1.7756,1.7996,1.8103,1.8237,1.8531,1.8597,1.8611,1.8691,1.8691,1.8771,1.8985,1.9025,1.9105,1.9332,1.9372,1.9372,1.9372,1.9372,1.9372,1.9372,1.9426,1.9466,1.9466,1.9466,1.9439,1.9372,1.9372,1.9372,1.9372,1.9372,1.9372,1.9372,1.9372,1.9372,1.9372,1.9372,1.9372,1.9359,1.9132,1.9025,0.6026,0.6531,0.6988,0.8245,0.7447,0.6215,0.5793,0.6177,0.6752,0.7066,0.6984,0.7055,0.8166,0.8663,0.8976,0.9297,0.9448,0.9608,0.9662,0.9677,0.9786,0.9794,0.9801,0.9911,1.0257,0.0,0.0,0.0,0.0,0.0,0.9908,0.9654,0.9738,0.99,0.9738,0.973,0.99,0.973,0.9738,0.9908,0.9892,0.9795,0.9624,0.9624,1.0109,1.1072,1.1072,1.1658,1.2436,1.2436,1.2436,1.2436,1.2436,1.2533,1.2662,1.3095,1.4036,1.5101,1.5354,1.6248,1.7331,1.745,1.7463,1.7477,1.7582,1.7582,1.7582,1.7582,1.7582,1.7582,1.7582,1.7796,1.8023,1.805,1.8263,1.8544,1.8824,1.8891,1.8971,1.9252,1.9305,1.9319,1.9332,1.9332,1.9345,1.9359,1.9372,1.9372,1.9372,1.9372,1.9372,1.9372,1.9613,1.9773,1.9773,1.9773,1.9653,1.9386,1.9372,1.9372,1.9372,1.9372,1.9372,1.9372,1.9372,1.9372,1.9372,1.9372,1.9372,1.9372,1.9345,1.9332,0.6388,0.7112,0.7921,0.8527,0.8259,0.7925,0.7992,0.8249,0.854,0.8707,0.8615,0.8707,0.918,0.9384,0.9458,0.9682,0.9719,0.9704,0.966,0.9768,0.9838,0.9739,0.9937,1.015,1.0257,0.0,0.0,0.0,0.0,0.0,0.9721,0.9665,0.9657,0.9721,0.9665,0.9657,0.9721,0.9657,0.9657,0.9721,1.041,1.0663,1.0592,1.1277,1.1755,1.2145,1.2145,1.2339,1.2727,1.2727,1.2727,1.2727,1.3414,1.3808,1.4068,1.5022,1.5809,1.651,1.6795,1.7174,1.7582,1.7582,1.7582,1.7582,1.7582,1.7582,1.7582,1.7582,1.7582,1.7582,1.7582,1.7809,1.809,1.8277,1.8544,1.8784,1.8905,1.8918,1.8905,1.8838,1.8824,1.8878,1.9065,1.9092,1.9158,1.9332,1.9372,1.9372,1.9372,1.9372,1.9439,1.9613,1.9893,2.0067,2.0067,2.0067,2.0027,1.9907,1.9559,1.9372,1.9372,1.9372,1.9372,1.9372,1.9372,1.9372,1.9372,1.9372,1.9372,1.9372,1.9372,1.9582,0.7197,0.7843,0.8581,0.881,0.8947,0.916,0.9663,0.9632,0.9518,0.973,0.9815,0.9777,0.9777,0.9777,0.9931,0.9937,0.996,0.9915,0.98,0.9945,0.9981,0.9863,1.0056,1.016,1.016,0.0,0.0,0.0,0.0,0.0,0.0,0.9624,0.9624,0.9624,0.9624,0.9723,1.0109,1.0109,1.0306,1.06,1.1668,1.1853,1.1268,1.195,1.2533,1.3221,1.3221,1.3414,1.3703,1.3703,1.3703,1.38,1.4484,1.4946,1.5319,1.6295,1.6901,1.7194,1.7475,1.7582,1.7582,1.7582,1.7582,1.7582,1.7582,1.7582,1.7582,1.7582,1.7582,1.7609,1.7702,1.7956,1.8263,1.8557,1.8784,1.8945,1.9038,1.8985,1.8891,1.8784,1.8771,1.8824,1.9025,1.9065,1.9132,1.9332,1.9372,1.9372,1.9372,1.9372,1.9479,1.9773,2.0054,2.0227,2.0227,2.0321,2.0334,2.0362,1.9853,1.9639,1.9639,1.9875,1.9875,1.9757,1.9757,1.9875,1.9992,1.9875,1.9875,1.9992,1.9992,2.0219,0.882,0.8958,0.9185,0.9535,0.9624,0.977,1.0314,0.9875,0.9527,1.0186,1.0116,0.9992,0.9992,1.0214,1.0436,1.0436,1.0436,1.0436,1.0428,1.0274,1.016,1.016,1.016,1.016,1.016,0.0,0.0,0.0,0.0,0.0,0.0,0.9624,0.9624,0.9632,0.9632,1.0109,1.117,1.117,1.1755,1.2727,1.3811,1.3221,1.1268,1.1268,1.2339,1.4292,1.4292,1.4867,1.5832,1.5832,1.5832,1.5832,1.5832,1.6019,1.6313,1.6607,1.6901,1.7194,1.7475,1.7582,1.7582,1.7582,1.7582,1.7582,1.7582,1.7582,1.7582,1.7582,1.7582,1.7649,1.7969,1.8263,1.8557,1.8851,1.8931,1.9011,1.9305,1.9132,1.9011,1.9319,1.9372,1.9372,1.9372,1.9372,1.9372,1.9372,1.9372,1.9372,1.9372,1.9372,1.9492,1.9773,2.0067,2.0241,2.0241,2.0508,2.0671,2.0739,2.0362,2.0241,2.0227,2.0832,2.1074,2.0711,2.0711,2.0832,2.1194,2.0832,2.0832,2.1194,2.1194,2.1194,0.8674,0.8869,0.9153,0.938,0.9624,0.9916,1.0339,1.0192,1.0023,1.0353,1.0458,1.0498,1.0498,1.0615,1.0574,1.0452,1.0534,1.0485,1.0103,1.0111,1.0071,0.9819,0.9786,0.9786,0.9786,0.0,0.0,0.0,0.0,0.0,0.0,0.9624,0.992,1.069,1.069,1.1179,1.2242,1.2242,1.2436,1.2727,1.3028,1.3221,1.3414,1.4088,1.4758,1.5356,1.5356,1.5547,1.5832,1.5832,1.5832,1.5832,1.5832,1.6139,1.658,1.6673,1.7021,1.7462,1.7555,1.7582,1.7582,1.7582,1.7582,1.7582,1.7582,1.7582,1.7582,1.7582,1.7582,1.7702,1.8223,1.8424,1.8557,1.8851,1.9078,1.9265,1.9345,1.9292,1.9265,1.9345,1.9372,1.9372,1.9372,1.9533,1.9599,1.9399,1.9546,1.9784,2.0019,2.021,2.0561,2.1105,2.141,2.159,2.159,2.1673,2.1686,2.1714,2.1838,2.1642,2.0967,2.0832,2.0953,2.1074,2.1074,2.1074,2.1194,2.1074,2.1074,2.1194,2.1194,2.1427,0.8869,0.9088,0.9364,0.9616,0.9892,1.016,1.0387,1.0404,1.0404,1.0517,1.0623,1.0672,1.0599,1.059,1.0534,1.0355,1.0355,1.0257,0.9933,0.9925,0.9868,0.9657,0.9624,0.9624,0.9624,0.0,0.0,0.0,0.0,0.0,0.0,1.06,1.1082,1.1755,1.1755,1.2242,1.3318,1.3318,1.3511,1.3884,1.3884,1.428,1.4867,1.5057,1.5452,1.5832,1.5832,1.5832,1.5832,1.5832,1.5832,1.5845,1.5965,1.6286,1.6727,1.6834,1.7181,1.7582,1.7582,1.7582,1.7582,1.7582,1.7582,1.7582,1.7582,1.7582,1.7582,1.7582,1.7582,1.7729,1.833,1.849,1.8597,1.8998,1.9239,1.9372,1.9372,1.9372,1.9372,1.9372,1.9372,1.9372,1.9372,1.9623,1.9834,1.978,2.0142,2.0452,2.0676,2.0842,2.1022,2.1446,2.174,2.1922,2.1922,2.2048,2.2104,2.223,2.2355,2.231,2.1939,2.1803,2.168,2.1803,2.1803,2.1803,2.1925,2.1803,2.1803,2.1925,2.1925,2.2148,0.9242,0.9462,0.9689,1.0071,1.0314,1.0461,1.0461,1.0582,1.0688,1.0672,1.068,1.0639,1.0469,1.0436,1.0371,1.0168,1.0006,0.99,0.9868,0.9738,0.9648,0.9632,0.9624,0.9624,0.9723,0.0,0.0,0.0,0.0,0.0,0.0,1.2242,1.2727,1.2823,1.2823,1.3318,1.4388,1.4484,1.4867,1.5832,1.5832,1.5832,1.5737,1.4867,1.4962,1.5832,1.5832,1.5832,1.5832,1.5832,1.5832,1.5858,1.6152,1.6446,1.674,1.7034,1.7328,1.7582,1.7582,1.7582,1.7582,1.7582,1.7582,1.7582,1.7582,1.7582,1.7582,1.7582,1.7609,1.7756,1.8343,1.8504,1.8664,1.9239,1.9372,1.9372,1.9488,1.9488,1.9372,1.9475,1.9488,1.9488,1.9488,1.9747,2.0,2.0419,2.0893,2.1166,2.1222,2.1236,2.1357,2.1399,2.1652,2.1821,2.1821,2.2075,2.2355,2.2606,2.2355,2.248,2.3106,2.3106,2.2981,2.2606,2.2606,2.2856,2.3106,2.2731,2.2856,2.3106,2.3106,2.3106,0.9088,0.9283,0.9535,1.0038,1.0404,1.0639,1.0639,1.0664,1.0655,1.0517,1.0599,1.0639,1.0469,1.0436,1.0331,0.9998,1.003,1.0006,0.9721,0.977,0.9778,0.9648,0.9624,0.992,1.0788,0.0,0.0,0.0,0.0,0.0,1.2339,1.2533,1.3125,1.3908,1.4004,1.4484,1.5452,1.5452,1.5642,0.0,1.5832,1.5832,1.5832,1.5547,1.5642,1.5832,1.5832,1.5832,1.5832,1.5832,1.5832,1.5858,1.6152,1.6446,1.674,1.7034,1.7328,1.7582,1.7582,1.7582,1.7582,1.7582,1.7582,1.7582,1.7582,1.7582,1.7582,1.7582,1.7756,1.8036,1.8397,1.8664,1.8918,1.9611,1.9591,1.9475,2.0053,1.9707,1.9475,1.9707,1.9707,1.9707,1.9707,2.0323,2.0976,2.1296,2.1096,2.1131,2.1854,2.1925,2.2133,2.2624,2.2711,2.2754,2.2754,2.2827,2.2856,2.2981,2.2856,2.2981,2.3106,2.2856,2.2856,2.2981,2.2981,2.2981,2.3106,2.2981,2.2981,2.3106,2.3106,2.3106,0.9129,0.9348,0.9632,1.0257,1.0558,1.0688,1.0688,1.0631,1.0542,1.0452,1.0509,1.0485,1.0225,1.0176,1.0079,0.9811,0.9843,0.9843,0.9657,0.9705,0.9921,1.0314,1.0404,1.0788,1.1853,1.195,0.0,0.0,0.0,1.3511,1.3511,1.3896,1.4472,1.4962,1.5057,1.5261,1.5832,1.5832,1.5832,1.5832,1.5832,1.5832,1.5832,1.5832,1.5832,1.5832,1.5832,1.5832,1.5832,1.5832,1.5832,1.5872,1.6313,1.6567,1.6754,1.7194,1.7448,1.7582,1.7582,1.7582,1.7582,1.7582,1.7582,1.7582,1.7582,1.7687,1.7793,1.7793,1.8129,1.8536,1.8837,1.9138,1.9439,2.0085,1.9924,1.9707,2.0155,2.004,1.9822,2.004,2.004,2.004,2.004,2.0788,2.1491,2.1904,2.1904,2.2112,2.2566,2.261,2.2806,2.3091,2.3106,2.3106,2.3106,2.3106,2.3106,2.3106,2.3106,2.3106,2.3106,2.2981,2.2856,2.3106,2.3106,2.3106,2.3106,2.3106,2.3106,2.3106,2.3106,2.3106,0.921,0.9559,0.9908,1.0501,1.0672,1.0688,1.0688,1.0558,1.0428,1.0396,1.0387,1.0282,0.9949,0.9884,0.9827,0.9657,0.9723,0.992,0.992,1.0019,1.0502,1.1365,1.1463,1.1853,1.2931,1.3017,0.0,0.0,0.0,1.458,1.458,1.5356,1.5832,1.5832,1.5832,1.5832,1.5832,1.5832,1.5832,1.5832,1.5832,1.5832,1.5832,1.5832,1.5832,1.5832,1.5832,1.5832,1.5832,1.5832,1.5832,1.5885,1.6473,1.67,1.678,1.7368,1.7582,1.7582,1.7687,1.7687,1.7687,1.7687,1.7687,1.7687,1.7687,1.7898,1.8135,1.819,1.8517,1.9038,1.9346,1.9654,2.0061,2.0544,2.027,2.004,2.0385,2.0385,2.027,2.0385,2.0385,2.0399,2.0571,2.1128,2.1872,2.2242,2.2696,2.3047,2.3106,2.3106,2.3106,2.3106,2.3106,2.3106,2.3106,2.3106,2.3106,2.3106,2.3106,2.3106,2.3106,2.3106,2.3106,2.3106,2.3106,2.3106,2.3106,2.3106,2.3106,2.3106,2.3106,2.3106,0.921,0.9827,1.0347,1.0444,1.0582,1.0688,1.0688,1.0558,1.0387,1.0233,1.0201,1.0136,0.9925,0.9884,0.9827,0.9657,1.0404,1.0984,1.0984,1.1755,1.2339,1.2436,1.2533,1.2931,1.4004,1.41,0.0,0.0,1.5547,1.5642,1.5642,1.5737,1.5832,1.5832,1.5832,1.5832,1.5832,1.5832,1.5832,1.5832,1.5832,1.5832,1.5832,1.5832,1.5832,1.5832,1.5832,1.5832,1.5832,1.5832,1.5832,1.5885,1.6473,1.67,1.678,1.7368,1.7582,1.7582,1.7911,1.7911,1.8016,1.8213,1.8318,1.8318,1.8318,1.8318,1.8373,1.8758,1.9052,1.936,1.9668,1.9976,2.0329,2.0601,2.0601,2.073,2.0974,2.063,2.0385,2.0601,2.0601,2.0816,2.1453,2.1584,2.1935,2.2476,2.2637,2.2784,2.3076,2.3106,2.3106,2.3106,2.3106,2.3106,2.3106,2.3106,2.3106,2.3106,2.3106,2.3106,2.3106,2.3106,2.3106,2.3106,2.3106,2.3106,2.3106,2.3106,2.3106,2.3106,2.3106,2.3106,0.921,0.9665,1.0054,1.0355,1.0493,1.055,1.055,1.0412,1.0435,1.0758,1.083,1.0532,0.9854,1.0228,1.0591,1.0511,1.1365,1.2047,1.2047,1.2436,1.292,1.3511,1.3607,1.4004,1.5057,1.5153,0.0,0.0,1.5832,1.5832,1.5832,1.5832,1.5832,1.5832,1.5832,1.5832,1.5832,1.5832,1.5832,1.5832,1.5832,1.5927,1.6035,1.5832,1.5832,1.5832,1.5832,1.5832,1.5832,1.5832,1.5925,1.6126,1.6751,1.7022,1.7313,1.7839,1.8003,1.8108,1.8213,1.8227,1.8213,1.8318,1.8422,1.8422,1.8422,1.8654,1.8929,1.907,1.9576,2.0212,2.0229,2.0501,2.0859,2.096,2.096,2.0974,2.1203,2.0974,2.0859,2.0974,2.096,2.1191,2.1642,2.1847,2.2111,2.2564,2.2769,2.2945,2.3091,2.3106,2.3106,2.3106,2.3106,2.3106,2.3106,2.3106,2.3106,2.3106,2.3106,2.3106,2.3106,2.3106,2.3106,2.3106,2.3106,2.3106,2.3106,2.3106,2.3106,2.3106,2.3106,2.3106,0.9357,0.9702,1.0069,1.0272,1.0501,1.0721,1.0771,1.0845,1.1075,1.1721,1.1519,1.1082,1.0502,1.0788,1.1268,1.156,1.2242,1.2823,1.3028,1.3307,1.38,1.458,1.4675,1.4962,1.5737,1.5832,1.5832,0.0,1.5832,1.5832,1.5832,1.5832,1.5832,1.5832,1.5832,1.5832,1.5832,1.5832,1.5927,1.5927,1.5927,1.6116,1.6319,1.6116,1.6021,1.6021,1.5927,1.5927,1.5927,1.6021,1.6197,1.6592,1.699,1.7406,1.7811,1.8206,1.8422,1.8422,1.8527,1.8527,1.8541,1.8632,1.8632,1.8632,1.8632,1.8964,1.9463,1.9535,2.0062,2.075,2.0823,2.1028,2.1203,2.1203,2.1203,2.1203,2.1203,2.1203,2.1203,2.1203,2.1276,2.1408,2.1657,2.2023,2.2374,2.2593,2.2901,2.3106,2.3106,2.3106,2.3106,2.3106,2.3106,2.3106,2.3106,2.3106,2.3106,2.3106,2.3106,2.3106,2.3106,2.3106,2.3106,2.3106,2.3106,2.3106,2.3106,2.3479,2.3479,2.3106,2.3713,2.3961,0.9696,1.035,1.1077,1.0121,1.0822,1.1678,1.1681,1.2273,1.2915,1.2893,1.2013,1.1463,1.2339,1.1853,1.1463,1.2436,1.263,1.3028,1.41,1.5057,1.5642,1.5737,1.5737,1.5737,1.5832,1.5832,1.5832,0.0,1.5832,1.5832,1.5832,1.5832,1.5832,1.5832,1.5832,1.5832,1.5832,1.6035,1.6224,1.6224,1.64,1.6588,1.6588,1.6588,1.6588,1.6588,1.6319,1.6224,1.6224,1.6494,1.677,1.7078,1.7386,1.7694,1.8002,1.831,1.8422,1.8422,1.8764,1.8869,1.8869,1.9168,1.9272,1.9272,1.9272,1.9506,1.9828,2.012,2.0457,2.0794,2.1101,2.1203,2.1203,2.1203,2.1203,2.1203,2.1203,2.1203,2.1203,2.1203,2.1467,2.1672,2.1686,2.2198,2.2608,2.2623,2.2901,2.3106,2.3106,2.3106,2.3106,2.3106,2.3106,2.3106,2.3106,2.3106,2.3106,2.3106,2.3106,2.3106,2.3106,2.3106,2.3106,2.3106,2.3106,2.3106,2.3106,2.4332,2.4332,2.3106,2.5668,2.6172,1.1826,1.2003,1.2285,1.233,1.2788,1.2983,1.2819,1.3063,1.3333,1.3716,1.3482,1.3511,1.4472,1.3307,1.2533,1.3511,1.428,1.4854,1.5248,1.5547,1.5832,1.5832,1.5832,1.5832,1.5832,1.5832,1.5832,0.0,0.0,1.5832,1.5832,1.5832,1.5832,1.5832,1.5832,1.5927,1.6035,1.6305,1.6494,1.6494,1.6588,1.6683,1.6885,1.6683,1.6683,1.6885,1.6791,1.6602,1.6508,1.6798,1.7064,1.7372,1.7895,1.8309,1.8608,1.8916,1.8959,1.8959,1.9063,1.9182,1.9168,1.9272,1.9272,1.9316,1.952,1.9813,2.0135,2.0457,2.0779,2.1057,2.1174,2.1203,2.1203,2.1203,2.1203,2.1262,2.1481,2.135,2.1335,2.1759,2.1759,2.1818,2.2228,2.2476,2.2696,2.2901,2.3032,2.3106,2.3106,2.3106,2.3106,2.3106,2.3106,2.3106,2.3106,2.3106,2.3106,2.3106,2.3106,2.3106,2.3106,2.3106,2.3106,2.3106,2.3976,2.3961,2.3106,2.3604,2.3604,2.3106,2.4085,2.4702,1.324,1.3401,1.3573,1.378,1.4063,1.426,1.4173,1.4401,1.4712,1.5051,1.4846,1.4883,1.575,1.4472,1.3607,1.4675,1.5057,1.5452,1.5737,1.5832,1.5832,1.5832,1.5832,1.5832,1.5832,1.5832,1.5832,0.0,0.0,0.0,1.5832,1.5927,1.6021,1.6116,1.6116,1.6116,1.6305,1.6588,1.6683,1.6777,1.6777,1.6965,1.7059,1.6965,1.7022,1.7232,1.7232,1.7137,1.6852,1.7255,1.7583,1.7981,1.8412,1.8788,1.9078,1.9272,1.9272,1.9272,1.9272,1.9272,1.9272,1.9272,1.9345,1.9477,1.9696,2.0062,2.0442,2.0662,2.0955,2.1203,2.1203,2.1203,2.1203,2.1203,2.1291,2.1467,2.1789,2.1598,2.154,2.2081,2.2081,2.214,2.255,2.271,2.2857,2.3076,2.3106,2.3106,2.3106,2.3106,2.3106,2.3106,2.3106,2.3106,2.3106,2.3106,2.3106,2.3106,2.3106,2.3106,2.3106,2.3208,2.3267,2.3267,2.4735,2.5047,2.4169,2.4922,2.517,2.4922,2.5778,2.6644,0.0,0.0,0.0,1.4255,1.4651,1.5258,1.5531,1.6357,1.6966,1.6644,1.5853,1.5375,1.6075,1.5166,1.4675,1.5642,1.4962,1.4675,1.5642,1.5832,1.5832,1.5832,1.5832,1.5832,1.5832,1.5832,1.5832,0.0,1.5832,1.5832,1.5832,1.6021,1.6305,1.6588,1.6588,1.6588,1.6602,1.6885,1.6994,1.7008,1.7276,1.7355,1.7355,1.7355,1.753,1.7823,1.7823,1.7645,1.7466,1.7756,1.8218,1.8789,1.8803,1.8994,1.9272,1.9272,1.9272,1.9272,1.9272,1.9272,1.9272,1.9272,1.9491,1.9769,1.9769,2.0223,2.072,2.0735,2.0969,2.1203,2.1203,2.1203,2.1218,2.1218,2.1467,2.1789,2.2245,2.2068,2.1818,2.2154,2.2432,2.2623,2.2637,2.2901,2.3106,2.3106,2.3106,2.3106,2.3106,2.3106,2.3106,2.3106,2.3106,2.3106,2.3106,2.3106,2.3106,2.3106,2.312,2.312,2.312,2.3442,2.3618,2.3618,2.5436,2.6232,2.6248,2.85,2.9133,2.8386,3.0907,3.2168,1.6202,0.0,0.0,0.0,0.0,0.0,1.6633,1.6967,1.7232,1.67,1.6539,1.6553,1.6455,1.6211,1.6008,1.6305,1.6021,1.5737,1.6035,1.6305,1.64,1.64,1.6211,1.613,1.613,1.5927,1.5927,0.0,1.613,1.6211,1.64,1.6494,1.6494,1.6588,1.6777,1.6985,1.7213,1.7404,1.7712,1.7945,1.8028,1.8028,1.8028,1.8028,1.8086,1.8174,1.8174,1.8306,1.8425,1.8525,1.8628,1.8818,1.9052,1.9199,1.9272,1.9272,1.9272,1.9272,1.9272,1.9272,1.9272,1.9272,1.9491,1.9813,2.0033,2.0398,2.0764,2.1013,2.1145,2.1203,2.1203,2.1203,2.1276,2.1511,2.1628,2.2083,2.3577,2.3863,2.3654,2.3029,2.2725,2.2696,2.293,2.3047,2.3106,2.3106,2.3106,2.3106,2.3106,2.3106,2.3106,2.3106,2.3106,2.3106,2.3106,2.3106,2.3106,2.3106,2.3325,2.3457,2.3457,2.4772,2.4955,2.3954,2.731,2.8759,2.8034,2.7394,2.7529,2.8386,3.0007,3.0747,0.0,1.7194,1.7135,1.7457,0.0,0.0,1.737,1.7437,1.7497,1.7141,1.7312,1.7386,1.7202,1.6964,1.6784,1.6784,1.6784,1.6647,1.6427,1.6494,1.6588,1.6588,1.6494,1.6414,1.6414,1.6211,1.6211,1.64,1.6414,1.6494,1.6777,1.6777,1.6777,1.6871,1.7188,1.7442,1.7534,1.7858,1.8116,1.8306,1.8306,1.8306,1.8306,1.8306,1.8379,1.8511,1.8511,1.8686,1.8994,1.8994,1.8994,1.9008,1.9199,1.9272,1.9272,1.9272,1.9272,1.9272,1.9272,1.9272,1.9301,1.9433,1.9696,2.0018,2.034,2.0996,2.1729,2.1926,2.2312,2.2636,2.2636,2.2761,2.3032,2.3237,2.3504,2.3819,2.4452,2.5141,2.5424,2.4778,2.4163,2.3733,2.3931,2.3479,2.3106,2.3106,2.3106,2.3106,2.3106,2.3106,2.3106,2.3106,2.3106,2.3106,2.3106,2.3106,2.3414,2.4158,2.4356,2.4776,2.5549,2.6647,2.6842,2.6068,2.913,3.0357,2.9824,2.9182,2.9456,3.0518,3.1146,3.152,0.0,0.0,0.0,1.7691,1.7574,0.0,1.7706,1.7808,1.7852,1.7779,1.7833,1.7867,1.7867,1.754,1.7161,1.719,1.7369,1.7241,1.6767,1.6725,1.6739,1.6781,1.6725,1.6697,1.6725,1.6602,1.6588,1.6683,1.6683,1.6777,1.6979,1.7102,1.7211,1.7384,1.7691,1.7882,1.7925,1.8218,1.8379,1.8408,1.8408,1.8408,1.8408,1.8408,1.8569,1.8847,1.8847,1.9008,1.9272,1.9272,1.9272,1.9272,1.9272,1.9272,1.9272,1.9272,1.9301,1.933,1.9286,1.942,1.9628,1.9879,2.0312,2.0654,2.0952,2.205,2.3199,2.3199,2.3966,2.4727,2.4727,2.5018,2.5457,2.5491,2.6041,2.6219,2.5299,2.6164,2.7263,2.7383,2.6294,2.5317,2.5317,2.4332,2.3479,2.3479,2.3479,2.3479,2.3479,2.3479,2.3479,2.3479,2.3479,2.3479,2.3479,2.3509,2.4268,2.5814,2.602,2.6717,2.8312,2.8818,2.9025,2.8897,3.0498,3.1451,3.1579,3.2401,3.2922,3.3165,3.3292,3.3418,0.0,0.0,0.0,0.0,0.0,0.0,1.7472,1.7838,1.8057,1.753,1.7581,1.7814,1.7814,1.777,1.7703,1.8061,1.7887,1.7601,1.7255,1.7433,1.763,1.7989,1.7376,1.6985,1.7227,1.6824,1.6683,1.6885,1.7059,1.7232,1.7246,1.7494,1.7625,1.7721,1.8043,1.8335,1.8599,1.8657,1.8833,1.9081,1.9081,1.9081,1.9081,1.9081,1.9125,1.9184,1.9184,1.9213,1.9272,1.9272,1.9272,1.9272,1.9272,1.9272,1.9272,1.9272,1.9447,1.9623,1.936,2.0227,2.1475,2.127,2.2241,2.3536,2.362,2.3998,2.4394,2.4394,2.4505,2.4727,2.4727,2.5018,2.5508,2.5686,2.6114,2.6762,2.7771,2.8271,2.8801,2.9922,2.8224,2.6658,2.6658,2.6399,2.6277,2.6277,2.6277,2.6277,2.6277,2.6277,2.6277,2.6277,2.6277,2.6277,2.6277,2.6544,2.6867,2.7182,2.7882,2.8384,2.8707,3.0099,3.0295,2.9145,3.0513,3.1835,3.3019,3.3214,3.2689,3.1707,3.2892,3.3418,0.0,0.0,0.0,1.7808,0.0,0.0,0.0,1.7691,1.7808,1.7808,1.7808,1.7911,1.8247,1.8028,1.7925,1.8247,1.816,1.8018,1.8079,1.7931,1.7882,1.8043,1.7683,1.7457,1.7616,1.7246,1.6965,1.7153,1.7246,1.7399,1.756,1.7721,1.7882,1.8057,1.8379,1.8628,1.8789,1.895,1.9111,1.9272,1.9272,1.9272,1.9272,1.9272,1.9272,1.9272,1.9272,1.9272,1.9272,1.9272,1.9272,1.9272,1.9272,1.9583,2.0101,2.0373,2.0841,2.1506,2.1522,2.2168,2.2888,2.2872,2.355,2.4304,2.4493,2.5029,2.5735,2.6282,2.6499,2.6554,2.6756,2.7105,2.7639,2.7911,2.8333,2.87,2.8883,2.9412,2.9903,2.9903,2.9431,2.8701,2.8086,2.7366,2.7021,2.7021,2.7021,2.6779,2.6172,2.6658,2.652,2.5178,2.6444,2.7051,2.6438,2.739,2.8303,2.9244,2.9618,3.0193,3.1029,3.187,3.1982,3.1341,3.1982,3.2638,3.3418,3.3633,3.3231,3.2365,3.3038,3.3418,0.0,0.0,0.0,0.0,0.0,1.7969,0.0,0.0,0.0,1.8028,1.7911,1.7896,1.8496,1.8174,1.7925,1.8247,1.8306,1.8394,1.8657,1.8291,0.0,1.8086,1.7984,1.7925,1.7999,1.7706,1.7486,1.7428,1.7428,1.753,1.7808,1.7882,1.8057,1.8394,1.8716,1.8877,1.8877,1.914,1.9272,1.9272,1.9272,1.9272,1.9272,1.9272,1.9272,1.9272,1.9272,1.9272,1.9272,1.9272,1.9509,1.9658,1.9405,2.0013,2.102,2.1394,2.2303,2.3393,2.3651,2.4052,2.4314,2.4541,2.4878,2.5092,2.53,2.6063,2.7079,2.8067,2.8301,2.8398,2.8809,2.9238,2.9668,3.0098,3.0547,3.0645,2.953,3.0157,3.0528,2.953,3.0157,3.0528,2.9412,2.8462,2.7744,2.7744,2.7744,2.7383,2.6399,2.7194,2.7107,2.4904,2.6957,2.8043,2.7052,2.8265,2.9762,3.122,3.1313,3.2024,3.3272,3.3418,3.3418,3.3418,3.3496,3.3535,3.3555,3.3984,3.3965,3.3555,3.3633,3.3672,0.0,0.0,0.0,0.0,1.8496,0.0,0.0,0.0,1.8043,1.7545,0.0,1.7501,1.7852,0.0,0.0,1.8247,1.8306,1.8321,1.835,1.854,1.8789,1.9081,1.8599,1.8364,1.8657,1.8379,1.8072,1.7779,1.7765,1.7779,1.7808,1.8086,1.8394,1.873,1.9052,1.9213,1.9213,1.9257,1.9272,1.9272,1.9272,1.9272,1.9272,1.9272,1.9272,1.9272,1.9272,1.9272,1.9272,1.9272,2.0045,2.1097,1.9792,2.015,2.1442,2.149,2.2633,2.4115,2.384,2.4827,2.6118,2.5916,2.6705,2.7883,2.7833,2.796,2.8067,2.8301,2.8301,2.8398,2.8809,2.9238,2.9668,3.0098,3.0547,3.0898,3.0762,3.0762,3.0879,3.0645,3.0762,3.0879,3.0645,3.0528,3.0411,3.0411,3.0411,3.0411,3.0274,3.0719,3.083,3.0572,3.1213,3.1584,3.1462,3.1969,3.2363,3.2525,3.2894,3.3233,3.3418,3.3418,3.3418,3.3418,3.3809,3.4004,3.4004,3.4414,3.4414,3.4004,3.4375,3.4551,0.0,0.0,0.0,0.0,0.0,0.0,1.8438,0.0,1.8277,0.0,0.0,0.0,0.0,0.0,0.0,0.0,1.8584,1.8584,1.8584,1.8701,1.8847,1.8979,0.0,0.0,1.8511,1.8379,1.8247,1.8101,1.7925,1.7984,1.8364,1.8511,1.8818,1.933,1.9491,1.9564,1.9564,1.9374,1.9272,1.9272,1.9272,1.9272,1.9272,1.9272,1.9272,1.939,2.018,2.057,2.069,2.1522,2.2314,2.2745,2.2192,2.2628,2.3826,2.4053,2.4986,2.625,2.643,2.6905,2.7492,2.7428,2.7806,2.8301,2.8301,2.8301,2.8301,2.8301,2.8476,2.875,2.918,2.9609,3.0039,3.0488,3.0742,3.0898,3.0898,3.1074,3.125,3.125,3.125,3.125,3.125,3.1055,3.0898,3.0898,3.0898,3.0742,3.0244,3.0911,3.1003,2.9751,3.1389,3.2273,3.1513,3.2517,3.3164,3.3164,3.332,3.3418,3.3418,3.3672,3.3809,3.3809,3.4219,3.4434,3.4434,3.4883,3.5019,3.4844,3.4746,3.4707,1.9257,0.0,0.0,0.0,0.0,0.0,0.0,0.0,0.0,0.0,0.0,0.0,0.0,0.0,0.0,0.0,0.0,1.8789,1.8789,1.8862,1.8891,0.0,0.0,0.0,0.0,1.8569,1.854,1.8438,1.8218,1.8291,1.876,1.8877,1.914,1.9608,1.9798,1.9813,1.9638,1.9564,1.9447,1.9272,1.936,1.9403,1.9403,1.9403,1.9462,1.9655,2.1028,2.165,2.1771,2.3212,2.4017,2.4421,2.4421,2.5126,2.6218,2.6069,2.6748,2.7891,2.8184,2.8301,2.8301,2.8301,2.8301,2.8301,2.8301,2.8301,2.832,2.8437,2.8691,2.9043,2.959,2.9961,3.0312,3.0781,3.0976,3.1035,3.0918,3.1309,3.1621,3.1387,3.1445,3.1484,3.1367,3.1191,3.1055,3.1055,3.1172,3.0972,3.04,3.1175,3.1226,2.9636,3.1558,3.2575,3.1659,3.2719,3.3418,3.3418,3.3535,3.3594,3.3594,3.4023,3.4238,3.4238,3.4668,3.4883,3.4883,3.5351,3.5566,3.5566,3.5215,3.5059,0.0,0.0,0.0,1.9272,0.0,0.0,0.0,0.0,1.8686,0.0,0.0,0.0,0.0,0.0,0.0,0.0,0.0,0.0,0.0,1.9067,1.914,1.8833,0.0,0.0,0.0,1.9242,1.9111,1.8803,1.876,1.8774,1.8789,1.9096,1.9272,1.9286,1.9901,1.9916,1.9301,1.9901,1.9886,1.9286,1.9594,1.974,1.974,1.974,1.9916,2.0208,2.1479,2.2017,2.2124,2.3313,2.4598,2.5894,2.5894,2.6899,2.799,2.6592,2.6937,2.8281,2.8281,2.8301,2.8301,2.8301,2.8301,2.8301,2.8301,2.8301,2.8379,2.8789,2.8906,2.9121,2.9961,3.0176,3.0312,3.0781,3.1211,3.1387,3.0976,3.1543,3.1894,3.1074,3.123,3.1387,3.0976,3.123,3.1504,3.1504,3.1855,3.2129,3.2148,3.25,3.2754,3.2649,3.3144,3.3398,3.3272,3.3418,3.3418,3.3418,3.3828,3.4043,3.4043,3.4453,3.4668,3.4668,3.5137,3.5371,3.5371,3.5801,3.5996,3.5996,3.5996,3.5976,0.0,0.0,1.9272,1.9272,0.0,0.0,0.0,0.0,0.0,0.0,0.0,0.0,0.0,0.0,0.0,0.0,0.0,0.0,0.0,1.9139,1.985,2.0411,1.9836,1.9272,0.0,0.0,1.8906,1.8803,1.8584,1.8569,1.8774,1.9096,1.9477,1.9901,2.012,2.0237,2.0237,2.0033,1.9916,1.9916,1.9813,2.0285,2.1232,2.1232,2.1707,2.2692,2.4101,2.4632,2.4757,2.6217,2.7081,2.7515,2.7515,2.7825,2.8281,2.768,2.7844,2.8301,2.8301,2.8301,2.8301,2.8301,2.8301,2.8301,2.8301,2.8301,2.8379,2.8809,2.9121,2.9473,3.0039,3.043,3.0703,3.0859,3.0996,3.1133,3.1269,3.1758,3.2168,3.2148,3.2266,3.2324,3.2168,3.2266,3.2168,3.1601,3.1894,3.2266,3.2559,3.2715,3.291,3.3184,3.334,3.3418,3.3418,3.3691,3.3848,3.3848,3.4258,3.4492,3.4492,3.4922,3.5156,3.5156,3.5586,3.5801,3.5801,3.5957,3.6016,3.6016,3.6016,3.6016,1.876,1.9023,0.0,1.9272,1.9272,0.0,1.9272,0.0,0.0,0.0,0.0,0.0,0.0,0.0,0.0,0.0,0.0,0.0,0.0,1.9048,1.9921,2.0898,2.0342,1.9834,1.9713,1.9213,1.8862,1.8628,1.8628,1.8686,1.8789,0.0,1.9638,2.0062,2.0296,2.0663,2.1194,2.0589,2.0689,2.1511,2.0986,2.1479,2.2856,2.2856,2.3245,2.4149,2.5576,2.6133,2.6258,2.7737,2.8301,2.8301,2.8301,2.8301,2.8301,2.8301,2.8301,2.8301,2.8301,2.8301,2.8301,2.8301,2.8301,2.832,2.8476,2.8516,2.8672,2.9414,2.9707,2.9922,3.0508,3.0781,3.0898,3.0898,3.1133,3.1387,3.1484,3.209,3.2559,3.2383,3.2578,3.2695,3.2402,3.2598,3.2617,3.2051,3.2344,3.2715,3.2988,3.3144,3.3301,3.3418,3.3691,3.3867,3.3867,3.4141,3.4297,3.4297,3.4707,3.4941,3.4941,3.5371,3.5605,3.5605,3.5879,3.6016,3.6016,3.6016,3.6016,3.6016,3.6016,3.6016]},{"header":{"parameterUnit":"m.s-1","parameterCategory":1,"la1":30.6,"la2":29.2853,"lo1":-89.7004,"lo2":-87.6739,"dy":0.0162,"dx":0.0183,"nx":112,"ny":82,"refTime":"2023-05-31T06:00:00:Z","depth":0,"parameterNumber":3,"parameterNumberName":"V-component_of_WINDS"},"data":[0.0,0.0,0.0,0.0,0.0,0.0,0.0,0.0,0.0,0.0,0.0,0.0,0.0,0.0,0.0,0.0,0.0,0.0,0.0,0.0,0.0,0.0,0.0,0.0,0.0,0.0,0.0,0.0,0.0,0.0,0.0,0.0,0.0,0.0,0.0,0.0,0.0,0.0,0.0,0.0,0.0,0.0,0.0,0.0,0.0,0.0,0.0,0.0,0.0,0.0,0.0,0.0,0.0,0.0,0.0,0.0,0.0,0.0,0.0,0.0,0.0,0.0,0.0,0.0,0.0,0.0,0.0,0.0,0.0,0.0,0.0,0.0,0.0,0.0,0.0,0.0,0.0,0.0,0.0,0.0,0.0,0.0,0.0,0.0,0.0,0.0,0.0,0.0,0.0,0.0,4.1854,4.2508,4.5893,4.8086,4.8086,4.7855,4.5534,4.0397,0.0,0.0,0.0,0.0,0.0,0.0,0.0,0.0,0.0,0.0,0.0,0.0,0.0,0.0,0.0,0.0,0.0,0.0,0.0,0.0,0.0,0.0,0.0,0.0,0.0,0.0,0.0,0.0,0.0,0.0,0.0,0.0,0.0,0.0,0.0,0.0,0.0,0.0,0.0,0.0,0.0,0.0,0.0,0.0,0.0,0.0,0.0,0.0,0.0,0.0,0.0,0.0,0.0,0.0,0.0,0.0,0.0,0.0,0.0,0.0,0.0,0.0,0.0,0.0,0.0,0.0,0.0,0.0,0.0,0.0,0.0,0.0,0.0,0.0,0.0,0.0,0.0,0.0,0.0,0.0,0.0,0.0,0.0,0.0,0.0,0.0,0.0,0.0,0.0,0.0,0.0,0.0,0.0,0.0,0.0,0.0,0.0,0.0,0.0,0.0,0.0,0.0,0.0,0.0,4.2085,4.574,4.7317,4.8086,4.8086,4.6817,4.463,4.1418,0.0,0.0,0.0,0.0,0.0,0.0,0.0,0.0,0.0,0.0,0.0,0.0,0.0,0.0,0.0,0.0,0.0,0.0,0.0,0.0,0.0,0.0,0.0,0.0,0.0,0.0,0.0,0.0,0.0,0.0,0.0,0.0,0.0,0.0,0.0,0.0,0.0,0.0,0.0,0.0,0.0,0.0,0.0,0.0,0.0,0.0,0.0,0.0,0.0,0.0,0.0,0.0,0.0,0.0,0.0,0.0,0.0,0.0,0.0,0.0,0.0,0.0,0.0,0.0,0.0,0.0,0.0,0.0,0.0,0.0,0.0,0.0,0.0,0.0,0.0,0.0,0.0,0.0,0.0,0.0,0.0,0.0,0.0,0.0,0.0,0.0,0.0,0.0,0.0,0.0,0.0,0.0,0.0,0.0,0.0,0.0,0.0,0.0,0.0,0.0,0.0,0.0,0.0,4.09,4.2017,4.5847,4.6562,4.6814,4.6814,4.6065,4.4226,4.1016,4.0879,0.0,0.0,0.0,0.0,0.0,0.0,0.0,0.0,0.0,0.0,0.0,0.0,0.0,0.0,0.0,0.0,0.0,0.0,0.0,0.0,0.0,0.0,0.0,0.0,0.0,0.0,0.0,0.0,0.0,0.0,0.0,0.0,0.0,0.0,0.0,0.0,0.0,0.0,0.0,0.0,0.0,0.0,0.0,0.0,0.0,0.0,0.0,0.0,0.0,0.0,0.0,0.0,0.0,0.0,0.0,0.0,0.0,0.0,0.0,0.0,0.0,0.0,0.0,0.0,0.0,0.0,0.0,0.0,0.0,0.0,0.0,0.0,0.0,0.0,0.0,0.0,0.0,0.0,0.0,0.0,0.0,0.0,0.0,0.0,0.0,0.0,0.0,0.0,0.0,0.0,0.0,0.0,0.0,0.0,0.0,0.0,0.0,0.0,0.0,0.0,0.0,0.0,4.1932,4.2564,4.541,4.5703,4.5709,4.5709,4.5291,4.3667,4.0513,4.0076,0.0,0.0,0.0,0.0,0.0,0.0,0.0,0.0,0.0,0.0,0.0,0.0,0.0,0.0,0.0,0.0,0.0,0.0,0.0,0.0,0.0,0.0,0.0,0.0,0.0,0.0,0.0,0.0,0.0,0.0,0.0,0.0,0.0,0.0,0.0,0.0,0.0,0.0,0.0,0.0,0.0,0.0,0.0,0.0,0.0,0.0,0.0,0.0,0.0,0.0,0.0,0.0,0.0,0.0,0.0,0.0,0.0,0.0,0.0,0.0,0.0,0.0,0.0,0.0,0.0,0.0,0.0,0.0,0.0,0.0,0.0,0.0,0.0,0.0,0.0,0.0,0.0,0.0,0.0,0.0,0.0,0.0,0.0,0.0,0.0,0.0,0.0,0.0,0.0,0.0,0.0,0.0,0.0,0.0,0.0,0.0,0.0,0.0,0.0,0.0,0.0,0.0,4.2748,4.4546,4.5603,4.568,4.568,4.568,4.4222,4.2495,4.0684,3.9061,0.0,0.0,0.0,0.0,0.0,0.0,0.0,0.0,0.0,0.0,0.0,0.0,0.0,0.0,0.0,0.0,0.0,0.0,0.0,0.0,0.0,0.0,0.0,0.0,0.0,0.0,0.0,0.0,0.0,0.0,0.0,0.0,0.0,0.0,0.0,0.0,0.0,0.0,0.0,0.0,0.0,0.0,0.0,0.0,0.0,0.0,0.0,0.0,0.0,0.0,0.0,0.0,0.0,0.0,0.0,0.0,0.0,0.0,0.0,0.0,0.0,0.0,0.0,0.0,0.0,0.0,0.0,0.0,0.0,0.0,0.0,0.0,0.0,0.0,0.0,0.0,0.0,0.0,0.0,0.0,0.0,0.0,0.0,0.0,0.0,0.0,0.0,0.0,0.0,0.0,0.0,0.0,0.0,0.0,0.0,0.0,0.0,0.0,0.0,0.0,0.0,0.0,4.1517,4.3023,0.0,4.5781,4.5765,4.5765,4.4623,4.2957,4.0737,0.0,0.0,0.0,0.0,0.0,0.0,0.0,0.0,0.0,0.0,0.0,0.0,0.0,0.0,0.0,0.0,0.0,0.0,0.0,0.0,0.0,0.0,0.0,0.0,0.0,0.0,0.0,0.0,0.0,0.0,0.0,0.0,0.0,0.0,0.0,0.0,0.0,0.0,0.0,0.0,0.0,0.0,0.0,0.0,0.0,0.0,0.0,0.0,0.0,0.0,0.0,0.0,0.0,0.0,0.0,0.0,0.0,0.0,0.0,0.0,0.0,0.0,0.0,0.0,0.0,0.0,0.0,0.0,0.0,0.0,0.0,0.0,0.0,0.0,0.0,0.0,0.0,0.0,0.0,0.0,0.0,0.0,0.0,0.0,0.0,0.0,0.0,0.0,0.0,0.0,0.0,0.0,0.0,0.0,0.0,0.0,0.0,0.0,0.0,0.0,0.0,0.0,4.0359,4.121,4.2615,0.0,4.5786,4.581,4.581,4.4245,4.2502,4.0728,0.0,0.0,0.0,0.0,0.0,0.0,0.0,0.0,0.0,0.0,0.0,0.0,0.0,0.0,0.0,0.0,0.0,0.0,0.0,0.0,0.0,0.0,0.0,0.0,0.0,0.0,0.0,0.0,0.0,0.0,0.0,0.0,0.0,0.0,0.0,0.0,0.0,0.0,0.0,0.0,0.0,0.0,0.0,0.0,0.0,0.0,0.0,0.0,0.0,0.0,0.0,0.0,0.0,0.0,0.0,0.0,0.0,0.0,0.0,0.0,0.0,0.0,0.0,0.0,0.0,0.0,0.0,0.0,0.0,0.0,0.0,0.0,0.0,0.0,0.0,0.0,0.0,0.0,0.0,0.0,0.0,0.0,0.0,0.0,0.0,0.0,0.0,0.0,0.0,0.0,0.0,0.0,0.0,0.0,0.0,0.0,0.0,0.0,0.0,0.0,0.0,0.0,4.0578,4.2241,4.3943,4.5606,4.58,4.58,4.58,4.2679,4.072,0.0,0.0,0.0,0.0,0.0,0.0,0.0,0.0,0.0,0.0,0.0,0.0,0.0,0.0,0.0,0.0,0.0,0.0,0.0,0.0,0.0,0.0,0.0,0.0,0.0,0.0,0.0,0.0,0.0,0.0,0.0,0.0,0.0,0.0,0.0,0.0,0.0,0.0,0.0,0.0,0.0,0.0,0.0,0.0,0.0,0.0,0.0,0.0,0.0,0.0,0.0,0.0,0.0,0.0,0.0,0.0,0.0,0.0,0.0,0.0,0.0,0.0,0.0,0.0,0.0,0.0,0.0,0.0,0.0,0.0,0.0,0.0,0.0,0.0,0.0,0.0,0.0,0.0,0.0,0.0,0.0,0.0,0.0,0.0,0.0,0.0,0.0,0.0,0.0,0.0,0.0,0.0,0.0,0.0,0.0,0.0,0.0,0.0,0.0,0.0,0.0,0.0,0.0,3.9661,4.1351,4.3053,4.4755,4.5452,4.58,4.58,4.4302,4.2613,4.0797,0.0,0.0,0.0,0.0,0.0,0.0,0.0,0.0,0.0,0.0,0.0,0.0,0.0,0.0,0.0,0.0,0.0,0.0,0.0,0.0,0.0,0.0,0.0,0.0,0.0,0.0,0.0,0.0,0.0,0.0,0.0,0.0,0.0,0.0,0.0,0.0,0.0,0.0,0.0,0.0,0.0,0.0,0.0,0.0,0.0,0.0,0.0,0.0,0.0,0.0,0.0,0.0,0.0,0.0,0.0,0.0,0.0,0.0,0.0,0.0,0.0,0.0,0.0,0.0,0.0,0.0,0.0,0.0,0.0,0.0,0.0,0.0,0.0,0.0,0.0,0.0,0.0,0.0,0.0,0.0,0.0,0.0,0.0,0.0,0.0,0.0,0.0,0.0,0.0,0.0,0.0,0.0,0.0,0.0,0.0,0.0,0.0,0.0,0.0,0.0,0.0,0.0,3.9313,4.0965,4.2667,4.4407,4.5026,4.5452,4.5761,4.4703,4.3065,4.0849,0.0,0.0,0.0,0.0,0.0,0.0,0.0,0.0,0.0,0.0,0.0,0.0,0.0,0.0,0.0,0.0,0.0,0.0,0.0,0.0,0.0,0.0,0.0,0.0,0.0,0.0,0.0,0.0,0.0,0.0,0.0,0.0,0.0,0.0,0.0,0.0,0.0,0.0,0.0,0.0,0.0,0.0,0.0,0.0,0.0,0.0,0.0,0.0,0.0,0.0,0.0,0.0,0.0,0.0,0.0,0.0,0.0,0.0,0.0,0.0,0.0,0.0,0.0,0.0,0.0,0.0,0.0,0.0,0.0,0.0,0.0,0.0,0.0,0.0,0.0,0.0,0.0,0.0,0.0,0.0,0.0,0.0,0.0,0.0,0.0,0.0,0.0,0.0,0.0,0.0,0.0,0.0,0.0,0.0,0.0,0.0,0.0,0.0,0.0,0.0,0.0,0.0,3.9286,4.0938,4.2628,4.4291,4.4562,4.4949,4.5722,4.4407,4.2769,4.0926,0.0,0.0,0.0,0.0,0.0,0.0,0.0,0.0,0.0,0.0,0.0,0.0,0.0,0.0,0.0,0.0,0.0,0.0,0.0,0.0,0.0,0.0,0.0,0.0,0.0,0.0,0.0,0.0,0.0,0.0,0.0,0.0,0.0,0.0,0.0,0.0,0.0,0.0,0.0,0.0,0.0,0.0,0.0,0.0,0.0,0.0,0.0,0.0,0.0,0.0,0.0,0.0,0.0,0.0,0.0,0.0,0.0,0.0,0.0,0.0,4.1232,0.0,0.0,0.0,0.0,0.0,0.0,0.0,0.0,0.0,0.0,0.0,0.0,0.0,0.0,0.0,0.0,0.0,0.0,0.0,0.0,0.0,0.0,0.0,0.0,0.0,0.0,0.0,0.0,0.0,0.0,0.0,0.0,0.0,0.0,0.0,0.0,0.0,0.0,0.0,0.0,0.0,3.8549,4.056,4.2396,4.3479,4.4175,4.4949,4.5722,4.5452,4.4253,4.188,4.1403,0.0,0.0,0.0,0.0,0.0,0.0,0.0,0.0,0.0,0.0,0.0,0.0,0.0,0.0,0.0,0.0,0.0,0.0,0.0,0.0,0.0,0.0,0.0,0.0,0.0,0.0,0.0,0.0,0.0,0.0,0.0,0.0,0.0,0.0,0.0,0.0,0.0,0.0,0.0,0.0,0.0,0.0,0.0,0.0,0.0,0.0,0.0,0.0,0.0,0.0,0.0,0.0,0.0,0.0,0.0,0.0,0.0,0.0,0.0,0.0,4.2286,0.0,0.0,0.0,0.0,0.0,0.0,0.0,0.0,0.0,0.0,0.0,0.0,0.0,0.0,0.0,0.0,0.0,0.0,0.0,0.0,0.0,0.0,0.0,0.0,0.0,0.0,0.0,0.0,0.0,0.0,0.0,0.0,0.0,0.0,0.0,0.0,0.0,0.0,0.0,0.0,3.882,4.0382,4.1738,4.2589,4.3479,4.433,4.5142,4.5568,4.4717,4.2164,4.1996,0.0,0.0,0.0,0.0,0.0,0.0,0.0,0.0,0.0,0.0,0.0,0.0,0.0,0.0,0.0,0.0,0.0,0.0,0.0,0.0,0.0,0.0,0.0,0.0,0.0,0.0,0.0,0.0,0.0,0.0,0.0,0.0,0.0,0.0,0.0,0.0,0.0,0.0,0.0,0.0,0.0,0.0,0.0,0.0,0.0,0.0,0.0,0.0,0.0,0.0,0.0,0.0,0.0,4.6255,4.6714,4.6738,4.6775,4.6716,4.6482,4.5111,4.428,4.3849,0.0,0.0,0.0,0.0,0.0,0.0,0.0,0.0,0.0,0.0,0.0,0.0,0.0,0.0,0.0,0.0,0.0,0.0,0.0,0.0,0.0,0.0,0.0,0.0,0.0,4.1172,4.1169,0.0,0.0,0.0,0.0,0.0,0.0,0.0,0.0,0.0,0.0,0.0,0.0,3.9448,4.0266,4.1119,4.1893,4.2628,4.344,4.4291,4.4987,4.4407,4.2125,4.2009,4.1235,0.0,0.0,0.0,0.0,0.0,0.0,0.0,0.0,0.0,0.0,0.0,0.0,0.0,0.0,0.0,0.0,0.0,0.0,0.0,0.0,0.0,0.0,0.0,0.0,0.0,0.0,0.0,0.0,0.0,0.0,0.0,0.0,3.7039,3.733,0.0,0.0,0.0,0.0,0.0,0.0,0.0,0.0,0.0,0.0,0.0,0.0,0.0,4.4481,4.5138,4.6335,4.731,4.8069,4.9073,4.9579,4.9567,4.9571,4.9142,4.8439,4.8205,0.0,4.4777,4.3879,0.0,0.0,0.0,0.0,0.0,0.0,0.0,0.0,0.0,0.0,0.0,0.0,0.0,0.0,0.0,0.0,0.0,0.0,0.0,0.0,0.0,0.0,4.0974,4.1167,4.1167,4.1114,0.0,4.1104,4.0855,4.0025,0.0,0.0,0.0,0.0,0.0,0.0,0.0,0.0,3.9661,4.0315,4.1119,4.1893,4.2086,4.2512,4.3401,4.3556,4.3169,4.2086,4.2009,4.1235,3.9584,4.0037,0.0,0.0,0.0,0.0,0.0,0.0,0.0,0.0,0.0,0.0,0.0,0.0,0.0,0.0,0.0,0.0,0.0,0.0,0.0,0.0,0.0,0.0,0.0,0.0,0.0,0.0,0.0,0.0,0.0,3.7662,3.8536,3.8568,3.8888,3.8751,0.0,0.0,0.0,0.0,0.0,0.0,0.0,0.0,0.0,4.4731,4.5951,4.6992,4.7857,4.9317,5.0281,5.0734,5.17,5.2221,5.228,5.1769,5.1336,5.0945,5.0477,4.9345,4.7744,4.5909,4.4669,4.3781,0.0,0.0,0.0,0.0,4.2471,4.2432,4.2299,4.1927,0.0,0.0,0.0,0.0,0.0,0.0,0.0,0.0,0.0,0.0,0.0,0.0,0.0,4.1171,4.1171,4.1166,4.1114,4.1108,4.098,0.0,4.0408,4.0104,3.921,0.0,0.0,0.0,0.0,3.9741,4.0257,4.061,4.0926,4.1274,4.1738,4.2164,4.255,4.3015,4.2937,4.2048,4.2009,4.1467,4.0268,4.0539,4.0405,0.0,0.0,0.0,0.0,0.0,0.0,0.0,0.0,0.0,0.0,0.0,0.0,0.0,0.0,0.0,0.0,0.0,0.0,0.0,0.0,0.0,0.0,0.0,0.0,0.0,0.0,0.0,0.0,3.8539,3.9702,3.9252,4.0465,4.0701,0.0,0.0,0.0,0.0,0.0,0.0,4.4822,4.5991,4.7006,4.7868,4.8754,4.9486,5.0177,5.1734,5.2512,5.2407,5.3338,5.3871,5.3963,5.3331,5.2897,5.2663,5.1999,5.1102,4.993,4.7588,4.6114,4.5229,4.4135,4.3711,4.3704,4.3615,4.3582,4.3559,4.3441,4.2819,4.211,4.2293,0.0,4.1091,4.0897,0.0,0.0,0.0,0.0,4.1104,4.1167,4.1168,4.1167,4.1172,4.1171,4.1169,4.1121,4.1114,4.1097,0.0,4.0929,4.0674,4.0053,0.0,0.0,0.0,0.0,4.0358,4.1052,4.1105,4.1119,4.1119,4.1467,4.1699,4.1699,4.228,4.2396,4.1738,4.1699,4.1429,4.081,4.0746,4.0598,4.0317,0.0,0.0,0.0,0.0,0.0,0.0,0.0,0.0,0.0,0.0,0.0,0.0,0.0,0.0,0.0,0.0,0.0,0.0,0.0,0.0,0.0,0.0,0.0,0.0,0.0,0.0,0.0,0.0,0.0,3.8614,4.1217,0.0,0.0,0.0,0.0,4.3787,4.5553,4.6663,4.6754,4.8372,4.9717,5.0563,5.145,5.1913,5.1969,5.294,5.3092,5.2425,5.3351,5.3858,5.399,5.3951,5.3483,5.2702,5.2663,5.1687,4.9969,4.8252,4.7002,4.6069,4.4351,4.3702,4.3672,4.3629,4.3548,4.3506,4.3423,4.2787,4.2125,4.2976,4.2703,4.1908,4.1131,4.0929,0.0,0.0,4.0994,4.1011,4.1101,4.1042,4.1028,4.1169,4.1166,4.1119,4.1171,4.1125,4.1097,0.0,4.0929,4.0907,4.083,0.0,4.0742,4.0811,4.1424,4.1904,4.2004,4.1966,4.1932,4.1932,4.1274,4.0848,4.0848,4.0887,4.0887,4.0848,4.0848,4.0848,4.081,4.081,4.064,4.0317,4.0043,0.0,0.0,0.0,0.0,0.0,0.0,0.0,0.0,0.0,0.0,0.0,0.0,0.0,0.0,0.0,0.0,0.0,0.0,0.0,0.0,0.0,0.0,0.0,0.0,0.0,0.0,0.0,0.0,4.3226,4.5719,0.0,4.5384,4.59,4.6619,4.7218,4.9067,5.0163,5.0182,5.178,5.2858,5.3186,5.3995,5.4688,5.5265,5.5576,5.5685,5.5605,5.4863,5.4615,5.481,5.3678,5.2975,5.2663,5.2117,5.1492,5.0867,4.9696,4.8379,4.7026,4.6328,4.5731,4.5234,4.5162,4.5117,4.5015,4.4424,4.3645,4.2787,4.1969,4.1513,4.1257,4.0985,4.0967,4.1046,4.1046,4.1104,4.1121,4.1167,4.1164,4.1123,4.1171,4.1171,4.1169,4.1172,4.1171,4.1281,4.1757,4.1779,4.1716,4.1694,4.1645,4.1613,4.1618,4.1841,4.2215,4.2807,4.2847,4.286,4.286,4.2086,4.1583,4.1583,4.1081,4.081,4.081,4.081,4.0759,4.0746,4.0733,4.0598,4.0227,4.0156,3.9903,0.0,0.0,0.0,0.0,0.0,0.0,0.0,0.0,0.0,0.0,0.0,0.0,0.0,0.0,0.0,0.0,0.0,0.0,0.0,0.0,0.0,0.0,0.0,0.0,0.0,4.2322,4.4587,4.5532,4.8389,4.9656,4.8166,4.8646,4.9346,4.9984,5.1798,5.282,5.282,5.4147,5.4895,5.4895,5.5434,5.5857,5.6126,5.6434,5.6425,5.6097,5.4997,5.4587,5.481,5.3366,5.2702,5.2663,5.2078,5.1687,5.1375,5.0793,4.9678,4.8281,4.7688,4.7087,4.6566,4.6183,4.6029,4.5849,4.4665,4.3846,4.3098,4.135,4.0854,4.0917,4.0943,4.1006,4.1111,4.1121,4.1169,4.1211,4.1211,4.1211,4.1211,4.1211,4.1211,4.1289,4.1562,4.1366,4.1476,4.2498,4.2421,4.2174,4.2121,4.2343,4.2377,4.206,4.2512,4.3092,4.3672,4.375,4.375,4.375,4.2976,4.2318,4.2048,4.1506,4.1081,4.081,4.0759,4.0746,4.072,4.0668,4.0545,4.0317,4.0138,3.9688,3.8964,0.0,0.0,0.0,0.0,0.0,0.0,0.0,0.0,0.0,0.0,0.0,0.0,0.0,0.0,0.0,0.0,0.0,0.0,0.0,0.0,0.0,0.0,0.0,3.9933,4.3611,4.5973,4.5376,4.8905,5.0822,4.9357,5.0696,5.1721,5.199,5.3626,5.4549,5.4549,5.528,5.5742,5.5703,5.5742,5.5357,5.4587,5.5318,5.5034,5.3689,5.3598,5.3692,5.3912,5.3053,5.2663,5.2663,5.2667,5.2195,5.1414,5.1389,5.0856,4.988,4.8201,4.7578,4.7461,4.6518,4.6112,4.5804,4.3928,4.3285,4.2976,4.1351,4.0854,4.0926,4.0967,4.1033,4.1116,4.1171,4.1211,4.1211,4.1211,4.1211,4.125,4.125,4.125,4.1484,4.2226,4.175,4.164,4.3188,4.2818,4.2245,4.216,4.2819,4.3053,4.2202,4.3518,0.0,4.4639,4.4639,4.4639,4.4639,4.3866,4.3015,4.2164,4.2048,4.1661,4.0887,4.0733,4.072,4.072,4.064,4.0559,4.0592,4.0081,3.9194,3.7958,0.0,0.0,0.0,0.0,0.0,0.0,0.0,0.0,0.0,0.0,0.0,0.0,0.0,0.0,0.0,0.0,0.0,0.0,0.0,0.0,0.0,4.2197,4.3958,4.5409,4.706,4.9014,5.1459,5.3245,5.4188,5.3951,5.4314,5.4562,5.4664,5.5665,5.6049,5.5395,5.6165,5.6357,5.5703,5.6319,5.6549,5.6319,5.6001,5.5681,5.5385,5.3652,5.2894,5.3014,5.2163,5.1776,5.1776,5.1743,5.1628,5.1394,5.1367,5.1169,5.0847,4.9756,4.8478,4.7274,4.7125,4.6224,4.4909,4.3762,4.2947,4.2202,4.1119,4.0854,4.0926,4.0967,4.1033,4.1116,4.1171,4.1211,4.1211,4.1211,4.1641,4.207,4.207,4.2535,4.2837,4.241,4.2616,4.2942,4.3363,4.3734,4.3782,4.309,4.3699,4.4175,4.3904,4.4291,0.0,4.5413,4.5452,4.5452,4.5452,4.4717,4.4136,4.3904,4.2717,4.1892,4.1699,4.1015,4.0626,4.0636,4.0438,4.021,4.0004,3.9747,3.94,0.0,0.0,0.0,0.0,0.0,0.0,0.0,0.0,0.0,0.0,0.0,0.0,0.0,0.0,0.0,0.0,0.0,0.0,0.0,0.0,0.0,0.0,4.5419,4.7473,5.0278,5.0675,5.1574,5.4105,5.51,5.5638,5.5745,5.6032,5.6088,5.5742,5.6511,5.6626,5.5742,5.6165,5.6203,5.5703,5.6203,5.6434,5.6434,5.5711,5.542,5.5579,5.3487,5.2571,5.2671,5.1782,5.1394,0.0,5.1396,5.1398,5.14,5.1367,5.1318,0.0,0.0,0.0,0.0,0.0,4.6105,4.4987,4.3796,4.3233,4.2899,4.1699,4.1594,4.1906,4.2002,4.2026,4.1992,4.169,4.1902,4.2104,4.1753,4.2304,4.2929,4.2926,4.3266,4.356,4.3387,4.341,4.3566,4.386,0.0,0.0,4.3956,4.4523,4.4987,4.4639,4.491,4.5258,4.5722,4.58,4.58,4.58,4.536,4.4959,4.4573,4.3603,0.0,0.0,0.0,4.0969,4.0592,4.0339,0.0,0.0,0.0,3.9452,3.9324,0.0,0.0,0.0,3.8414,3.8637,0.0,0.0,0.0,0.0,0.0,0.0,0.0,0.0,0.0,0.0,0.0,0.0,0.0,0.0,0.0,0.0,4.8523,5.0138,5.4262,5.4014,5.3703,5.4534,5.5324,5.5805,5.5818,5.6434,5.6549,5.5895,5.6549,5.6665,5.5895,0.0,0.0,0.0,0.0,5.5728,5.5728,5.4933,5.459,5.4762,5.3135,5.2439,5.2521,5.1748,5.1398,5.1398,5.14,5.14,5.14,5.1367,5.119,5.0728,4.9129,4.8477,4.8257,4.661,4.5917,4.5568,4.3982,0.0,0.0,4.2667,4.2667,4.3312,4.3391,4.3422,4.3248,4.2564,4.2939,4.3404,4.2623,4.3115,4.3824,4.3762,4.3786,4.4046,4.4656,4.4219,4.3868,4.4577,4.4718,4.4755,4.4755,4.5336,4.5568,4.4833,4.5336,4.58,4.58,4.58,4.58,4.58,0.0,0.0,4.4699,4.45,4.3775,4.2271,4.2086,4.1655,4.0729,4.0519,4.0289,4.0034,3.9838,3.9575,3.9231,3.9231,3.9231,3.9231,3.9157,3.9082,0.0,0.0,0.0,0.0,0.0,0.0,0.0,0.0,0.0,0.0,0.0,0.0,0.0,0.0,0.0,4.8736,5.1001,5.3215,5.5345,5.5499,5.5383,5.5517,5.563,5.5994,5.6665,5.628,5.6165,5.6703,5.6896,5.6934,5.6742,5.6785,5.6845,5.6845,5.623,5.5946,5.5946,5.4614,5.397,5.3993,0.0,0.0,5.1631,5.148,5.1404,5.1404,5.1406,5.1406,5.1406,5.1288,5.0343,4.8916,4.8579,4.8036,4.7349,4.6254,4.5827,4.5645,4.4678,4.4446,4.4446,4.3401,4.3169,4.3312,4.3391,4.3422,0.0,4.3265,4.3371,4.35,4.3305,4.3941,4.4571,4.4559,4.5056,4.5385,4.4822,4.5037,4.5183,4.4718,4.5117,4.5568,4.5568,4.5684,4.5761,4.5568,4.5684,4.58,4.58,4.58,4.58,4.58,4.58,4.5722,4.5554,4.4877,4.433,4.4021,4.3304,4.2581,4.1977,4.1933,4.1704,4.126,4.1203,4.0849,4.016,4.016,4.016,4.0123,3.9417,3.9082,0.0,0.0,0.0,0.0,0.0,0.0,0.0,0.0,0.0,0.0,0.0,4.2412,4.3883,0.0,4.8502,5.1619,5.358,5.5011,5.5827,5.629,5.6329,5.5805,5.5724,5.6049,5.6896,5.7011,5.7165,5.7627,5.8033,5.8094,5.767,5.7352,5.7214,5.7214,5.6466,5.6097,5.6097,5.4585,5.3787,5.3787,5.2169,5.1402,5.1402,5.1405,5.1406,5.1406,5.1406,5.1406,5.1367,5.0795,4.9722,4.8387,4.7918,4.7248,4.6448,4.5957,4.58,4.5684,4.4871,4.4871,4.5065,4.4214,4.4214,4.4576,4.4601,4.4614,4.4509,4.4139,4.4394,4.4664,4.4197,4.4775,4.5422,4.5421,4.5726,4.5869,4.5374,4.5544,4.5684,4.5297,4.5529,4.58,4.58,4.5786,4.5786,4.58,4.58,4.58,4.58,4.58,4.58,4.5824,4.5757,4.5742,4.5765,4.4932,4.435,4.4208,4.3386,4.2717,4.2337,4.2157,4.1995,4.1764,4.1659,4.1386,4.0977,4.0977,4.0977,4.0977,4.0531,4.0346,0.0,0.0,0.0,0.0,0.0,0.0,0.0,4.0705,4.13,4.2546,4.3598,4.5207,4.8099,4.9059,5.0598,5.4216,5.547,5.5995,5.598,5.6559,5.6676,5.5822,5.5745,5.6071,5.6956,5.7649,5.8149,5.8303,5.9117,5.9258,5.8412,5.7826,5.7474,5.7349,5.6647,5.6281,5.6281,5.484,5.4011,5.3816,5.2336,5.1561,5.1405,5.1406,5.1406,5.1406,5.1406,5.1406,5.1281,5.0477,4.9585,4.8643,4.7713,4.6806,4.6032,4.5838,4.58,4.5722,4.5065,4.5258,4.5684,4.5026,4.5258,4.58,4.58,4.58,4.5645,4.5026,4.5376,4.5809,4.511,4.5483,4.6035,4.5986,4.5964,4.5929,4.5814,4.5786,4.5786,4.5786,4.5786,4.5786,4.5786,4.5795,4.5795,4.5786,4.5786,4.5786,4.5786,4.5786,4.5771,4.5781,4.575,4.5703,4.5709,4.5004,4.4456,4.423,4.3558,4.3052,4.2806,4.2523,4.234,4.2323,4.2135,4.198,4.1832,4.1832,4.1832,4.1832,4.1832,4.1757,3.6851,3.6696,3.8097,4.0368,4.0482,4.1227,0.0,4.5681,4.5207,4.7011,4.8625,4.9892,5.0471,5.2476,5.4216,5.4735,5.547,5.5995,5.598,5.6096,5.6077,5.5885,5.5885,5.6212,5.702,5.7215,5.7621,5.8353,5.9202,5.9379,5.8612,5.8521,5.8143,5.7486,5.6822,5.6475,5.6475,5.5577,5.4725,5.3983,5.3008,5.2148,5.1406,5.1406,5.1406,5.1406,5.1406,5.1313,5.1225,5.1094,5.047,4.9504,4.8585,4.7734,4.6844,4.6071,4.58,4.58,4.5684,4.5722,4.58,4.5684,4.5722,4.58,4.58,4.58,4.5761,4.5684,4.5736,4.5789,4.5711,4.5764,4.5854,4.5827,4.58,4.581,4.5795,4.5765,4.5696,4.5696,4.5696,4.5696,4.5696,4.5696,4.575,4.5781,4.5765,4.5696,4.5696,4.5696,4.5696,4.5696,4.5696,4.5703,4.5709,4.5616,4.5505,4.5414,4.5112,4.4789,4.4535,4.4282,4.4008,4.3788,4.3726,4.3392,4.2686,4.2686,4.2686,4.2686,4.2686,4.2277,3.97,4.0329,4.1568,4.2159,4.3593,4.534,4.7473,4.8164,4.8644,4.9539,5.1078,5.231,5.2398,5.373,5.5122,5.6089,5.6979,5.7366,5.6828,5.7175,5.6925,5.5364,5.5652,5.6463,5.7716,5.7891,5.8258,5.9107,6.0016,6.0218,5.939,5.9032,5.8905,5.9131,5.7477,5.679,5.7298,5.5976,5.5117,5.4765,5.3867,5.3008,5.2148,5.2148,5.1875,5.1406,5.1406,5.1357,5.1224,5.0723,5.0236,4.9681,4.8321,4.7539,4.7042,4.6151,4.58,4.58,4.58,4.58,4.58,4.58,4.58,4.58,4.58,4.58,4.58,4.5824,4.581,4.581,4.5742,4.5742,4.5742,4.5742,4.5727,4.575,4.575,4.5735,4.568,4.568,4.568,4.568,4.568,4.5703,4.5687,4.5758,4.5719,4.568,4.568,4.568,4.5719,4.5687,4.5671,4.5637,4.562,4.562,4.5514,4.5159,4.5011,4.4776,4.4365,4.4221,4.4102,4.3986,4.3986,4.3838,4.3503,4.3503,4.3503,4.3503,4.3503,4.3318,4.1283,4.2624,4.3926,4.3821,4.6188,4.8656,4.9136,5.0177,5.1159,5.1548,5.2414,5.3188,5.3459,5.4194,5.52,5.6399,5.7521,5.7946,5.7056,5.7675,5.7425,5.5302,5.5608,5.6557,5.795,5.8105,5.8452,5.934,6.0295,6.0614,5.9996,5.9584,5.9538,5.9979,5.8005,5.7265,5.789,5.6406,5.5547,5.5273,5.4648,5.3789,5.2695,5.2461,5.1992,5.1406,5.1406,5.1245,5.0906,5.052,5.0176,4.9761,4.853,4.7864,4.7434,4.6487,4.5993,4.58,4.58,4.58,4.5786,4.5786,4.5786,4.5771,4.5771,4.5771,4.5771,4.5781,4.5765,4.5765,4.5696,4.568,4.568,4.568,4.5719,4.5703,4.5703,4.5703,4.5648,4.5648,4.5648,4.5648,4.5648,4.5671,4.5676,4.5676,4.5671,4.5648,4.5648,4.5648,4.5671,4.5693,4.562,4.5568,4.5514,4.5475,4.5283,4.4825,4.4726,4.4519,4.414,4.4048,4.3986,4.3986,4.3986,4.3986,4.3986,4.3986,4.3986,4.3986,4.3986,4.3986,4.0246,4.1755,4.3481,4.5346,4.7773,5.0094,5.1718,5.2105,5.2376,5.3265,5.2801,5.2492,5.3343,5.4194,5.4813,5.4851,5.6283,5.7056,5.6167,5.6786,5.7018,5.6089,5.5973,5.636,5.7232,5.7309,5.7714,5.8565,5.9506,6.0035,6.0108,6.0204,5.9944,5.9258,5.8359,5.7851,5.789,5.6992,5.6133,5.5312,5.5273,5.4375,5.2656,5.1836,5.1445,5.1406,5.1406,5.0894,5.0087,5.0906,5.0717,4.9901,4.978,4.9193,4.8366,4.7403,4.6535,4.58,4.58,4.5786,4.5795,4.5795,4.5765,4.5696,4.5696,4.5696,4.5696,4.5696,4.568,4.568,4.568,4.568,4.568,4.568,4.5687,4.5709,4.5709,4.5676,4.5603,4.5603,4.5603,4.5603,4.5603,4.5603,4.5603,4.5603,4.5603,4.5603,4.5603,4.5603,4.5603,4.5603,4.5586,4.5475,4.5222,4.5222,4.5077,4.48,4.4546,4.4383,4.4383,4.417,4.3986,4.3986,4.3986,4.3986,4.3986,4.3986,4.3986,4.3986,4.3986,4.3986,4.2092,4.4414,4.6746,4.741,4.9475,5.1525,5.2066,5.2647,5.2995,5.2685,5.195,5.1254,5.1022,5.1641,5.2801,5.4503,5.6205,5.7598,5.8488,5.8836,5.8255,5.6244,5.6515,5.6566,5.5782,5.6659,5.7456,5.78,5.9269,5.9932,5.9385,5.9983,6.0232,6.0,5.8633,5.789,5.789,5.7031,5.6445,5.6172,5.5586,5.4687,5.3516,5.2656,5.1953,5.1406,5.1406,5.0937,5.0152,5.0331,4.9926,4.9084,4.8421,4.7952,4.7528,4.6564,4.6007,4.5727,4.5795,4.5781,4.575,4.575,4.5735,4.568,4.568,4.568,4.568,4.5687,4.5687,4.5671,4.5654,4.5637,4.5637,4.5637,4.562,4.562,4.562,4.5603,4.5586,4.5586,4.5586,4.5586,4.5586,4.5586,4.5586,4.5586,4.5586,4.5586,4.5586,4.5586,4.5586,4.5586,4.5586,4.5475,4.5222,4.5201,4.4988,4.4572,4.4438,4.4336,4.4132,4.4048,4.3986,4.3986,4.3986,4.3986,4.3986,4.3986,4.3986,4.3986,4.3986,4.3986,4.3852,4.6264,4.8469,4.8778,5.0558,5.2182,5.2182,5.2608,5.2801,5.1912,5.0828,4.9745,4.8933,4.9436,5.0674,5.2647,5.4658,5.6553,5.8255,5.8526,5.7985,5.6631,5.672,5.649,5.5476,5.6329,5.708,5.7441,5.8607,5.9339,5.9456,5.9799,6.0117,6.039,5.8789,5.789,5.789,5.7031,5.6445,5.6133,5.5234,5.4375,5.3516,5.2617,5.1914,5.1367,5.1094,5.0468,4.9643,4.9589,4.902,4.817,4.7812,4.7494,4.7078,4.6448,4.6003,4.5703,4.575,4.5735,4.5703,4.5703,4.5687,4.5687,4.5687,4.5687,4.5671,4.5637,4.5676,4.5676,4.5603,4.5586,4.5586,4.5586,4.5586,4.5586,4.5586,4.5586,4.5586,4.5586,4.5586,4.5586,4.5586,4.5586,4.5586,4.5586,4.5586,4.5586,4.5586,4.5586,4.5586,4.5586,4.5494,4.5361,4.5094,4.4966,4.4726,4.4308,4.425,4.4162,4.3986,4.3986,4.3986,4.3986,4.3986,4.3986,4.3986,4.3986,4.3986,4.3986,4.3986,4.3986,4.5529,4.7231,4.874,4.9629,5.0983,5.2144,5.2144,5.2105,5.1834,5.0945,4.9397,4.7927,4.7076,4.7657,4.8585,4.9591,5.195,5.4233,5.6012,5.6283,5.6571,5.7345,5.6791,5.6304,5.6278,5.63,5.6667,5.7485,0.0,5.8402,6.0085,5.9565,5.9531,6.0234,5.8711,5.789,5.7812,5.6953,5.6094,5.5234,5.4414,5.3555,5.2656,5.1836,5.1445,5.1328,5.0547,4.9602,4.8703,4.8625,4.8035,4.7193,4.7971,4.7766,4.7017,4.694,4.6381,4.5709,4.5703,4.5687,4.5693,4.5693,4.5659,4.5586,4.5586,4.5586,4.5586,4.5586,4.5586,4.5586,4.5586,4.5586,4.5586,4.5586,4.5586,4.5586,4.5586,4.5586,4.5586,4.5586,4.5586,4.5586,4.5586,4.5586,4.5586,4.5586,4.5586,4.5586,4.5586,4.5586,4.5586,4.5586,4.5361,4.5055,4.48,4.4546,4.4308,4.4017,4.3986,4.3986,4.3986,4.3986,4.3986,4.3986,4.3986,4.3986,4.3986,4.3986,4.3986,4.3986,4.3986,4.3986,4.8237,4.9475,5.048,5.1331,5.1409,5.1215,5.1215,5.079,5.0094,4.9204,4.7192,4.5297,4.4446,4.5452,4.7386,5.0132,5.3265,5.6399,5.9377,5.9885,5.9769,5.9342,5.8647,5.7974,5.7375,5.677,5.6563,0.0,5.7399,5.7949,5.8473,5.8945,5.8984,5.8555,5.8125,5.7578,5.6953,5.6055,5.5195,5.4336,5.4101,5.3555,5.2695,5.2461,5.195,5.1222,5.0406,4.9479,4.8491,4.7806,4.6978,4.6174,4.6327,4.6252,4.6044,4.5962,4.5813,4.562,4.562,4.562,4.5603,4.5603,4.5603,4.5586,4.5586,4.5586,4.5586,4.5586,4.5586,4.5586,4.5586,4.5586,4.5586,4.5586,4.5586,4.5586,4.5586,4.5586,4.5586,4.5586,4.5586,4.5586,4.5586,4.5586,4.5586,4.5586,4.5419,4.5381,4.5568,4.5419,4.5283,4.5283,4.5033,4.48,4.4519,4.4438,4.4308,4.4017,4.3986,4.3986,4.3986,4.3986,4.3986,4.3986,4.3986,4.3986,4.3986,4.3961,4.3961,4.3986,4.3897,4.3865,4.9861,5.1099,5.2144,5.2647,5.2105,5.1293,5.0558,4.9745,4.8662,4.7076,4.5297,4.375,4.2899,4.4136,4.6148,4.8817,5.2105,5.5543,5.9033,5.959,5.9581,5.9527,5.8841,5.8052,5.7265,5.6777,5.6556,5.6601,5.6987,5.7417,5.789,5.8008,5.8008,5.789,5.7539,5.6914,5.6055,5.5937,5.5234,5.3984,5.3983,5.3553,5.2693,5.2258,5.173,5.1113,0.0,4.8997,4.8316,4.7054,4.6203,4.5718,4.5687,4.5676,4.5659,4.5603,4.5586,4.5586,4.5586,4.5586,4.5586,4.5586,4.5586,4.5586,4.5586,4.5586,4.5586,4.5586,4.5586,4.5586,4.5586,4.5586,4.5586,4.5586,4.5586,4.5586,4.5586,4.5586,4.5586,4.5586,4.5586,4.5568,4.5438,4.5419,4.54,4.5263,4.5421,4.5627,4.5757,4.5344,4.5011,4.5011,4.4776,4.4572,4.4411,4.4308,4.4132,4.3986,4.3986,4.3986,4.3986,4.3986,4.3992,4.3961,4.3961,4.3961,4.3897,4.3865,4.3902,4.3897,4.3837,4.3837,5.1138,5.2453,5.3498,5.3498,5.2763,5.1602,4.99,4.8778,4.7347,4.4949,4.375,4.286,4.2009,4.3247,4.5104,4.7143,5.0139,5.3529,5.7327,5.7857,5.8187,5.9005,5.8382,5.759,5.677,5.6636,5.6601,5.6601,5.6601,5.6914,5.7695,5.6992,5.6953,5.7695,5.6992,5.6172,5.5312,5.6053,5.5622,5.3981,5.3859,5.3386,5.2644,5.1625,5.12,5.1069,0.0,0.0,4.815,4.6447,4.5688,4.5586,4.5586,4.5586,4.5586,4.5586,4.5586,4.5586,4.5586,4.5586,4.5586,4.5586,4.5586,4.5586,4.5586,4.5586,4.5586,4.5586,4.5586,4.5586,4.5586,4.5586,4.5586,4.5586,4.5586,4.5586,4.5586,4.5586,4.5586,4.5586,4.5701,4.5686,4.5475,4.551,4.5485,4.5238,4.5748,4.6152,4.6126,4.5521,4.5067,4.5067,4.4831,4.4627,4.4515,4.4289,4.4135,4.4023,4.3986,4.3986,4.3986,4.3986,4.3992,4.3897,4.3897,4.3902,4.3804,4.3771,4.3771,4.3804,4.3771,4.3771,5.3498,5.3807,5.3498,5.3498,5.2298,5.0712,4.901,4.7386,4.5722,4.3904,4.2821,4.197,4.1158,4.2396,4.4809,4.8693,5.1035,5.4062,5.8958,5.974,5.9859,6.0026,5.9402,5.8592,5.7733,5.7031,5.6601,5.6601,5.6601,5.6679,5.6836,5.668,5.6679,5.6835,5.6678,5.617,5.5306,5.5462,5.4991,5.3976,5.3166,5.2679,5.2484,5.1554,5.1063,5.0856,4.9097,0.0,4.7987,4.6348,4.562,4.5586,4.5586,4.5586,4.5586,4.5586,4.5586,4.5586,4.5586,4.5586,4.5586,4.5586,4.5586,4.5586,4.5586,4.5586,4.5586,4.5586,4.5586,4.5586,4.5586,4.5586,4.5586,4.5586,4.5586,4.5586,4.5586,4.5586,4.5586,4.5586,4.6163,4.6645,4.6608,4.7146,4.7491,4.7242,4.7124,4.697,4.676,4.6619,4.6544,4.6544,4.6314,4.5866,4.5196,4.5095,4.4766,4.4061,4.3986,4.3986,4.3986,4.3986,4.3992,4.3897,4.3897,4.3902,4.3804,4.3667,4.3667,4.3804,4.3634,4.36,5.4439,5.4944,5.4944,5.4944,5.3351,5.1152,4.8968,4.6771,4.4614,4.2447,4.1661,4.126,4.0931,4.2222,4.4195,4.6795,4.9022,5.193,5.6276,5.7679,5.8449,5.8975,5.9139,5.8672,5.7344,5.6836,5.6601,5.6601,5.6598,5.6598,5.6601,5.66,5.6598,5.6597,5.6597,5.6165,5.5304,5.5673,5.5231,5.3904,5.3362,5.2844,5.2377,5.1408,5.0945,5.082,4.8987,0.0,4.8663,4.6971,4.6278,4.6278,4.6278,4.6009,4.5586,4.5586,4.5586,4.5586,4.5586,4.5586,4.5586,4.5586,4.5586,4.5586,4.5586,4.5586,4.5586,4.5586,4.5586,4.5586,4.5586,4.5586,4.5586,4.5586,4.5586,4.5586,4.5586,4.597,4.6278,4.6278,4.6839,4.7256,4.715,4.7319,4.7378,4.7127,4.7296,4.7447,4.733,4.7671,4.7596,4.6775,4.6573,4.6327,4.5955,4.5918,4.5547,4.4729,4.4692,4.4469,4.4023,4.3992,4.3929,4.3869,4.3767,4.3701,4.3634,4.36,4.36,4.3634,4.3532,4.3532,5.4765,5.5654,5.6277,5.6082,5.4126,5.1537,4.8866,4.628,4.3753,4.1341,4.0854,4.0848,4.0926,4.1984,4.3333,4.4618,4.6651,4.9406,5.3139,5.5095,5.6512,5.75,5.8398,5.832,5.6757,5.6599,5.6598,5.6598,5.6595,0.0,5.6598,5.6595,5.6593,5.6591,5.6585,5.6227,5.5524,5.5886,5.5372,5.4048,5.353,5.2913,5.2214,5.1285,5.0858,5.0781,4.9122,0.0,0.0,4.7702,4.7048,4.6894,4.6894,4.6471,4.5855,4.5663,4.5586,4.5586,4.5586,4.5586,4.5586,4.5586,4.5586,4.5586,4.5586,4.5586,4.5586,4.5586,4.5586,4.5586,4.5586,4.5586,4.5586,4.5586,4.5586,4.5663,4.5817,4.6357,4.6858,4.705,4.7482,4.7791,4.7593,4.7531,4.7425,4.7159,4.7653,4.8062,4.7961,4.8519,4.8407,4.7144,4.6995,4.6958,4.6739,4.6739,4.6368,4.5556,4.5482,4.5111,4.4257,4.4156,4.4017,4.3771,4.3815,4.3713,4.3497,4.3644,4.3644,4.3497,4.3497,4.3497,5.4762,5.5645,5.6106,5.5326,5.3206,5.0657,4.8086,4.5468,4.313,4.1324,4.0974,4.0974,4.0981,4.1136,4.2019,4.4497,4.5753,4.7913,5.2226,5.4296,5.5741,5.6597,5.7493,5.7649,5.6673,5.6593,5.6593,5.6593,5.6588,0.0,5.6593,5.6593,5.6591,5.6582,5.6464,5.6347,5.6207,5.5413,5.4956,5.4762,5.3078,5.2191,5.2098,5.1141,5.0741,5.0664,4.9721,0.0,0.0,4.8048,4.7548,4.6894,4.6894,4.6855,4.6701,4.5893,4.5586,4.5586,4.5586,4.5586,4.5586,4.5586,4.5586,4.5586,4.5586,4.5586,4.5586,4.5586,4.5586,4.5586,4.5586,4.5586,4.5586,4.5586,4.5586,4.5817,4.6624,4.6589,4.6653,4.7477,4.8071,4.8401,4.8375,4.9019,4.9438,4.9152,4.9202,4.9145,4.8813,4.8853,4.8853,4.8704,4.8667,4.8373,4.7562,4.7525,4.7085,4.6168,4.6131,4.5725,4.4946,4.4875,4.4509,4.3634,4.4334,4.4299,4.3497,4.4232,4.4195,4.3497,4.3497,4.3497,5.4645,5.5815,5.6401,5.605,5.3236,5.0146,4.861,4.5402,4.258,4.1852,4.1295,4.1111,4.1686,4.1339,4.1543,4.3124,4.3672,4.5234,4.9099,5.0699,5.2339,5.4759,5.5812,5.6398,5.6593,5.6588,5.639,5.5876,5.5833,0.0,5.4937,5.5873,5.6179,5.5711,5.555,5.5219,5.4663,5.4233,5.3722,5.318,5.2387,5.172,5.1257,5.0856,5.0702,5.0625,4.9202,0.0,0.0,4.7778,4.7201,4.6894,4.6894,4.6586,4.6086,4.574,4.5586,4.5586,4.5586,4.5586,4.5586,4.5586,4.5586,4.5586,4.5586,4.5586,4.5586,4.5586,4.5586,4.5586,4.5586,4.5586,4.5683,4.5994,4.6089,4.6278,4.7007,4.7424,4.777,4.8112,4.8662,4.9031,4.9031,4.9121,4.9155,4.9061,4.8993,4.8853,4.875,4.8714,4.8714,4.8714,4.882,4.8744,4.8342,4.8305,4.7937,4.698,4.6943,4.6574,4.5762,4.5655,4.5473,4.5107,4.5331,4.5295,4.4929,4.5259,4.5259,4.4929,4.4929,4.4929,5.3268,5.4948,5.6161,5.5888,5.2958,4.9799,4.8711,4.5273,4.2302,4.2251,4.1777,4.1629,4.2537,4.1991,4.1719,4.2651,4.2765,4.382,4.6788,4.8155,4.9873,5.2526,5.362,5.4479,5.5377,5.5684,5.5556,5.4909,5.4869,0.0,5.3399,5.4684,5.519,5.4675,5.4529,5.4142,5.356,5.3127,5.2657,5.2039,5.1703,5.1241,5.0702,5.0702,5.0702,5.0625,0.0,0.0,0.0,4.8009,4.7355,4.6894,4.6894,4.6509,4.5932,4.5701,4.5586,4.5586,4.5586,4.5586,4.5586,4.5586,4.5586,4.5586,4.5568,4.5586,4.5586,4.5586,4.5586,4.5663,4.5783,4.5822,4.5956,4.6466,4.6587,4.6744,4.7439,4.7974,4.8372,4.8636,4.8964,4.9155,4.9155,4.8925,4.8751,4.8751,4.8642,4.8605,4.8605,4.8605,4.8605,4.8605,4.875,4.8785,4.8715,4.8715,4.842,4.7721,4.7684,4.7279,4.6505,4.6432,4.6286,4.6065,4.6177,4.614,4.5883,4.614,4.614,4.5883,4.5883,4.5883,5.0165,5.2671,5.5098,5.4239,5.2058,4.9641,4.8,4.4917,4.2415,4.2415,4.2376,4.265,4.3509,4.2962,4.2689,4.3548,4.3704,4.4288,4.6078,4.7757,4.9121,5.0048,5.0906,5.1765,5.2663,5.3522,5.3972,5.3822,5.3822,0.0,5.2391,5.3025,5.3475,5.3623,5.349,5.3398,5.3398,5.2434,5.1933,5.1895,5.1087,5.0702,5.0702,5.0702,5.0702,0.0,0.0,0.0,0.0,4.9048,4.8394,4.6894,4.6894,4.6894,4.6778,4.5932,4.5586,4.5586,4.5586,4.5586,4.5586,4.5586,4.5586,4.5586,4.5532,4.555,4.5586,4.5586,4.5586,4.5742,4.6237,4.6358,4.6435,4.6959,4.7051,4.7212,4.8004,4.7995,4.8044,4.8936,4.8853,4.8642,4.8642,4.8569,4.8605,4.8605,4.8605,4.8605,4.8605,4.8605,4.8605,4.8605,4.8605,4.8569,4.8494,4.8494,4.8457,4.8306,4.8306,4.7939,4.7131,4.7095,4.6728,4.592,4.6691,4.6728,4.5883,4.6728,4.6691,4.5883,4.5883,4.5883,4.8213,5.0481,5.2277,5.0793,4.8961,4.7364,4.6817,4.4474,4.2753,4.3925,4.369,4.3534,4.4432,4.3886,4.3573,4.4432,4.4588,4.4979,4.6147,4.7279,4.8529,4.993,5.1921,5.3235,5.3429,5.3696,5.3611,5.2964,0.0,0.0,5.1474,5.1576,5.1943,5.2545,5.2447,5.2107,5.1547,5.1241,5.1087,5.1087,5.0818,5.0702,5.0702,5.0702,0.0,0.0,0.0,0.0,0.0,4.7163,4.6471,4.6009,4.6009,4.6009,4.597,4.5701,4.5568,4.555,4.555,4.5475,4.5457,4.5457,4.5457,4.5457,4.5438,4.5457,4.5532,4.5457,4.5879,4.6359,4.626,4.6686,4.7188,4.7529,4.7566,4.7697,4.8323,4.841,4.8451,4.8674,4.8677,4.8605,4.8605,4.8126,4.7905,4.8458,4.8016,4.8015,4.9156,4.9303,4.9487,5.0037,5.0073,4.9671,4.8605,4.8494,4.8457,4.8306,4.8306,4.8196,4.7939,4.7939,4.7792,4.7572,4.7792,4.7792,4.7535,4.7792,4.7792,4.7535,4.7535,4.7535,4.63,4.8486,5.0165,4.9072,4.7549,4.63,4.63,4.4543,4.3294,4.4699,4.4582,4.4465,4.5324,4.4777,4.4465,4.5363,4.5207,4.5402,4.6612,4.7276,4.8096,4.9462,5.1279,5.2551,5.2883,5.2792,5.2631,5.2446,0.0,0.0,5.0928,5.0835,5.1057,5.1559,5.151,5.1202,5.0702,5.0702,5.0702,5.0702,5.0702,5.0702,5.0702,5.0356,0.0,0.0,0.0,0.0,0.0,4.6606,4.5876,4.5568,4.555,4.5532,4.5532,4.5532,4.5514,4.5457,4.5457,4.5438,4.54,4.54,4.5303,4.5277,4.5583,4.5571,4.5496,4.5646,4.6063,4.6571,4.6758,4.7192,4.7683,4.7988,4.8004,4.8083,4.8384,4.8495,4.8495,4.8495,4.8495,4.8569,4.89,4.8531,4.8457,4.9228,4.8895,4.8893,4.9921,5.0031,5.0251,5.0765,5.0802,5.0438,4.9448,4.9081,4.9007,4.9224,4.8967,4.8783,4.8783,4.9077,4.9114,4.8783,4.8783,4.8783,4.8783,4.8453,4.8306,4.8306,4.8306,4.8306,0.0,4.669,4.8525,4.8447,4.7315,4.6222,4.6222,4.4933,0.0,4.4894,4.509,4.5324,4.6144,4.5597,4.5285,4.6144,4.5558,4.5597,4.7276,4.7623,4.7971,4.879,4.9523,5.0322,5.1201,5.1113,5.1346,5.2135,0.0,0.0,5.0702,5.0721,5.0702,5.0702,5.0702,5.0702,5.0702,5.0702,5.0702,5.0702,5.0702,5.0664,5.0587,4.9779,0.0,0.0,0.0,0.0,0.0,4.7069,4.6244,4.5475,4.5419,4.54,4.54,4.54,4.54,4.54,4.54,4.5381,4.5361,4.5361,4.5175,4.51,4.5873,4.578,4.5531,4.6016,4.6212,4.6468,4.7386,4.7648,4.7813,4.8311,4.8345,4.8306,4.8306,4.8343,4.8379,4.8379,4.8453,4.8746,4.9517,4.9627,4.9848,5.0692,5.0765,5.0765,5.0875,5.0875,5.0912,5.0949,5.0986,5.0986,5.0986,5.0178,4.9994,5.0765,5.0105,4.9664,4.9664,5.0398,5.0435,4.9701,4.9627,4.9554,4.9481,4.8673,4.8306,4.8306,4.8306,4.8306,4.3879,0.0,4.5714,4.5051,4.509,4.5324,0.0,4.4972,4.4933,4.5792,4.5987,4.6066,4.6261,4.5597,4.5285,4.6144,4.5558,4.5363,4.6456,4.7669,4.8709,4.9469,5.0247,5.0553,5.0067,5.0583,5.1005,0.0,0.0,5.0794,5.0841,5.0758,5.0702,5.0702,5.0702,5.0702,5.0702,5.0702,5.0702,5.0702,5.0702,5.0298,4.9605,4.9413,0.0,0.0,0.0,0.0,4.6973,4.6071,4.5611,4.5419,4.5419,4.54,4.54,4.54,4.5419,4.538,4.538,4.5197,4.4896,4.4701,4.518,4.5836,4.5752,4.5639,4.558,4.5687,4.6214,4.6581,4.5966,4.6694,4.7596,4.7463,4.7865,4.8306,4.8306,4.882,4.9297,4.9297,4.9774,5.0288,5.0472,4.9958,4.9811,5.0655,5.0215,5.0251,5.1536,5.172,5.194,5.2564,5.2637,5.2637,5.2637,5.1316,5.0618,5.0802,5.0618,5.0508,5.0508,5.0692,5.0729,5.0508,4.9884,4.926,4.86,4.8416,4.8306,4.8306,4.8306,4.8306,4.3489,4.4348,4.4894,4.4426,4.466,4.509,4.5519,4.5597,4.5714,4.6183,4.63,4.63,4.63,4.5909,4.5746,4.6158,4.6147,4.6371,4.7203,4.8054,4.8905,4.9709,5.0144,5.0338,0.0,5.0581,5.0825,0.0,0.0,5.0721,5.0791,5.0702,5.0663,5.0663,5.022,5.024,5.0702,5.0682,5.0432,5.0067,5.0028,4.9547,4.8662,4.8278,4.8086,0.0,0.0,0.0,4.6627,4.5764,4.54,4.54,4.538,4.5341,4.5341,4.5341,4.536,4.5357,4.5357,4.5464,4.5527,4.5281,4.5768,4.6468,4.6525,4.6419,4.6322,4.6483,4.6881,4.7154,4.6715,4.7239,4.7868,4.7683,4.7976,4.8416,4.8783,4.9224,4.9701,5.0068,5.0508,5.0912,5.1279,5.0949,5.0912,5.1793,5.1499,5.1536,5.2417,5.2564,5.2711,5.3151,5.3225,5.3225,5.3225,5.2417,5.1903,5.1903,5.1536,5.1353,5.1353,5.172,5.172,5.1353,5.0912,5.0288,4.9444,4.9444,4.9444,4.9444,4.9077,4.8893,4.3248,4.4415,4.5156,4.5047,4.5082,4.5356,4.6144,4.6296,4.6253,4.6253,4.6253,4.6249,4.6245,4.624,4.6187,4.6091,4.6816,4.7678,4.8549,4.8654,4.8926,4.964,4.9766,5.0031,5.0687,5.0576,0.0,0.0,0.0,5.0336,5.0452,5.0297,5.0256,5.0371,4.9506,4.9488,5.0452,5.0412,5.0026,4.9278,4.9238,4.8698,4.7778,4.7029,4.7029,0.0,0.0,0.0,4.6454,4.5686,4.5398,4.5398,4.5298,4.5277,4.5277,4.5277,4.5277,4.5316,4.5344,4.5856,4.6473,4.6176,4.6497,4.7049,4.7441,4.7389,4.7316,4.7642,4.7601,4.7603,4.7868,4.8012,4.8122,4.8122,4.8306,4.8673,4.937,4.9738,5.0141,5.0839,5.1096,5.1389,5.205,5.216,5.2417,5.3115,5.3225,5.3225,5.3225,5.3225,5.3225,5.3225,5.3225,5.3225,5.3225,5.3225,5.3225,5.3225,5.2564,5.216,5.216,5.2858,5.2821,5.2013,5.1977,5.161,5.0802,5.0802,5.0802,5.0765,5.0105,4.9738,4.3278,4.4702,4.5768,4.5156,4.545,4.6014,4.6253,4.6192,4.6118,4.6118,4.6118,4.6098,4.5987,4.5959,4.5949,4.5949,4.6678,4.775,4.9209,4.9427,4.9459,4.9465,5.0085,5.0279,4.9605,4.9529,0.0,0.0,0.0,4.87,4.9391,4.8757,4.8718,4.937,4.8603,4.8603,4.9429,4.9409,4.9332,4.9217,4.9217,4.837,4.6835,4.6661,4.6296,0.0,0.0,4.5375,4.5489,4.5375,4.5337,4.5298,4.5277,4.5277,4.5277,4.5277,4.5277,4.5328,4.5481,4.6073,4.6636,4.6116,4.6638,4.7478,4.7242,4.7609,4.8122,4.8198,4.7684,4.7059,4.6434,4.6764,4.7278,4.7278,4.8379,4.9407,4.9554,5.0655,5.1646,5.1793,5.238,5.2894,5.3004,5.3041,5.3078,5.3188,5.3225,5.3225,5.3225,5.3225,5.3225,5.3225,5.3225,5.3225,5.3225,5.3225,5.3225,5.3225,5.3078,5.3041,5.3041,5.3151,5.2821,5.2013,5.1977,5.161,5.0802,5.0802,5.0802,5.0802,5.0655,5.0618,4.2052,4.3374,4.4673,4.4752,4.6091,4.7388,4.747,4.7454,4.7262,4.6804,4.6687,4.6513,4.6007,4.6258,4.6896,4.7753,4.7801,4.8099,4.9329,4.908,4.8872,4.9279,0.0,4.991,4.9928,4.9506,0.0,0.0,0.0,0.0,4.8506,4.8179,4.812,4.8464,4.7639,4.758,4.846,4.7963,4.8022,4.8464,4.7984,4.7099,4.5893,4.5893,4.5681,4.5277,0.0,4.5277,4.5277,4.5277,4.5277,4.5277,4.5277,4.5213,4.508,4.5369,4.547,4.5559,4.6055,4.6794,4.7417,4.6969,4.7455,4.8192,4.7868,4.8012,4.8306,4.8306,4.8049,4.7682,4.7278,4.7462,4.7865,4.8343,4.904,4.9701,5.0141,5.0839,5.1353,5.1353,5.1646,5.205,5.2491,5.2564,5.2711,5.3151,5.3225,5.3225,5.3225,5.3225,5.3225,5.3225,5.3225,5.3225,5.3225,5.3225,5.3225,5.3225,5.3225,5.3225,5.3225,5.3225,5.3041,5.2674,5.2637,5.2491,5.2123,5.2123,5.2123,5.2087,5.1646,5.1463,4.1124,4.2228,4.3552,4.4563,4.6332,4.7959,4.8371,4.832,4.7998,4.752,4.7442,4.7171,4.6293,4.6616,4.7622,4.9241,4.8872,4.8664,4.9548,4.9047,4.8835,4.9488,4.9524,4.9771,5.0402,0.0,0.0,0.0,0.0,0.0,4.766,4.7448,4.7367,4.7559,4.6674,4.6615,4.7494,4.6653,4.6674,4.7559,4.6827,4.608,4.5277,4.5277,4.5256,4.5154,4.5154,4.5132,4.5087,4.5087,4.5087,4.5087,4.5087,4.4934,4.4789,4.5378,4.5686,4.5889,4.6712,4.7473,4.8087,4.7856,4.8194,4.8604,4.8382,4.8306,4.8306,4.8306,4.8306,4.8306,4.8306,4.8453,4.8783,4.9444,4.9738,5.0105,5.0912,5.1096,5.1132,5.1353,5.1353,5.1573,5.216,5.227,5.2491,5.3115,5.3225,5.3225,5.3225,5.3225,5.3225,5.3225,5.3371,5.3482,5.3482,5.3482,5.3408,5.3225,5.3225,5.3225,5.3225,5.3225,5.3225,5.3225,5.3225,5.3225,5.3225,5.3225,5.3225,5.3188,5.2564,5.227,4.1558,4.243,4.3505,4.5033,4.5726,4.6422,4.805,4.7727,4.7294,4.7998,4.8168,4.7921,4.6912,4.6743,4.728,4.8969,4.9179,4.9426,5.0291,5.0368,5.0347,5.0385,5.0423,5.0402,5.0412,0.0,0.0,0.0,0.0,0.0,4.6615,4.591,4.5812,4.6577,4.5812,4.5774,4.6577,4.5774,4.5812,4.6615,4.6538,4.608,4.5277,4.5277,4.5132,4.4825,4.4825,4.4676,4.4465,4.4465,4.4465,4.4465,4.4465,4.4438,4.4524,4.5293,4.591,4.6475,4.7256,4.7864,4.8272,4.8271,4.8307,4.8344,4.8306,4.8306,4.8306,4.8306,4.8306,4.8306,4.8306,4.8893,4.9517,4.9591,5.0178,5.0949,5.172,5.1903,5.2123,5.2894,5.3041,5.3078,5.3115,5.3115,5.3151,5.3188,5.3225,5.3225,5.3225,5.3225,5.3225,5.3225,5.3885,5.4326,5.4326,5.4326,5.3995,5.3261,5.3225,5.3225,5.3225,5.3225,5.3225,5.3225,5.3225,5.3225,5.3225,5.3225,5.3225,5.3225,5.3151,5.3115,4.091,4.194,4.3265,4.4384,4.5109,4.6121,4.8407,4.8641,4.8432,4.876,4.8856,4.876,4.8355,4.8276,4.8659,4.981,5.0002,4.9925,4.9695,4.9674,4.9461,4.8963,4.8843,4.8799,4.8777,0.0,0.0,0.0,0.0,0.0,4.5736,4.5468,4.543,4.5736,4.5468,4.543,4.5736,4.543,4.543,4.5736,4.5544,4.5285,4.4981,4.4814,4.465,4.4546,4.4546,4.4493,4.4383,4.4383,4.4383,4.4383,4.4221,4.4468,4.496,4.5556,4.6239,4.6947,4.7758,4.8162,4.8306,4.8306,4.8306,4.8306,4.8306,4.8306,4.8306,4.8306,4.8306,4.8306,4.8306,4.893,4.9701,5.0215,5.0949,5.161,5.194,5.1977,5.194,5.1756,5.172,5.1867,5.238,5.2454,5.2637,5.3115,5.3225,5.3225,5.3225,5.3225,5.3408,5.3885,5.4656,5.5133,5.5133,5.5133,5.5023,5.4693,5.3739,5.3225,5.3225,5.3225,5.3225,5.3225,5.3225,5.3225,5.3225,5.3225,5.3225,5.3225,5.3225,5.3439,4.0816,4.181,4.3139,4.4288,4.4978,4.6051,4.8579,4.8984,4.8966,4.9482,4.9346,4.9154,4.9154,4.9154,4.9362,4.9959,5.0074,4.9844,4.9269,4.8881,4.8515,4.7941,4.7821,4.7799,4.7799,0.0,0.0,0.0,0.0,0.0,0.0,4.5277,4.5277,4.5277,4.5277,4.5256,4.5132,4.5132,4.5087,4.5019,4.4714,4.4624,4.4776,4.4599,4.4438,4.4279,4.4279,4.4221,4.4132,4.4132,4.4132,4.4102,4.3923,4.4346,4.5127,4.5697,4.6434,4.7241,4.8012,4.8306,4.8306,4.8306,4.8306,4.8306,4.8306,4.8306,4.8306,4.8306,4.8306,4.8379,4.8636,4.9334,5.0178,5.0986,5.161,5.205,5.2307,5.216,5.1903,5.161,5.1573,5.172,5.227,5.238,5.2564,5.3115,5.3225,5.3225,5.3225,5.3225,5.3518,5.4326,5.5097,5.5574,5.5574,5.5831,5.5868,5.5566,5.4546,5.3959,5.3959,5.3873,5.3873,5.3916,5.3916,5.3873,5.3829,5.3873,5.3873,5.3829,5.3829,5.4078,4.1495,4.2144,4.3214,4.4857,4.5277,4.5965,4.8525,4.8537,4.8447,5.0068,4.9723,4.9111,4.9111,4.9105,4.9098,4.9098,4.9098,4.9098,4.906,4.8334,4.7799,4.7799,4.7799,4.7799,4.7799,0.0,0.0,0.0,0.0,0.0,0.0,4.5277,4.5277,4.5316,4.5316,4.5132,4.48,4.48,4.465,4.4383,4.414,4.4279,4.4776,4.4776,4.4493,4.3986,4.3986,4.3795,4.3497,4.3497,4.3497,4.3497,4.3497,4.4011,4.4819,4.5626,4.6434,4.7241,4.8012,4.8306,4.8306,4.8306,4.8306,4.8306,4.8306,4.8306,4.8306,4.8306,4.8306,4.8489,4.937,5.0178,5.0986,5.1793,5.2013,5.2234,5.3041,5.2564,5.2234,5.3078,5.3225,5.3225,5.3225,5.3225,5.3225,5.3225,5.3225,5.3225,5.3225,5.3225,5.3555,5.4326,5.5133,5.5611,5.5611,5.6345,5.641,5.5468,5.5566,5.5611,5.5574,5.535,5.5259,5.5395,5.5395,5.535,5.5212,5.535,5.535,5.5212,5.5212,5.5212,4.0807,4.1724,4.3061,4.4131,4.5277,4.6653,4.864,4.8471,4.8187,4.9236,4.9733,4.9924,4.9924,4.9939,4.9748,4.9175,4.9557,4.9328,4.7532,4.757,4.7379,4.6194,4.6042,4.6042,4.6042,0.0,0.0,0.0,0.0,0.0,0.0,4.5277,4.5213,4.4957,4.4957,4.4838,4.4519,4.4519,4.4465,4.4383,4.4336,4.4279,4.4221,4.4011,4.3791,4.3667,4.3667,4.36,4.3497,4.3497,4.3497,4.3497,4.3497,4.4342,4.5553,4.581,4.6764,4.7976,4.8233,4.8306,4.8306,4.8306,4.8306,4.8306,4.8306,4.8306,4.8306,4.8306,4.8306,4.8636,5.0068,5.0618,5.0986,5.1793,5.2417,5.2931,5.3151,5.3004,5.2931,5.3151,5.3225,5.3225,5.3225,5.3665,5.3849,5.3298,5.3702,5.3989,5.3902,5.4415,5.4993,5.5706,5.651,5.6985,5.6985,5.7204,5.724,5.6937,5.689,5.6379,5.5341,5.535,5.5304,5.5259,5.5259,5.5259,5.5212,5.5259,5.5259,5.5212,5.5212,5.5458,4.1724,4.2756,4.4055,4.5239,4.6538,4.7799,4.8869,4.8945,4.8945,4.948,4.9977,5.0206,4.9862,4.9824,4.9557,4.8716,4.8716,4.8258,4.6729,4.6691,4.6424,4.543,4.5277,4.5277,4.5277,0.0,0.0,0.0,0.0,0.0,0.0,4.5019,4.4862,4.465,4.465,4.4519,4.425,4.425,4.4192,4.4035,4.4035,4.3949,4.3795,4.373,4.3634,4.3497,4.3497,4.3497,4.3497,4.3497,4.3497,4.3534,4.3864,4.4745,4.5957,4.625,4.7205,4.8306,4.8306,4.8306,4.8306,4.8306,4.8306,4.8306,4.8306,4.8306,4.8306,4.8306,4.8306,4.871,5.0362,5.0802,5.1096,5.2197,5.2858,5.3225,5.3225,5.3225,5.3225,5.3225,5.3225,5.3225,5.3225,5.3549,5.3763,5.3616,5.4232,5.47,5.4574,5.5012,5.5487,5.5869,5.6635,5.7109,5.7109,5.7437,5.7583,5.7534,5.7486,5.7,5.6055,5.6066,5.6113,5.6066,5.6066,5.6066,5.6018,5.6066,5.6066,5.6018,5.6018,5.6225,4.3482,4.4513,4.5583,4.7379,4.8525,4.9213,4.9213,4.9786,5.0283,5.0206,5.0245,5.0054,4.9251,4.9098,4.8793,4.7837,4.7073,4.6577,4.6424,4.5812,4.5392,4.5316,4.5277,4.5277,4.5256,0.0,0.0,0.0,0.0,0.0,0.0,4.4519,4.4383,4.4355,4.4355,4.425,4.3955,4.3923,4.3795,4.3497,4.3497,4.3497,4.3532,4.3795,4.3763,4.3497,4.3497,4.3497,4.3497,4.3497,4.3497,4.3571,4.4378,4.5186,4.5993,4.6801,4.7609,4.8306,4.8306,4.8306,4.8306,4.8306,4.8306,4.8306,4.8306,4.8306,4.8306,4.8306,4.8379,4.8783,5.0398,5.0839,5.1279,5.2858,5.3225,5.3225,5.3182,5.3182,5.3225,5.3146,5.3182,5.3182,5.3182,5.317,5.3493,5.4253,5.4784,5.5139,5.5285,5.5322,5.5275,5.5385,5.6041,5.6478,5.6478,5.7134,5.7486,5.7388,5.7486,5.7437,5.7188,5.7188,5.7239,5.7388,5.7388,5.7289,5.7188,5.7338,5.7289,5.7188,5.7188,5.7188,4.2756,4.3673,4.4857,4.7226,4.8945,5.0054,5.0054,5.0168,5.013,4.948,4.9862,5.0054,4.9251,4.9098,4.8602,4.7035,4.7188,4.7073,4.5736,4.5965,4.6003,4.5392,4.5277,4.5213,4.4934,0.0,0.0,0.0,0.0,0.0,4.4493,4.4438,4.4308,4.4109,4.4079,4.3923,4.3634,4.3634,4.3566,0.0,4.3497,4.3497,4.3497,4.36,4.3566,4.3497,4.3497,4.3497,4.3497,4.3497,4.3497,4.3571,4.4378,4.5186,4.5993,4.6801,4.7609,4.8306,4.8306,4.8306,4.8306,4.8306,4.8306,4.8306,4.8306,4.8306,4.8306,4.8306,4.8783,4.9554,5.0545,5.1279,5.1977,5.2804,5.3103,5.3146,5.293,5.306,5.3146,5.306,5.306,5.306,5.306,5.3997,5.5003,5.5842,5.4957,5.4692,5.5836,5.6018,5.6188,5.6708,5.6926,5.7035,5.7035,5.7216,5.7289,5.7239,5.7289,5.7239,5.7188,5.7289,5.7289,5.7239,5.7239,5.7239,5.7188,5.7239,5.7239,5.7188,5.7188,5.7188,4.2947,4.3978,4.5316,4.8258,4.9671,5.0283,5.0283,5.0015,4.9595,4.9175,4.9442,4.9328,4.8105,4.7876,4.7417,4.6156,4.6309,4.6309,4.543,4.566,4.5693,4.5125,4.5065,4.4934,4.4624,4.4599,0.0,0.0,0.0,4.4192,4.4192,4.4072,4.3886,4.3763,4.373,4.3701,4.3497,4.3497,4.3497,4.3497,4.3497,4.3497,4.3497,4.3497,4.3497,4.3497,4.3497,4.3497,4.3497,4.3497,4.3497,4.3608,4.4819,4.5516,4.603,4.7241,4.7939,4.8306,4.8306,4.8306,4.8306,4.8306,4.8306,4.8306,4.8306,4.8267,4.8229,4.8229,4.8812,4.9578,5.0383,5.1188,5.1993,5.2667,5.2937,5.306,5.285,5.2893,5.3017,5.2893,5.2893,5.2893,5.2893,5.4155,5.5265,5.5607,5.5607,5.5777,5.6563,5.6672,5.6804,5.7152,5.7188,5.7188,5.7188,5.7188,5.7188,5.7188,5.7188,5.7188,5.7188,5.7239,5.7289,5.7188,5.7188,5.7188,5.7188,5.7188,5.7188,5.7188,5.7188,5.7188,4.3329,4.4972,4.6615,4.9404,5.0206,5.0283,5.0283,4.9671,4.906,4.8907,4.8869,4.8372,4.6806,4.65,4.6233,4.543,4.5256,4.5213,4.5213,4.5192,4.5042,4.4751,4.4726,4.4624,4.4365,4.4299,0.0,0.0,0.0,4.3892,4.3892,4.3667,4.3497,4.3497,4.3497,4.3497,4.3497,4.3497,4.3497,4.3497,4.3497,4.3497,4.3497,4.3497,4.3497,4.3497,4.3497,4.3497,4.3497,4.3497,4.3497,4.3644,4.5259,4.5883,4.6104,4.7719,4.8306,4.8306,4.8267,4.8267,4.8267,4.8267,4.8267,4.8267,4.8267,4.819,4.8184,4.8331,4.8875,4.9596,5.0399,5.1201,5.1923,5.249,5.2806,5.2893,5.2761,5.2761,5.2806,5.2761,5.2761,5.2798,5.2899,5.3981,5.4821,5.5051,5.6174,5.7043,5.7188,5.7188,5.7188,5.7188,5.7188,5.7188,5.7188,5.7188,5.7188,5.7188,5.7188,5.7188,5.7188,5.7188,5.7188,5.7188,5.7188,5.7188,5.7188,5.7188,5.7188,5.7188,5.7188,5.7188,4.3329,4.6233,4.8678,4.9137,4.9786,5.0283,5.0283,4.9671,4.8869,4.8143,4.799,4.7685,4.6691,4.65,4.6233,4.543,4.5065,4.4887,4.4887,4.465,4.4493,4.4465,4.4438,4.4365,4.4079,4.4048,0.0,0.0,4.36,4.3566,4.3566,4.3532,4.3497,4.3497,4.3497,4.3497,4.3497,4.3497,4.3497,4.3497,4.3497,4.3497,4.3497,4.3497,4.3497,4.3497,4.3497,4.3497,4.3497,4.3497,4.3497,4.3644,4.5259,4.5883,4.6104,4.7719,4.8306,4.8306,4.8226,4.8226,4.8187,4.8072,4.8032,4.8032,4.8032,4.8032,4.8178,4.8867,4.9633,5.0435,5.1237,5.204,5.2615,5.2635,5.2635,5.2627,5.2572,5.2708,5.2761,5.2635,5.2635,5.2845,5.3432,5.3759,5.4291,5.5631,5.6029,5.6391,5.7116,5.7188,5.7188,5.7188,5.7188,5.7188,5.7188,5.7188,5.7188,5.7188,5.7188,5.7188,5.7188,5.7188,5.7188,5.7188,5.7188,5.7188,5.7188,5.7188,5.7188,5.7188,5.7188,5.7188,4.3329,4.5468,4.7302,4.8716,4.9366,4.9633,4.9633,4.8984,4.806,4.7067,4.6449,4.6077,4.5867,4.5665,4.5422,4.508,4.4751,4.4572,4.4572,4.4465,4.4327,4.4192,4.4162,4.4079,4.373,4.3697,0.0,0.0,4.3497,4.3497,4.3497,4.3497,4.3497,4.3497,4.3497,4.3497,4.3497,4.3497,4.3497,4.3497,4.3497,4.3463,4.3465,4.3497,4.3497,4.3497,4.3497,4.3497,4.3497,4.3497,4.3754,4.4305,4.5407,4.614,4.6615,4.7712,4.8151,4.8111,4.8072,4.8108,4.8072,4.8032,4.7992,4.7992,4.7992,4.8279,4.8675,4.904,5.0016,5.0983,5.1355,5.2045,5.2618,5.2536,5.2536,5.2572,5.248,5.2572,5.2618,5.2572,5.2536,5.278,5.3566,5.4074,5.4725,5.5848,5.6355,5.679,5.7152,5.7188,5.7188,5.7188,5.7188,5.7188,5.7188,5.7188,5.7188,5.7188,5.7188,5.7188,5.7188,5.7188,5.7188,5.7188,5.7188,5.7188,5.7188,5.7188,5.7188,5.7188,5.7188,5.7188,4.3097,4.4221,4.5421,4.7815,4.8365,4.8357,4.8586,4.7929,4.7034,4.6152,4.5357,4.4862,4.5042,4.4934,4.4776,4.4701,4.4519,4.4355,4.4336,4.4213,4.4102,4.3892,4.386,4.3763,4.3532,4.3497,4.3497,0.0,4.3497,4.3497,4.3497,4.3497,4.3497,4.3497,4.3497,4.3497,4.3497,4.3497,4.3463,4.3463,4.3463,4.3393,4.3359,4.3393,4.3428,4.3428,4.3463,4.3463,4.3463,4.3428,4.3904,4.4674,4.5443,4.6247,4.7012,4.774,4.7992,4.7992,4.7951,4.7951,4.7988,4.7911,4.7911,4.7911,4.7911,4.8452,4.9095,4.9277,5.0286,5.1357,5.1538,5.2045,5.248,5.248,5.248,5.248,5.248,5.248,5.248,5.248,5.2661,5.2987,5.3603,5.4508,5.5377,5.5921,5.6681,5.7188,5.7188,5.7188,5.7188,5.7188,5.7188,5.7188,5.7188,5.7188,5.7188,5.7188,5.7188,5.7188,5.7188,5.7188,5.7188,5.7188,5.7188,5.7188,5.7188,5.7036,5.7036,5.7188,5.6897,5.6793,4.2421,4.3111,4.4018,4.6129,4.6411,4.6405,4.729,4.6615,4.5792,4.5717,4.5229,4.4726,4.4493,4.4624,4.4726,4.4465,4.4411,4.4336,4.4048,4.373,4.3566,4.3532,4.3532,4.3532,4.3497,4.3497,4.3497,0.0,4.3497,4.3497,4.3497,4.3497,4.3497,4.3497,4.3497,4.3497,4.3497,4.3465,4.3394,4.3394,4.3286,4.3214,4.3214,4.3214,4.3214,4.3214,4.3359,4.3394,4.3394,4.3251,4.3689,4.4491,4.5293,4.6095,4.6898,4.77,4.7992,4.7992,4.7943,4.7902,4.7902,4.7741,4.7699,4.7699,4.7699,4.8279,4.9075,4.98,5.0633,5.1466,5.2226,5.248,5.248,5.248,5.248,5.248,5.248,5.248,5.248,5.248,5.3132,5.3639,5.3675,5.4943,5.5957,5.5993,5.6681,5.7188,5.7188,5.7188,5.7188,5.7188,5.7188,5.7188,5.7188,5.7188,5.7188,5.7188,5.7188,5.7188,5.7188,5.7188,5.7188,5.7188,5.7188,5.7188,5.7188,5.6635,5.6635,5.7188,5.5999,5.5808,4.2284,4.2558,4.2844,4.5224,4.6111,4.6422,4.6224,4.6318,4.6119,4.4864,4.4445,4.4192,4.3886,4.4213,4.4438,4.4192,4.3949,4.3758,4.3664,4.36,4.3497,4.3497,4.3497,4.3497,4.3497,4.3497,4.3497,0.0,0.0,4.3497,4.3497,4.3497,4.3497,4.3497,4.3497,4.3463,4.3465,4.3322,4.3251,4.3251,4.3214,4.3178,4.3141,4.3178,4.3178,4.3141,4.3178,4.3251,4.3287,4.3761,4.4454,4.5257,4.6018,4.6779,4.7543,4.7715,4.7824,4.7824,4.7783,4.7777,4.7741,4.7699,4.7699,4.7808,4.8315,4.9039,4.9836,5.0633,5.143,5.2118,5.2408,5.248,5.248,5.248,5.248,5.2625,5.3168,5.2842,5.2806,5.3856,5.3856,5.4001,5.5015,5.5631,5.6174,5.6681,5.7007,5.7188,5.7188,5.7188,5.7188,5.7188,5.7188,5.7188,5.7188,5.7188,5.7188,5.7188,5.7188,5.7188,5.7188,5.7188,5.7188,5.7188,5.6829,5.6793,5.7188,5.6984,5.6984,5.7188,5.674,5.6474,4.2313,4.218,4.2084,4.4722,4.5289,4.5227,4.5295,4.5674,4.5616,4.4022,4.405,4.4161,4.3569,4.3886,4.4162,4.386,4.373,4.3634,4.3532,4.3497,4.3497,4.3497,4.3497,4.3497,4.3497,4.3497,4.3497,0.0,0.0,0.0,4.3497,4.3463,4.3428,4.3393,4.3393,4.3393,4.3322,4.3214,4.3178,4.3142,4.3142,4.3068,4.3031,4.3068,4.3213,4.3467,4.3467,4.3504,4.3615,4.4087,4.4924,4.5942,4.6444,4.7093,4.7819,4.7699,4.7699,4.7699,4.7699,4.7699,4.7699,4.7699,4.788,4.8206,4.8749,4.9655,5.0597,5.114,5.1864,5.248,5.248,5.248,5.248,5.248,5.2697,5.3132,5.3929,5.3458,5.3313,5.4653,5.4653,5.4798,5.5812,5.621,5.6573,5.7116,5.7188,5.7188,5.7188,5.7188,5.7188,5.7188,5.7188,5.7188,5.7188,5.7188,5.7188,5.7188,5.7188,5.7188,5.7188,5.7442,5.7587,5.7587,5.7227,5.7262,5.7637,5.6975,5.6866,5.7316,5.6893,5.6493,0.0,0.0,0.0,4.4532,4.3786,4.2791,4.4475,4.4636,4.4199,4.336,4.4154,4.4653,4.3574,4.3734,4.386,4.3566,4.3763,4.386,4.3566,4.3497,4.3497,4.3497,4.3497,4.3497,4.3497,4.3497,4.3497,0.0,4.3497,4.3497,4.3497,4.3428,4.3322,4.3214,4.3214,4.3214,4.3251,4.3141,4.3141,4.3177,4.3029,4.2955,4.2955,4.2955,4.3389,4.4114,4.4114,4.4227,4.434,4.4225,4.5091,4.6504,4.654,4.7011,4.7699,4.7699,4.7699,4.7699,4.7699,4.7699,4.7699,4.7699,4.8242,4.8931,4.8931,5.0053,5.1285,5.1321,5.19,5.248,5.248,5.248,5.2516,5.2516,5.3132,5.3929,5.4713,5.4279,5.4001,5.4834,5.5522,5.5993,5.6029,5.6681,5.7188,5.7188,5.7188,5.7188,5.7188,5.7188,5.7188,5.7188,5.7188,5.7188,5.7188,5.7188,5.7188,5.7188,5.7224,5.7224,5.7224,5.8021,5.8456,5.8456,5.8498,5.8574,5.8609,5.6544,5.6264,5.7561,5.6336,5.5716,4.2484,0.0,0.0,0.0,0.0,0.0,4.3616,4.4491,4.4892,4.3506,4.3944,4.4272,4.3433,4.3358,4.3391,4.3322,4.3428,4.3532,4.3465,4.3322,4.3286,4.3286,4.3358,4.3429,4.3429,4.3463,4.3463,0.0,4.3429,4.3358,4.3286,4.3251,4.3251,4.3214,4.3142,4.3396,4.3978,4.3902,4.4116,4.4696,4.4621,4.4621,4.4621,4.4621,4.4765,4.4983,4.4983,4.5309,4.5892,4.5852,4.6106,4.6576,4.7156,4.7518,4.7699,4.7699,4.7699,4.7699,4.7699,4.7699,4.7699,4.7699,4.8242,4.9039,4.9582,5.0488,5.1393,5.2009,5.2335,5.248,5.248,5.248,5.2661,5.3241,5.353,5.3978,5.4876,5.488,5.5056,5.6292,5.6247,5.6174,5.6754,5.7043,5.7188,5.7188,5.7188,5.7188,5.7188,5.7188,5.7188,5.7188,5.7188,5.7188,5.7188,5.7188,5.7188,5.7188,5.7732,5.8058,5.8058,5.8358,5.879,5.9289,5.7906,5.7681,5.8774,5.8083,5.7716,5.7561,5.6733,5.6335,0.0,4.2556,4.2411,4.3208,0.0,0.0,4.3538,4.4267,4.4705,4.3796,4.4233,4.4707,4.4234,4.3907,4.3725,4.3725,4.3725,4.3652,4.3359,4.3251,4.3214,4.3214,4.3251,4.3323,4.3323,4.3358,4.3358,4.3286,4.3323,4.3251,4.3142,4.3142,4.3142,4.3105,4.3358,4.3719,4.4229,4.4479,4.4838,4.5309,4.5309,4.5309,4.5309,4.5309,4.549,4.5816,4.5816,4.625,4.7011,4.7011,4.7011,4.7047,4.7518,4.7699,4.7699,4.7699,4.7699,4.7699,4.7699,4.7699,4.7772,4.8098,4.8749,4.9546,5.0343,5.1004,5.1502,5.197,5.1933,5.175,5.175,5.2036,5.2344,5.2809,5.3417,5.4132,5.492,5.5166,5.5466,5.6313,5.624,5.6253,5.6721,5.7036,5.7188,5.7188,5.7188,5.7188,5.7188,5.7188,5.7188,5.7188,5.7188,5.7188,5.7188,5.7188,5.7232,5.7261,5.7729,5.8017,5.8065,5.8472,5.8899,5.9245,5.8107,5.8005,5.8851,5.8212,5.7811,5.77,5.7363,5.7158,0.0,0.0,0.0,4.3788,4.3498,0.0,4.3824,4.4077,4.4186,4.4005,4.4699,4.5358,4.5358,4.4815,4.4417,4.449,4.4378,4.4051,4.3397,4.3287,4.3324,4.3433,4.3287,4.3215,4.3287,4.3251,4.3214,4.3178,4.3178,4.3142,4.3104,4.314,4.3139,4.3027,4.3788,4.4258,4.4367,4.5091,4.549,4.5562,4.5562,4.5562,4.5562,4.5562,4.5961,4.6649,4.6649,4.7047,4.7699,4.7699,4.7699,4.7699,4.7699,4.7699,4.7699,4.7699,4.7772,4.7844,4.7735,4.7766,4.7976,4.8591,4.9342,5.0173,5.0895,5.1323,5.15,5.15,5.1105,5.0697,5.0697,5.1294,5.1906,5.1976,5.3098,5.4358,5.4879,5.5164,5.5284,5.5224,5.5751,5.6201,5.6201,5.6635,5.7036,5.7036,5.7036,5.7036,5.7036,5.7036,5.7036,5.7036,5.7036,5.7036,5.7036,5.7108,5.7172,5.7306,5.7427,5.7623,5.7728,5.8437,5.8857,5.892,5.89,5.8841,5.8772,5.7562,5.7311,5.8027,5.7954,5.7881,0.0,0.0,0.0,0.0,0.0,0.0,4.3244,4.415,4.4693,4.3389,4.379,4.437,4.437,4.4261,4.4372,4.4986,4.4551,4.4118,4.4087,4.3975,4.4191,4.4805,4.383,4.3396,4.4014,4.3543,4.3178,4.3141,4.3031,4.292,4.2956,4.3572,4.3899,4.386,4.4657,4.5381,4.6033,4.6178,4.6613,4.7228,4.7228,4.7228,4.7228,4.7228,4.7337,4.7482,4.7482,4.7554,4.7699,4.7699,4.7699,4.7699,4.7699,4.7699,4.7699,4.7699,4.8134,4.8568,4.7916,4.8235,4.8805,4.834,4.8804,4.9623,4.9799,5.0312,5.0858,5.0858,5.0805,5.0697,5.0697,5.1294,5.2011,5.2664,5.3541,5.4268,5.4504,5.4599,5.4454,5.398,5.4799,5.5578,5.5578,5.5658,5.5716,5.5716,5.5716,5.5716,5.5716,5.5716,5.5716,5.5716,5.5716,5.5716,5.5716,5.6281,5.6646,5.667,5.7806,5.8519,5.8535,5.8755,5.9137,5.9756,5.9245,5.8633,5.8065,5.7819,5.8072,5.8703,5.8137,5.7881,0.0,0.0,0.0,4.4077,0.0,0.0,0.0,4.3788,4.4077,4.4077,4.4077,4.4331,4.5164,4.4621,4.4367,4.5164,4.4947,4.4877,4.5316,4.466,4.4258,4.4657,4.4044,4.3756,4.4155,4.3503,4.3068,4.2994,4.2956,4.3063,4.3462,4.386,4.4258,4.4693,4.549,4.6106,4.6504,4.6902,4.7301,4.7699,4.7699,4.7699,4.7699,4.7699,4.7699,4.7699,4.7699,4.7699,4.7699,4.7699,4.7699,4.7699,4.7699,4.7572,4.7356,4.7707,4.7931,4.8021,4.8057,4.8364,4.8806,4.877,4.9097,4.9556,4.9942,5.02,5.0237,4.9953,4.9838,4.9942,5.0321,5.0976,5.1709,5.2494,5.3287,5.3977,5.4322,5.4171,5.3946,5.3946,5.4205,5.4551,5.4826,5.5189,5.5402,5.5402,5.5402,5.5519,5.5808,5.5578,5.5601,5.6221,5.6069,5.6082,5.6374,5.6786,5.7079,5.7086,5.7816,5.8311,5.8357,5.8392,5.8598,5.8944,5.8598,5.828,5.7881,5.8254,5.8439,5.8388,5.8099,5.7881,0.0,0.0,0.0,0.0,0.0,4.4476,0.0,0.0,0.0,4.4621,4.4331,4.4295,4.578,4.4983,4.4367,4.5164,4.5309,4.5526,4.6178,4.5273,0.0,4.4765,4.4512,4.4367,4.4548,4.3824,4.3281,4.3136,4.3136,4.3389,4.4077,4.4258,4.4693,4.5526,4.6323,4.6721,4.6721,4.7373,4.7699,4.7699,4.7699,4.7699,4.7699,4.7699,4.7699,4.7699,4.7699,4.7699,4.7699,4.7699,4.7687,4.7753,4.7729,4.7435,4.7212,4.7772,4.7829,4.7697,4.8223,4.8505,4.8767,4.9221,4.9358,4.9513,5.0195,5.0067,4.9615,4.9107,4.9018,4.9187,4.9898,5.0642,5.1386,5.2131,5.2909,5.3618,5.4106,5.3849,5.3685,5.4106,5.3849,5.3685,5.4171,5.4676,5.5044,5.5044,5.5044,5.5224,5.5658,5.5448,5.5578,5.6599,5.6517,5.6554,5.7035,5.7316,5.7478,5.7501,5.7672,5.7773,5.792,5.7881,5.7881,5.7881,5.8017,5.8084,5.8118,5.8863,5.8829,5.8118,5.8254,5.8321,0.0,0.0,0.0,0.0,4.578,0.0,0.0,0.0,4.4657,4.3425,0.0,4.3317,4.4186,0.0,0.0,4.5164,4.5309,4.5345,4.5417,4.5888,4.6504,4.7228,4.6033,4.5454,4.6178,4.549,4.4729,4.4005,4.3969,4.4005,4.4077,4.4765,4.5526,4.6359,4.7156,4.7554,4.7554,4.7663,4.7699,4.7699,4.7699,4.7699,4.7699,4.7699,4.7699,4.7699,4.7699,4.7699,4.7699,4.7699,4.7803,4.7946,4.7782,4.7759,4.7879,4.7986,4.8537,4.917,4.8609,4.899,4.9642,4.8998,4.8929,4.9033,4.9195,4.9168,4.9107,4.9018,4.9018,4.9187,4.9898,5.0642,5.1386,5.2131,5.2909,5.3518,5.3551,5.3551,5.3484,5.3618,5.3551,5.3484,5.3618,5.3685,5.3751,5.3751,5.3751,5.3751,5.3783,5.4295,5.477,5.487,5.5451,5.5825,5.5894,5.6505,5.691,5.6908,5.7552,5.7853,5.7881,5.7881,5.7881,5.7881,5.8558,5.8896,5.8896,5.9607,5.9607,5.8896,5.9539,5.9844,0.0,0.0,0.0,0.0,0.0,0.0,4.5635,0.0,4.5236,0.0,0.0,0.0,0.0,0.0,0.0,0.0,4.5997,4.5997,4.5997,4.6287,4.6649,4.6975,0.0,0.0,4.5816,4.549,4.5164,4.4802,4.4367,4.4512,4.5454,4.5816,4.6576,4.7844,4.8242,4.8424,4.8424,4.7953,4.7699,4.7699,4.7699,4.7699,4.7699,4.7699,4.7699,4.7693,4.7831,4.7878,4.7868,4.8057,4.8125,4.8226,4.8139,4.7978,4.7788,4.8242,4.8514,4.8598,4.8678,4.9042,4.9342,4.8976,4.8897,4.9018,4.9018,4.9018,4.9018,4.9018,4.9323,4.9796,5.0541,5.1285,5.2029,5.2807,5.3247,5.3518,5.3518,5.3822,5.4126,5.4126,5.4126,5.4126,5.4126,5.3788,5.3518,5.3518,5.3518,5.3788,5.4561,5.4635,5.5077,5.6249,5.6338,5.6467,5.685,5.7182,5.7442,5.7442,5.7712,5.7881,5.7881,5.8321,5.8558,5.8558,5.9268,5.9641,5.9641,6.0419,6.0655,6.0351,6.0182,6.0114,4.7663,0.0,0.0,0.0,0.0,0.0,0.0,0.0,0.0,0.0,0.0,0.0,0.0,0.0,0.0,0.0,0.0,4.6504,4.6504,4.6685,4.6757,0.0,0.0,0.0,0.0,4.5961,4.5888,4.5635,4.5091,4.5273,4.6432,4.6721,4.7373,4.8532,4.9003,4.9039,4.8605,4.8424,4.8134,4.7699,4.7916,4.8025,4.8025,4.8025,4.817,4.8345,4.836,4.8342,4.833,4.8393,4.8435,4.8451,4.8451,4.8266,4.8037,4.8518,4.8504,4.8308,4.8815,4.9018,4.9018,4.9018,4.9018,4.9018,4.9018,4.9018,4.9052,4.9255,4.9695,5.0304,5.1251,5.1894,5.2503,5.3315,5.3653,5.3754,5.3551,5.4228,5.4769,5.4363,5.4465,5.4532,5.4329,5.4025,5.3788,5.3788,5.3991,5.4466,5.5412,5.5383,5.5758,5.7235,5.7227,5.7284,5.7706,5.7831,5.7881,5.7881,5.8084,5.8186,5.8186,5.893,5.9302,5.9302,6.0047,6.0419,6.0419,6.1231,6.1603,6.1603,6.0994,6.0723,0.0,0.0,0.0,4.7699,0.0,0.0,0.0,0.0,4.625,0.0,0.0,0.0,0.0,0.0,0.0,0.0,0.0,0.0,0.0,4.7192,4.7373,4.6613,0.0,0.0,0.0,4.7627,4.7301,4.654,4.6432,4.6468,4.6504,4.7265,4.7699,4.7735,4.9257,4.9293,4.7772,4.9257,4.922,4.7735,4.8496,4.8858,4.8858,4.8858,4.9293,5.0017,4.9399,4.9162,4.9114,4.8604,4.8537,4.87,4.87,4.8778,4.8972,4.8723,4.8846,4.8984,4.8984,4.9018,4.9018,4.9018,4.9018,4.9018,4.9018,4.9018,4.9154,4.9864,5.0067,5.0439,5.1894,5.2266,5.2503,5.3315,5.4059,5.4363,5.3653,5.4634,5.5243,5.3822,5.4093,5.4363,5.3653,5.4093,5.4566,5.4566,5.5175,5.5649,5.5683,5.6292,5.6731,5.6836,5.7408,5.7848,5.792,5.7881,5.7881,5.7881,5.8592,5.8964,5.8964,5.9674,6.0047,6.0047,6.0858,6.1264,6.1264,6.2009,6.2347,6.2347,6.2347,6.2313,0.0,0.0,4.7699,4.7699,0.0,0.0,0.0,0.0,0.0,0.0,0.0,0.0,0.0,0.0,0.0,0.0,0.0,0.0,0.0,4.5642,4.538,4.4787,4.6449,4.7699,0.0,0.0,4.6794,4.654,4.5997,4.5961,4.6468,4.7265,4.8206,4.9257,4.98,5.009,5.009,4.9582,4.9293,4.9293,4.9039,4.8973,4.9123,4.9123,4.9043,4.8941,4.8872,4.887,4.8851,4.8793,4.8856,4.8882,4.8882,4.8931,4.8984,4.8923,4.8965,4.9018,4.9018,4.9018,4.9018,4.9018,4.9018,4.9018,4.9018,4.9018,4.9154,4.9898,5.0439,5.1048,5.2029,5.2706,5.3179,5.345,5.3687,5.3923,5.416,5.5006,5.5716,5.5683,5.5886,5.5987,5.5716,5.5886,5.5716,5.4735,5.5243,5.5886,5.6393,5.6664,5.7002,5.7476,5.7746,5.7881,5.7881,5.8355,5.8626,5.8626,5.9336,5.9742,5.9742,6.0486,6.0892,6.0892,6.1637,6.2009,6.2009,6.2279,6.2381,6.2381,6.2381,6.2381,4.6432,4.7083,0.0,4.7699,4.7699,0.0,4.7699,0.0,0.0,0.0,0.0,0.0,0.0,0.0,0.0,0.0,0.0,0.0,0.0,4.5425,4.5007,4.4562,4.623,4.7299,4.7011,4.6964,4.6685,4.6106,4.6106,4.625,4.6504,0.0,4.8605,4.9655,5.0234,5.0507,5.0541,5.0326,4.9947,4.9471,4.9441,4.9399,4.9295,4.9295,4.9286,4.9241,4.9132,4.9148,4.9126,4.9025,4.9018,4.9018,4.9018,4.9018,4.9018,4.9018,4.9018,4.9018,4.9018,4.9018,4.9018,4.9018,4.9018,4.9052,4.9323,4.939,4.9661,5.0947,5.1454,5.1826,5.2841,5.3315,5.3518,5.3518,5.3923,5.4363,5.4532,5.5581,5.6393,5.6089,5.6427,5.663,5.6122,5.6461,5.6494,5.5513,5.6021,5.6664,5.7137,5.7408,5.7679,5.7881,5.8355,5.866,5.866,5.9133,5.9404,5.9404,6.0114,6.052,6.052,6.1264,6.167,6.167,6.2144,6.2381,6.2381,6.2381,6.2381,6.2381,6.2381,6.2381]}]]